<?xml version="1.0" encoding="UTF-8" standalone="no" ?>
<gpx xmlns="http://www.topografix.com/GPX/1/1" xmlns:xsi="http://www.w3.org/2001/XMLSchema-instance" xsi:schemaLocation="http://www.topografix.com/GPX/1/1 http://www.topografix.com/GPX/1/1/gpx.xsd" version="1.1" creator="VisuGPX - https://www.visugpx.com">
  <metadata>
    <name>VTT - Aumont Aubrac Fau de Peyre</name>
    <desc><![CDATA[Encore une sortie VTT aux alentours d'Aumont-Aubrac. Vraiment sympa.]]></desc>
  </metadata>
  <trk>
    <name><![CDATA[25-FEV-16 19:24:31]]></name>
    <trkseg>
      <trkpt lat="44.72129" lon="3.28712">
        <ele>1076.33</ele>
        <time>2016-02-25T07:32:10Z</time>
      </trkpt>
      <trkpt lat="44.72129" lon="3.28711">
        <ele>1075.85</ele>
        <time>2016-02-25T07:32:16Z</time>
      </trkpt>
      <trkpt lat="44.7213" lon="3.2871">
        <ele>1074.89</ele>
        <time>2016-02-25T07:32:32Z</time>
      </trkpt>
      <trkpt lat="44.72149" lon="3.28703">
        <ele>1074.89</ele>
        <time>2016-02-25T07:40:48Z</time>
      </trkpt>
      <trkpt lat="44.7215" lon="3.28703">
        <ele>1074.89</ele>
        <time>2016-02-25T07:40:49Z</time>
      </trkpt>
      <trkpt lat="44.72148" lon="3.28695">
        <ele>1071.53</ele>
        <time>2016-02-25T07:41:02Z</time>
      </trkpt>
      <trkpt lat="44.72148" lon="3.28695">
        <ele>1071.53</ele>
        <time>2016-02-25T07:41:03Z</time>
      </trkpt>
      <trkpt lat="44.72147" lon="3.28694">
        <ele>1070.08</ele>
        <time>2016-02-25T07:41:07Z</time>
      </trkpt>
      <trkpt lat="44.72149" lon="3.2869">
        <ele>1066.72</ele>
        <time>2016-02-25T07:41:22Z</time>
      </trkpt>
      <trkpt lat="44.72148" lon="3.28688">
        <ele>1064.8</ele>
        <time>2016-02-25T07:41:50Z</time>
      </trkpt>
      <trkpt lat="44.72152" lon="3.28688">
        <ele>1064.32</ele>
        <time>2016-02-25T07:42:18Z</time>
      </trkpt>
      <trkpt lat="44.7215" lon="3.28689">
        <ele>1064.32</ele>
        <time>2016-02-25T07:42:32Z</time>
      </trkpt>
      <trkpt lat="44.72148" lon="3.28678">
        <ele>1059.99</ele>
        <time>2016-02-25T07:42:39Z</time>
      </trkpt>
      <trkpt lat="44.72149" lon="3.28676">
        <ele>1071.53</ele>
        <time>2016-02-25T07:42:40Z</time>
      </trkpt>
      <trkpt lat="44.72149" lon="3.28674">
        <ele>1055.67</ele>
        <time>2016-02-25T07:42:41Z</time>
      </trkpt>
      <trkpt lat="44.7215" lon="3.28672">
        <ele>1070.57</ele>
        <time>2016-02-25T07:42:42Z</time>
      </trkpt>
      <trkpt lat="44.72151" lon="3.28671">
        <ele>1064.8</ele>
        <time>2016-02-25T07:42:43Z</time>
      </trkpt>
      <trkpt lat="44.72152" lon="3.28673">
        <ele>1064.32</ele>
        <time>2016-02-25T07:42:46Z</time>
      </trkpt>
      <trkpt lat="44.72161" lon="3.28676">
        <ele>1062.87</ele>
        <time>2016-02-25T07:42:51Z</time>
      </trkpt>
      <trkpt lat="44.72168" lon="3.28675">
        <ele>1061.43</ele>
        <time>2016-02-25T07:42:54Z</time>
      </trkpt>
      <trkpt lat="44.72176" lon="3.28665">
        <ele>1059.99</ele>
        <time>2016-02-25T07:42:57Z</time>
      </trkpt>
      <trkpt lat="44.7218" lon="3.28661">
        <ele>1059.51</ele>
        <time>2016-02-25T07:42:58Z</time>
      </trkpt>
      <trkpt lat="44.72185" lon="3.28659">
        <ele>1059.03</ele>
        <time>2016-02-25T07:42:59Z</time>
      </trkpt>
      <trkpt lat="44.7219" lon="3.28657">
        <ele>1058.07</ele>
        <time>2016-02-25T07:43:00Z</time>
      </trkpt>
      <trkpt lat="44.72195" lon="3.28655">
        <ele>1058.07</ele>
        <time>2016-02-25T07:43:01Z</time>
      </trkpt>
      <trkpt lat="44.722" lon="3.28652">
        <ele>1057.11</ele>
        <time>2016-02-25T07:43:02Z</time>
      </trkpt>
      <trkpt lat="44.72211" lon="3.28645">
        <ele>1056.15</ele>
        <time>2016-02-25T07:43:05Z</time>
      </trkpt>
      <trkpt lat="44.72213" lon="3.28641">
        <ele>1055.67</ele>
        <time>2016-02-25T07:43:06Z</time>
      </trkpt>
      <trkpt lat="44.72215" lon="3.28635">
        <ele>1055.67</ele>
        <time>2016-02-25T07:43:07Z</time>
      </trkpt>
      <trkpt lat="44.72216" lon="3.28629">
        <ele>1054.7</ele>
        <time>2016-02-25T07:43:08Z</time>
      </trkpt>
      <trkpt lat="44.72217" lon="3.28622">
        <ele>1054.7</ele>
        <time>2016-02-25T07:43:09Z</time>
      </trkpt>
      <trkpt lat="44.72226" lon="3.28586">
        <ele>1052.78</ele>
        <time>2016-02-25T07:43:14Z</time>
      </trkpt>
      <trkpt lat="44.72255" lon="3.28532">
        <ele>1050.86</ele>
        <time>2016-02-25T07:43:24Z</time>
      </trkpt>
      <trkpt lat="44.72263" lon="3.28529">
        <ele>1050.86</ele>
        <time>2016-02-25T07:43:30Z</time>
      </trkpt>
      <trkpt lat="44.7228" lon="3.28548">
        <ele>1047.49</ele>
        <time>2016-02-25T07:43:37Z</time>
      </trkpt>
      <trkpt lat="44.72284" lon="3.28552">
        <ele>1047.01</ele>
        <time>2016-02-25T07:43:39Z</time>
      </trkpt>
      <trkpt lat="44.72286" lon="3.28552">
        <ele>1046.53</ele>
        <time>2016-02-25T07:43:40Z</time>
      </trkpt>
      <trkpt lat="44.72287" lon="3.28552">
        <ele>1044.61</ele>
        <time>2016-02-25T07:43:48Z</time>
      </trkpt>
      <trkpt lat="44.72287" lon="3.28552">
        <ele>1049.42</ele>
        <time>2016-02-25T07:43:49Z</time>
      </trkpt>
      <trkpt lat="44.72287" lon="3.28552">
        <ele>1047.01</ele>
        <time>2016-02-25T07:43:50Z</time>
      </trkpt>
      <trkpt lat="44.72288" lon="3.28551">
        <ele>1046.53</ele>
        <time>2016-02-25T07:43:51Z</time>
      </trkpt>
      <trkpt lat="44.72289" lon="3.28549">
        <ele>1046.53</ele>
        <time>2016-02-25T07:43:52Z</time>
      </trkpt>
      <trkpt lat="44.72291" lon="3.28547">
        <ele>1046.05</ele>
        <time>2016-02-25T07:43:53Z</time>
      </trkpt>
      <trkpt lat="44.72304" lon="3.28533">
        <ele>1046.05</ele>
        <time>2016-02-25T07:43:58Z</time>
      </trkpt>
      <trkpt lat="44.72304" lon="3.28529">
        <ele>1046.05</ele>
        <time>2016-02-25T07:43:59Z</time>
      </trkpt>
      <trkpt lat="44.72302" lon="3.28525">
        <ele>1046.53</ele>
        <time>2016-02-25T07:44:00Z</time>
      </trkpt>
      <trkpt lat="44.723" lon="3.2852">
        <ele>1046.53</ele>
        <time>2016-02-25T07:44:01Z</time>
      </trkpt>
      <trkpt lat="44.72299" lon="3.28515">
        <ele>1046.53</ele>
        <time>2016-02-25T07:44:02Z</time>
      </trkpt>
      <trkpt lat="44.72298" lon="3.28511">
        <ele>1047.49</ele>
        <time>2016-02-25T07:44:03Z</time>
      </trkpt>
      <trkpt lat="44.72298" lon="3.28507">
        <ele>1047.97</ele>
        <time>2016-02-25T07:44:04Z</time>
      </trkpt>
      <trkpt lat="44.72299" lon="3.28504">
        <ele>1047.97</ele>
        <time>2016-02-25T07:44:05Z</time>
      </trkpt>
      <trkpt lat="44.723" lon="3.28502">
        <ele>1048.45</ele>
        <time>2016-02-25T07:44:06Z</time>
      </trkpt>
      <trkpt lat="44.72298" lon="3.285">
        <ele>1048.45</ele>
        <time>2016-02-25T07:44:07Z</time>
      </trkpt>
      <trkpt lat="44.72297" lon="3.28497">
        <ele>1048.45</ele>
        <time>2016-02-25T07:44:08Z</time>
      </trkpt>
      <trkpt lat="44.72297" lon="3.28494">
        <ele>1048.45</ele>
        <time>2016-02-25T07:44:09Z</time>
      </trkpt>
      <trkpt lat="44.72297" lon="3.28492">
        <ele>1048.45</ele>
        <time>2016-02-25T07:44:10Z</time>
      </trkpt>
      <trkpt lat="44.72299" lon="3.28488">
        <ele>1048.45</ele>
        <time>2016-02-25T07:44:13Z</time>
      </trkpt>
      <trkpt lat="44.72301" lon="3.28486">
        <ele>1047.97</ele>
        <time>2016-02-25T07:44:14Z</time>
      </trkpt>
      <trkpt lat="44.72302" lon="3.28487">
        <ele>1047.49</ele>
        <time>2016-02-25T07:44:15Z</time>
      </trkpt>
      <trkpt lat="44.72304" lon="3.28488">
        <ele>1047.01</ele>
        <time>2016-02-25T07:44:16Z</time>
      </trkpt>
      <trkpt lat="44.72305" lon="3.28489">
        <ele>1047.01</ele>
        <time>2016-02-25T07:44:17Z</time>
      </trkpt>
      <trkpt lat="44.72308" lon="3.28489">
        <ele>1046.53</ele>
        <time>2016-02-25T07:44:18Z</time>
      </trkpt>
      <trkpt lat="44.72311" lon="3.28487">
        <ele>1046.53</ele>
        <time>2016-02-25T07:44:19Z</time>
      </trkpt>
      <trkpt lat="44.72312" lon="3.28485">
        <ele>1046.05</ele>
        <time>2016-02-25T07:44:20Z</time>
      </trkpt>
      <trkpt lat="44.72313" lon="3.28482">
        <ele>1046.05</ele>
        <time>2016-02-25T07:44:21Z</time>
      </trkpt>
      <trkpt lat="44.72313" lon="3.2848">
        <ele>1046.53</ele>
        <time>2016-02-25T07:44:22Z</time>
      </trkpt>
      <trkpt lat="44.72313" lon="3.28477">
        <ele>1047.01</ele>
        <time>2016-02-25T07:44:23Z</time>
      </trkpt>
      <trkpt lat="44.72314" lon="3.28474">
        <ele>1047.01</ele>
        <time>2016-02-25T07:44:24Z</time>
      </trkpt>
      <trkpt lat="44.72308" lon="3.28414">
        <ele>1045.57</ele>
        <time>2016-02-25T07:44:37Z</time>
      </trkpt>
      <trkpt lat="44.72305" lon="3.28351">
        <ele>1047.49</ele>
        <time>2016-02-25T07:44:49Z</time>
      </trkpt>
      <trkpt lat="44.72303" lon="3.28316">
        <ele>1048.45</ele>
        <time>2016-02-25T07:44:59Z</time>
      </trkpt>
      <trkpt lat="44.723" lon="3.28264">
        <ele>1045.09</ele>
        <time>2016-02-25T07:45:07Z</time>
      </trkpt>
      <trkpt lat="44.723" lon="3.28254">
        <ele>1044.61</ele>
        <time>2016-02-25T07:45:08Z</time>
      </trkpt>
      <trkpt lat="44.72301" lon="3.28217">
        <ele>1041.73</ele>
        <time>2016-02-25T07:45:12Z</time>
      </trkpt>
      <trkpt lat="44.72301" lon="3.28207">
        <ele>1040.76</ele>
        <time>2016-02-25T07:45:13Z</time>
      </trkpt>
      <trkpt lat="44.72306" lon="3.28183">
        <ele>1037.88</ele>
        <time>2016-02-25T07:45:15Z</time>
      </trkpt>
      <trkpt lat="44.72309" lon="3.28169">
        <ele>1032.59</ele>
        <time>2016-02-25T07:45:16Z</time>
      </trkpt>
      <trkpt lat="44.72314" lon="3.28143">
        <ele>1028.27</ele>
        <time>2016-02-25T07:45:18Z</time>
      </trkpt>
      <trkpt lat="44.72327" lon="3.281">
        <ele>1025.38</ele>
        <time>2016-02-25T07:45:22Z</time>
      </trkpt>
      <trkpt lat="44.7233" lon="3.2809">
        <ele>1024.9</ele>
        <time>2016-02-25T07:45:23Z</time>
      </trkpt>
      <trkpt lat="44.72331" lon="3.28081">
        <ele>1024.42</ele>
        <time>2016-02-25T07:45:24Z</time>
      </trkpt>
      <trkpt lat="44.7233" lon="3.28072">
        <ele>1023.94</ele>
        <time>2016-02-25T07:45:25Z</time>
      </trkpt>
      <trkpt lat="44.72326" lon="3.28063">
        <ele>1022.5</ele>
        <time>2016-02-25T07:45:26Z</time>
      </trkpt>
      <trkpt lat="44.72321" lon="3.28056">
        <ele>1022.98</ele>
        <time>2016-02-25T07:45:27Z</time>
      </trkpt>
      <trkpt lat="44.72316" lon="3.2805">
        <ele>1022.5</ele>
        <time>2016-02-25T07:45:28Z</time>
      </trkpt>
      <trkpt lat="44.72311" lon="3.28045">
        <ele>1021.54</ele>
        <time>2016-02-25T07:45:29Z</time>
      </trkpt>
      <trkpt lat="44.72308" lon="3.2804">
        <ele>1022.5</ele>
        <time>2016-02-25T07:45:30Z</time>
      </trkpt>
      <trkpt lat="44.72305" lon="3.28036">
        <ele>1021.54</ele>
        <time>2016-02-25T07:45:31Z</time>
      </trkpt>
      <trkpt lat="44.72305" lon="3.28031">
        <ele>1021.54</ele>
        <time>2016-02-25T07:45:32Z</time>
      </trkpt>
      <trkpt lat="44.72307" lon="3.28025">
        <ele>1021.06</ele>
        <time>2016-02-25T07:45:33Z</time>
      </trkpt>
      <trkpt lat="44.72311" lon="3.28022">
        <ele>1020.1</ele>
        <time>2016-02-25T07:45:34Z</time>
      </trkpt>
      <trkpt lat="44.72316" lon="3.2802">
        <ele>1019.62</ele>
        <time>2016-02-25T07:45:35Z</time>
      </trkpt>
      <trkpt lat="44.72322" lon="3.28019">
        <ele>1019.13</ele>
        <time>2016-02-25T07:45:36Z</time>
      </trkpt>
      <trkpt lat="44.72328" lon="3.28018">
        <ele>1018.65</ele>
        <time>2016-02-25T07:45:37Z</time>
      </trkpt>
      <trkpt lat="44.72334" lon="3.28016">
        <ele>1018.17</ele>
        <time>2016-02-25T07:45:38Z</time>
      </trkpt>
      <trkpt lat="44.7234" lon="3.28014">
        <ele>1017.69</ele>
        <time>2016-02-25T07:45:39Z</time>
      </trkpt>
      <trkpt lat="44.72346" lon="3.2801">
        <ele>1017.21</ele>
        <time>2016-02-25T07:45:40Z</time>
      </trkpt>
      <trkpt lat="44.72353" lon="3.28006">
        <ele>1016.73</ele>
        <time>2016-02-25T07:45:41Z</time>
      </trkpt>
      <trkpt lat="44.72365" lon="3.27997">
        <ele>1015.77</ele>
        <time>2016-02-25T07:45:43Z</time>
      </trkpt>
      <trkpt lat="44.72385" lon="3.2798">
        <ele>1015.77</ele>
        <time>2016-02-25T07:45:46Z</time>
      </trkpt>
      <trkpt lat="44.72411" lon="3.27963">
        <ele>1015.77</ele>
        <time>2016-02-25T07:45:50Z</time>
      </trkpt>
      <trkpt lat="44.72418" lon="3.2796">
        <ele>1015.29</ele>
        <time>2016-02-25T07:45:51Z</time>
      </trkpt>
      <trkpt lat="44.72425" lon="3.27959">
        <ele>1015.29</ele>
        <time>2016-02-25T07:45:52Z</time>
      </trkpt>
      <trkpt lat="44.72431" lon="3.27959">
        <ele>1015.29</ele>
        <time>2016-02-25T07:45:53Z</time>
      </trkpt>
      <trkpt lat="44.72438" lon="3.2796">
        <ele>1015.29</ele>
        <time>2016-02-25T07:45:54Z</time>
      </trkpt>
      <trkpt lat="44.72444" lon="3.27961">
        <ele>1015.29</ele>
        <time>2016-02-25T07:45:55Z</time>
      </trkpt>
      <trkpt lat="44.7253" lon="3.27962">
        <ele>1016.25</ele>
        <time>2016-02-25T07:46:10Z</time>
      </trkpt>
      <trkpt lat="44.72591" lon="3.2793">
        <ele>1018.65</ele>
        <time>2016-02-25T07:46:24Z</time>
      </trkpt>
      <trkpt lat="44.72595" lon="3.27926">
        <ele>1018.65</ele>
        <time>2016-02-25T07:46:25Z</time>
      </trkpt>
      <trkpt lat="44.72598" lon="3.27922">
        <ele>1018.65</ele>
        <time>2016-02-25T07:46:26Z</time>
      </trkpt>
      <trkpt lat="44.72602" lon="3.27918">
        <ele>1018.65</ele>
        <time>2016-02-25T07:46:27Z</time>
      </trkpt>
      <trkpt lat="44.72605" lon="3.27914">
        <ele>1018.65</ele>
        <time>2016-02-25T07:46:28Z</time>
      </trkpt>
      <trkpt lat="44.72607" lon="3.2791">
        <ele>1018.17</ele>
        <time>2016-02-25T07:46:29Z</time>
      </trkpt>
      <trkpt lat="44.72628" lon="3.27867">
        <ele>1016.25</ele>
        <time>2016-02-25T07:46:36Z</time>
      </trkpt>
      <trkpt lat="44.72629" lon="3.27859">
        <ele>1015.77</ele>
        <time>2016-02-25T07:46:37Z</time>
      </trkpt>
      <trkpt lat="44.72629" lon="3.2785">
        <ele>1015.77</ele>
        <time>2016-02-25T07:46:38Z</time>
      </trkpt>
      <trkpt lat="44.72622" lon="3.27809">
        <ele>1019.62</ele>
        <time>2016-02-25T07:46:44Z</time>
      </trkpt>
      <trkpt lat="44.72621" lon="3.27799">
        <ele>1020.1</ele>
        <time>2016-02-25T07:46:46Z</time>
      </trkpt>
      <trkpt lat="44.72614" lon="3.27762">
        <ele>1023.46</ele>
        <time>2016-02-25T07:46:56Z</time>
      </trkpt>
      <trkpt lat="44.72601" lon="3.27732">
        <ele>1026.83</ele>
        <time>2016-02-25T07:47:08Z</time>
      </trkpt>
      <trkpt lat="44.72579" lon="3.27694">
        <ele>1028.75</ele>
        <time>2016-02-25T07:47:24Z</time>
      </trkpt>
      <trkpt lat="44.72564" lon="3.27662">
        <ele>1030.67</ele>
        <time>2016-02-25T07:47:38Z</time>
      </trkpt>
      <trkpt lat="44.72554" lon="3.27645">
        <ele>1032.11</ele>
        <time>2016-02-25T07:47:47Z</time>
      </trkpt>
      <trkpt lat="44.72553" lon="3.27645">
        <ele>1032.11</ele>
        <time>2016-02-25T07:47:48Z</time>
      </trkpt>
      <trkpt lat="44.72551" lon="3.27643">
        <ele>1032.11</ele>
        <time>2016-02-25T07:47:49Z</time>
      </trkpt>
      <trkpt lat="44.72551" lon="3.27642">
        <ele>1032.11</ele>
        <time>2016-02-25T07:47:50Z</time>
      </trkpt>
      <trkpt lat="44.72549" lon="3.2764">
        <ele>1032.59</ele>
        <time>2016-02-25T07:47:52Z</time>
      </trkpt>
      <trkpt lat="44.72548" lon="3.27639">
        <ele>1032.59</ele>
        <time>2016-02-25T07:47:53Z</time>
      </trkpt>
      <trkpt lat="44.72548" lon="3.27638">
        <ele>1033.07</ele>
        <time>2016-02-25T07:47:54Z</time>
      </trkpt>
      <trkpt lat="44.72547" lon="3.27636">
        <ele>1033.07</ele>
        <time>2016-02-25T07:47:55Z</time>
      </trkpt>
      <trkpt lat="44.72546" lon="3.27635">
        <ele>1033.07</ele>
        <time>2016-02-25T07:47:56Z</time>
      </trkpt>
      <trkpt lat="44.72545" lon="3.27633">
        <ele>1033.07</ele>
        <time>2016-02-25T07:47:57Z</time>
      </trkpt>
      <trkpt lat="44.72544" lon="3.27631">
        <ele>1033.55</ele>
        <time>2016-02-25T07:47:58Z</time>
      </trkpt>
      <trkpt lat="44.72539" lon="3.27621">
        <ele>1035</ele>
        <time>2016-02-25T07:48:04Z</time>
      </trkpt>
      <trkpt lat="44.72539" lon="3.27619">
        <ele>1035.48</ele>
        <time>2016-02-25T07:48:05Z</time>
      </trkpt>
      <trkpt lat="44.72538" lon="3.27617">
        <ele>1035.48</ele>
        <time>2016-02-25T07:48:06Z</time>
      </trkpt>
      <trkpt lat="44.72533" lon="3.27608">
        <ele>1037.4</ele>
        <time>2016-02-25T07:48:12Z</time>
      </trkpt>
      <trkpt lat="44.72532" lon="3.27607">
        <ele>1037.4</ele>
        <time>2016-02-25T07:48:13Z</time>
      </trkpt>
      <trkpt lat="44.72525" lon="3.27598">
        <ele>1039.32</ele>
        <time>2016-02-25T07:48:20Z</time>
      </trkpt>
      <trkpt lat="44.72525" lon="3.27596">
        <ele>1039.8</ele>
        <time>2016-02-25T07:48:21Z</time>
      </trkpt>
      <trkpt lat="44.72523" lon="3.27595">
        <ele>1039.8</ele>
        <time>2016-02-25T07:48:22Z</time>
      </trkpt>
      <trkpt lat="44.72508" lon="3.27581">
        <ele>1042.69</ele>
        <time>2016-02-25T07:48:35Z</time>
      </trkpt>
      <trkpt lat="44.72498" lon="3.27571">
        <ele>1044.13</ele>
        <time>2016-02-25T07:48:47Z</time>
      </trkpt>
      <trkpt lat="44.72498" lon="3.27571">
        <ele>1044.13</ele>
        <time>2016-02-25T07:49:08Z</time>
      </trkpt>
      <trkpt lat="44.725" lon="3.27573">
        <ele>1044.13</ele>
        <time>2016-02-25T07:49:13Z</time>
      </trkpt>
      <trkpt lat="44.72503" lon="3.27574">
        <ele>1044.13</ele>
        <time>2016-02-25T07:49:14Z</time>
      </trkpt>
      <trkpt lat="44.72505" lon="3.27576">
        <ele>1043.65</ele>
        <time>2016-02-25T07:49:15Z</time>
      </trkpt>
      <trkpt lat="44.72508" lon="3.27578">
        <ele>1043.17</ele>
        <time>2016-02-25T07:49:16Z</time>
      </trkpt>
      <trkpt lat="44.72511" lon="3.2758">
        <ele>1043.17</ele>
        <time>2016-02-25T07:49:17Z</time>
      </trkpt>
      <trkpt lat="44.72515" lon="3.27583">
        <ele>1042.69</ele>
        <time>2016-02-25T07:49:18Z</time>
      </trkpt>
      <trkpt lat="44.72528" lon="3.27595">
        <ele>1039.32</ele>
        <time>2016-02-25T07:49:21Z</time>
      </trkpt>
      <trkpt lat="44.72538" lon="3.27608">
        <ele>1036.44</ele>
        <time>2016-02-25T07:49:23Z</time>
      </trkpt>
      <trkpt lat="44.72543" lon="3.27616">
        <ele>1034.04</ele>
        <time>2016-02-25T07:49:24Z</time>
      </trkpt>
      <trkpt lat="44.72549" lon="3.27626">
        <ele>1032.11</ele>
        <time>2016-02-25T07:49:25Z</time>
      </trkpt>
      <trkpt lat="44.72555" lon="3.27638">
        <ele>1029.71</ele>
        <time>2016-02-25T07:49:26Z</time>
      </trkpt>
      <trkpt lat="44.72561" lon="3.27649">
        <ele>1028.27</ele>
        <time>2016-02-25T07:49:27Z</time>
      </trkpt>
      <trkpt lat="44.72577" lon="3.27682">
        <ele>1026.34</ele>
        <time>2016-02-25T07:49:30Z</time>
      </trkpt>
      <trkpt lat="44.72599" lon="3.27725">
        <ele>1023.94</ele>
        <time>2016-02-25T07:49:34Z</time>
      </trkpt>
      <trkpt lat="44.72604" lon="3.27734">
        <ele>1023.46</ele>
        <time>2016-02-25T07:49:35Z</time>
      </trkpt>
      <trkpt lat="44.72609" lon="3.27745">
        <ele>1022.98</ele>
        <time>2016-02-25T07:49:36Z</time>
      </trkpt>
      <trkpt lat="44.72613" lon="3.27757">
        <ele>1022.02</ele>
        <time>2016-02-25T07:49:37Z</time>
      </trkpt>
      <trkpt lat="44.72617" lon="3.2777">
        <ele>1020.1</ele>
        <time>2016-02-25T07:49:38Z</time>
      </trkpt>
      <trkpt lat="44.7262" lon="3.27783">
        <ele>1019.13</ele>
        <time>2016-02-25T07:49:39Z</time>
      </trkpt>
      <trkpt lat="44.72622" lon="3.27796">
        <ele>1017.69</ele>
        <time>2016-02-25T07:49:40Z</time>
      </trkpt>
      <trkpt lat="44.7263" lon="3.27866">
        <ele>1016.25</ele>
        <time>2016-02-25T07:49:48Z</time>
      </trkpt>
      <trkpt lat="44.72629" lon="3.27884">
        <ele>1016.73</ele>
        <time>2016-02-25T07:49:53Z</time>
      </trkpt>
      <trkpt lat="44.7263" lon="3.27886">
        <ele>1017.21</ele>
        <time>2016-02-25T07:49:54Z</time>
      </trkpt>
      <trkpt lat="44.72631" lon="3.27887">
        <ele>1017.21</ele>
        <time>2016-02-25T07:49:55Z</time>
      </trkpt>
      <trkpt lat="44.72632" lon="3.27889">
        <ele>1017.21</ele>
        <time>2016-02-25T07:49:56Z</time>
      </trkpt>
      <trkpt lat="44.72633" lon="3.27891">
        <ele>1017.21</ele>
        <time>2016-02-25T07:49:57Z</time>
      </trkpt>
      <trkpt lat="44.72634" lon="3.27892">
        <ele>1017.21</ele>
        <time>2016-02-25T07:49:58Z</time>
      </trkpt>
      <trkpt lat="44.72635" lon="3.27892">
        <ele>1017.69</ele>
        <time>2016-02-25T07:49:59Z</time>
      </trkpt>
      <trkpt lat="44.72636" lon="3.27893">
        <ele>1017.69</ele>
        <time>2016-02-25T07:50:00Z</time>
      </trkpt>
      <trkpt lat="44.72637" lon="3.27894">
        <ele>1017.69</ele>
        <time>2016-02-25T07:50:01Z</time>
      </trkpt>
      <trkpt lat="44.72638" lon="3.27895">
        <ele>1017.69</ele>
        <time>2016-02-25T07:50:02Z</time>
      </trkpt>
      <trkpt lat="44.72638" lon="3.27895">
        <ele>1017.69</ele>
        <time>2016-02-25T07:50:14Z</time>
      </trkpt>
      <trkpt lat="44.72641" lon="3.27896">
        <ele>1017.69</ele>
        <time>2016-02-25T07:50:25Z</time>
      </trkpt>
      <trkpt lat="44.72642" lon="3.27897">
        <ele>1017.69</ele>
        <time>2016-02-25T07:50:26Z</time>
      </trkpt>
      <trkpt lat="44.72643" lon="3.27899">
        <ele>1017.69</ele>
        <time>2016-02-25T07:50:27Z</time>
      </trkpt>
      <trkpt lat="44.72644" lon="3.279">
        <ele>1017.69</ele>
        <time>2016-02-25T07:50:28Z</time>
      </trkpt>
      <trkpt lat="44.72645" lon="3.27902">
        <ele>1017.69</ele>
        <time>2016-02-25T07:50:29Z</time>
      </trkpt>
      <trkpt lat="44.72645" lon="3.27904">
        <ele>1017.69</ele>
        <time>2016-02-25T07:50:30Z</time>
      </trkpt>
      <trkpt lat="44.72646" lon="3.27906">
        <ele>1017.69</ele>
        <time>2016-02-25T07:50:31Z</time>
      </trkpt>
      <trkpt lat="44.72648" lon="3.27908">
        <ele>1017.69</ele>
        <time>2016-02-25T07:50:32Z</time>
      </trkpt>
      <trkpt lat="44.72649" lon="3.27909">
        <ele>1017.69</ele>
        <time>2016-02-25T07:50:33Z</time>
      </trkpt>
      <trkpt lat="44.7265" lon="3.2791">
        <ele>1017.69</ele>
        <time>2016-02-25T07:50:34Z</time>
      </trkpt>
      <trkpt lat="44.72651" lon="3.2791">
        <ele>1017.69</ele>
        <time>2016-02-25T07:50:35Z</time>
      </trkpt>
      <trkpt lat="44.72653" lon="3.27911">
        <ele>1017.69</ele>
        <time>2016-02-25T07:50:36Z</time>
      </trkpt>
      <trkpt lat="44.72654" lon="3.27912">
        <ele>1018.17</ele>
        <time>2016-02-25T07:50:37Z</time>
      </trkpt>
      <trkpt lat="44.72658" lon="3.27916">
        <ele>1018.17</ele>
        <time>2016-02-25T07:50:40Z</time>
      </trkpt>
      <trkpt lat="44.72658" lon="3.27918">
        <ele>1018.17</ele>
        <time>2016-02-25T07:50:41Z</time>
      </trkpt>
      <trkpt lat="44.72659" lon="3.2792">
        <ele>1018.17</ele>
        <time>2016-02-25T07:50:42Z</time>
      </trkpt>
      <trkpt lat="44.7266" lon="3.27921">
        <ele>1018.17</ele>
        <time>2016-02-25T07:50:43Z</time>
      </trkpt>
      <trkpt lat="44.72661" lon="3.27922">
        <ele>1018.65</ele>
        <time>2016-02-25T07:50:44Z</time>
      </trkpt>
      <trkpt lat="44.72667" lon="3.2793">
        <ele>1018.65</ele>
        <time>2016-02-25T07:50:50Z</time>
      </trkpt>
      <trkpt lat="44.72668" lon="3.27929">
        <ele>1018.65</ele>
        <time>2016-02-25T07:50:51Z</time>
      </trkpt>
      <trkpt lat="44.72668" lon="3.27927">
        <ele>1019.13</ele>
        <time>2016-02-25T07:50:55Z</time>
      </trkpt>
      <trkpt lat="44.72666" lon="3.27926">
        <ele>1018.65</ele>
        <time>2016-02-25T07:50:56Z</time>
      </trkpt>
      <trkpt lat="44.72665" lon="3.27925">
        <ele>1018.65</ele>
        <time>2016-02-25T07:50:57Z</time>
      </trkpt>
      <trkpt lat="44.72661" lon="3.27923">
        <ele>1018.17</ele>
        <time>2016-02-25T07:50:59Z</time>
      </trkpt>
      <trkpt lat="44.7266" lon="3.27921">
        <ele>1018.17</ele>
        <time>2016-02-25T07:51:00Z</time>
      </trkpt>
      <trkpt lat="44.72658" lon="3.27919">
        <ele>1018.17</ele>
        <time>2016-02-25T07:51:01Z</time>
      </trkpt>
      <trkpt lat="44.72629" lon="3.27881">
        <ele>1017.21</ele>
        <time>2016-02-25T07:51:20Z</time>
      </trkpt>
      <trkpt lat="44.72629" lon="3.27879">
        <ele>1015.29</ele>
        <time>2016-02-25T07:51:32Z</time>
      </trkpt>
      <trkpt lat="44.72629" lon="3.27879">
        <ele>1016.73</ele>
        <time>2016-02-25T07:51:36Z</time>
      </trkpt>
      <trkpt lat="44.72629" lon="3.27879">
        <ele>1017.21</ele>
        <time>2016-02-25T07:52:04Z</time>
      </trkpt>
      <trkpt lat="44.72629" lon="3.27879">
        <ele>1017.21</ele>
        <time>2016-02-25T07:52:31Z</time>
      </trkpt>
      <trkpt lat="44.7263" lon="3.27872">
        <ele>1016.25</ele>
        <time>2016-02-25T07:52:51Z</time>
      </trkpt>
      <trkpt lat="44.72664" lon="3.27831">
        <ele>1013.85</ele>
        <time>2016-02-25T07:53:05Z</time>
      </trkpt>
      <trkpt lat="44.72714" lon="3.27755">
        <ele>1011.44</ele>
        <time>2016-02-25T07:53:18Z</time>
      </trkpt>
      <trkpt lat="44.72746" lon="3.27639">
        <ele>1010.96</ele>
        <time>2016-02-25T07:53:33Z</time>
      </trkpt>
      <trkpt lat="44.72755" lon="3.27606">
        <ele>1011.93</ele>
        <time>2016-02-25T07:53:38Z</time>
      </trkpt>
      <trkpt lat="44.7276" lon="3.27595">
        <ele>1011.93</ele>
        <time>2016-02-25T07:53:40Z</time>
      </trkpt>
      <trkpt lat="44.72763" lon="3.2759">
        <ele>1011.93</ele>
        <time>2016-02-25T07:53:41Z</time>
      </trkpt>
      <trkpt lat="44.72767" lon="3.27585">
        <ele>1011.93</ele>
        <time>2016-02-25T07:53:42Z</time>
      </trkpt>
      <trkpt lat="44.72771" lon="3.27582">
        <ele>1011.93</ele>
        <time>2016-02-25T07:53:43Z</time>
      </trkpt>
      <trkpt lat="44.72775" lon="3.27581">
        <ele>1011.93</ele>
        <time>2016-02-25T07:53:44Z</time>
      </trkpt>
      <trkpt lat="44.7278" lon="3.27582">
        <ele>1011.93</ele>
        <time>2016-02-25T07:53:45Z</time>
      </trkpt>
      <trkpt lat="44.72785" lon="3.27583">
        <ele>1011.93</ele>
        <time>2016-02-25T07:53:46Z</time>
      </trkpt>
      <trkpt lat="44.72789" lon="3.27585">
        <ele>1011.93</ele>
        <time>2016-02-25T07:53:47Z</time>
      </trkpt>
      <trkpt lat="44.72859" lon="3.27613">
        <ele>1010.96</ele>
        <time>2016-02-25T07:54:02Z</time>
      </trkpt>
      <trkpt lat="44.72878" lon="3.27623">
        <ele>1010.96</ele>
        <time>2016-02-25T07:54:06Z</time>
      </trkpt>
      <trkpt lat="44.72932" lon="3.27645">
        <ele>1012.89</ele>
        <time>2016-02-25T07:54:21Z</time>
      </trkpt>
      <trkpt lat="44.72958" lon="3.27655">
        <ele>1009.04</ele>
        <time>2016-02-25T07:54:26Z</time>
      </trkpt>
      <trkpt lat="44.72974" lon="3.27663">
        <ele>1005.2</ele>
        <time>2016-02-25T07:54:28Z</time>
      </trkpt>
      <trkpt lat="44.72995" lon="3.2767">
        <ele>999.91</ele>
        <time>2016-02-25T07:54:30Z</time>
      </trkpt>
      <trkpt lat="44.73007" lon="3.27671">
        <ele>997.51</ele>
        <time>2016-02-25T07:54:31Z</time>
      </trkpt>
      <trkpt lat="44.73018" lon="3.27671">
        <ele>997.02</ele>
        <time>2016-02-25T07:54:32Z</time>
      </trkpt>
      <trkpt lat="44.73029" lon="3.2767">
        <ele>997.02</ele>
        <time>2016-02-25T07:54:33Z</time>
      </trkpt>
      <trkpt lat="44.73039" lon="3.27671">
        <ele>997.02</ele>
        <time>2016-02-25T07:54:34Z</time>
      </trkpt>
      <trkpt lat="44.73048" lon="3.27673">
        <ele>997.02</ele>
        <time>2016-02-25T07:54:35Z</time>
      </trkpt>
      <trkpt lat="44.73056" lon="3.27677">
        <ele>998.47</ele>
        <time>2016-02-25T07:54:36Z</time>
      </trkpt>
      <trkpt lat="44.73063" lon="3.27681">
        <ele>999.43</ele>
        <time>2016-02-25T07:54:37Z</time>
      </trkpt>
      <trkpt lat="44.73069" lon="3.27685">
        <ele>999.91</ele>
        <time>2016-02-25T07:54:38Z</time>
      </trkpt>
      <trkpt lat="44.73075" lon="3.27689">
        <ele>1000.39</ele>
        <time>2016-02-25T07:54:39Z</time>
      </trkpt>
      <trkpt lat="44.73092" lon="3.27704">
        <ele>1001.35</ele>
        <time>2016-02-25T07:54:43Z</time>
      </trkpt>
      <trkpt lat="44.73096" lon="3.27706">
        <ele>1002.31</ele>
        <time>2016-02-25T07:54:44Z</time>
      </trkpt>
      <trkpt lat="44.73101" lon="3.27708">
        <ele>1001.83</ele>
        <time>2016-02-25T07:54:45Z</time>
      </trkpt>
      <trkpt lat="44.73105" lon="3.27709">
        <ele>1002.31</ele>
        <time>2016-02-25T07:54:46Z</time>
      </trkpt>
      <trkpt lat="44.73109" lon="3.27709">
        <ele>1002.79</ele>
        <time>2016-02-25T07:54:47Z</time>
      </trkpt>
      <trkpt lat="44.73113" lon="3.27707">
        <ele>1002.79</ele>
        <time>2016-02-25T07:54:48Z</time>
      </trkpt>
      <trkpt lat="44.73116" lon="3.27706">
        <ele>1003.27</ele>
        <time>2016-02-25T07:54:49Z</time>
      </trkpt>
      <trkpt lat="44.7312" lon="3.27704">
        <ele>1003.27</ele>
        <time>2016-02-25T07:54:50Z</time>
      </trkpt>
      <trkpt lat="44.7315" lon="3.27685">
        <ele>1005.68</ele>
        <time>2016-02-25T07:55:00Z</time>
      </trkpt>
      <trkpt lat="44.73176" lon="3.2768">
        <ele>1008.56</ele>
        <time>2016-02-25T07:55:11Z</time>
      </trkpt>
      <trkpt lat="44.73195" lon="3.27681">
        <ele>1011.44</ele>
        <time>2016-02-25T07:55:21Z</time>
      </trkpt>
      <trkpt lat="44.73218" lon="3.27686">
        <ele>1014.33</ele>
        <time>2016-02-25T07:55:33Z</time>
      </trkpt>
      <trkpt lat="44.73242" lon="3.27697">
        <ele>1016.73</ele>
        <time>2016-02-25T07:55:48Z</time>
      </trkpt>
      <trkpt lat="44.73269" lon="3.27709">
        <ele>1019.13</ele>
        <time>2016-02-25T07:56:03Z</time>
      </trkpt>
      <trkpt lat="44.733" lon="3.27714">
        <ele>1020.58</ele>
        <time>2016-02-25T07:56:18Z</time>
      </trkpt>
      <trkpt lat="44.73335" lon="3.2771">
        <ele>1021.54</ele>
        <time>2016-02-25T07:56:33Z</time>
      </trkpt>
      <trkpt lat="44.73379" lon="3.27686">
        <ele>1022.02</ele>
        <time>2016-02-25T07:56:49Z</time>
      </trkpt>
      <trkpt lat="44.73406" lon="3.27664">
        <ele>1022.5</ele>
        <time>2016-02-25T07:57:00Z</time>
      </trkpt>
      <trkpt lat="44.73434" lon="3.27622">
        <ele>1023.46</ele>
        <time>2016-02-25T07:57:15Z</time>
      </trkpt>
      <trkpt lat="44.73448" lon="3.27561">
        <ele>1022.5</ele>
        <time>2016-02-25T07:57:30Z</time>
      </trkpt>
      <trkpt lat="44.73449" lon="3.27547">
        <ele>1022.02</ele>
        <time>2016-02-25T07:57:32Z</time>
      </trkpt>
      <trkpt lat="44.73458" lon="3.27497">
        <ele>1019.13</ele>
        <time>2016-02-25T07:57:38Z</time>
      </trkpt>
      <trkpt lat="44.73461" lon="3.27489">
        <ele>1018.65</ele>
        <time>2016-02-25T07:57:39Z</time>
      </trkpt>
      <trkpt lat="44.73465" lon="3.27481">
        <ele>1018.17</ele>
        <time>2016-02-25T07:57:40Z</time>
      </trkpt>
      <trkpt lat="44.7347" lon="3.27473">
        <ele>1017.69</ele>
        <time>2016-02-25T07:57:41Z</time>
      </trkpt>
      <trkpt lat="44.73475" lon="3.27466">
        <ele>1017.21</ele>
        <time>2016-02-25T07:57:42Z</time>
      </trkpt>
      <trkpt lat="44.73481" lon="3.27459">
        <ele>1016.73</ele>
        <time>2016-02-25T07:57:43Z</time>
      </trkpt>
      <trkpt lat="44.73487" lon="3.27454">
        <ele>1016.25</ele>
        <time>2016-02-25T07:57:44Z</time>
      </trkpt>
      <trkpt lat="44.73494" lon="3.2745">
        <ele>1015.77</ele>
        <time>2016-02-25T07:57:45Z</time>
      </trkpt>
      <trkpt lat="44.73501" lon="3.27446">
        <ele>1015.77</ele>
        <time>2016-02-25T07:57:46Z</time>
      </trkpt>
      <trkpt lat="44.73576" lon="3.27422">
        <ele>1015.29</ele>
        <time>2016-02-25T07:57:58Z</time>
      </trkpt>
      <trkpt lat="44.73669" lon="3.27415">
        <ele>1012.41</ele>
        <time>2016-02-25T07:58:13Z</time>
      </trkpt>
      <trkpt lat="44.73687" lon="3.27415">
        <ele>1012.89</ele>
        <time>2016-02-25T07:58:16Z</time>
      </trkpt>
      <trkpt lat="44.7377" lon="3.27394">
        <ele>1010.96</ele>
        <time>2016-02-25T07:58:31Z</time>
      </trkpt>
      <trkpt lat="44.73776" lon="3.27391">
        <ele>1010</ele>
        <time>2016-02-25T07:58:32Z</time>
      </trkpt>
      <trkpt lat="44.738" lon="3.27382">
        <ele>1006.64</ele>
        <time>2016-02-25T07:58:35Z</time>
      </trkpt>
      <trkpt lat="44.73809" lon="3.27379">
        <ele>1004.72</ele>
        <time>2016-02-25T07:58:36Z</time>
      </trkpt>
      <trkpt lat="44.73828" lon="3.27369">
        <ele>1001.35</ele>
        <time>2016-02-25T07:58:38Z</time>
      </trkpt>
      <trkpt lat="44.73837" lon="3.27363">
        <ele>1000.39</ele>
        <time>2016-02-25T07:58:39Z</time>
      </trkpt>
      <trkpt lat="44.73846" lon="3.27356">
        <ele>998.95</ele>
        <time>2016-02-25T07:58:40Z</time>
      </trkpt>
      <trkpt lat="44.73863" lon="3.2734">
        <ele>995.58</ele>
        <time>2016-02-25T07:58:42Z</time>
      </trkpt>
      <trkpt lat="44.73873" lon="3.27332">
        <ele>995.58</ele>
        <time>2016-02-25T07:58:43Z</time>
      </trkpt>
      <trkpt lat="44.73883" lon="3.27326">
        <ele>991.74</ele>
        <time>2016-02-25T07:58:44Z</time>
      </trkpt>
      <trkpt lat="44.73893" lon="3.27321">
        <ele>990.78</ele>
        <time>2016-02-25T07:58:45Z</time>
      </trkpt>
      <trkpt lat="44.73903" lon="3.27317">
        <ele>990.3</ele>
        <time>2016-02-25T07:58:46Z</time>
      </trkpt>
      <trkpt lat="44.73947" lon="3.27306">
        <ele>993.66</ele>
        <time>2016-02-25T07:58:51Z</time>
      </trkpt>
      <trkpt lat="44.73971" lon="3.27293">
        <ele>997.02</ele>
        <time>2016-02-25T07:58:55Z</time>
      </trkpt>
      <trkpt lat="44.73979" lon="3.27285">
        <ele>998.47</ele>
        <time>2016-02-25T07:58:57Z</time>
      </trkpt>
      <trkpt lat="44.73982" lon="3.27282">
        <ele>999.43</ele>
        <time>2016-02-25T07:58:58Z</time>
      </trkpt>
      <trkpt lat="44.73984" lon="3.27278">
        <ele>999.91</ele>
        <time>2016-02-25T07:58:59Z</time>
      </trkpt>
      <trkpt lat="44.73986" lon="3.27274">
        <ele>1000.87</ele>
        <time>2016-02-25T07:59:00Z</time>
      </trkpt>
      <trkpt lat="44.73988" lon="3.2727">
        <ele>1000.87</ele>
        <time>2016-02-25T07:59:01Z</time>
      </trkpt>
      <trkpt lat="44.73989" lon="3.27266">
        <ele>1001.35</ele>
        <time>2016-02-25T07:59:02Z</time>
      </trkpt>
      <trkpt lat="44.74002" lon="3.27231">
        <ele>1004.23</ele>
        <time>2016-02-25T07:59:12Z</time>
      </trkpt>
      <trkpt lat="44.74015" lon="3.27195">
        <ele>1007.12</ele>
        <time>2016-02-25T07:59:24Z</time>
      </trkpt>
      <trkpt lat="44.74024" lon="3.27153">
        <ele>1010.48</ele>
        <time>2016-02-25T07:59:37Z</time>
      </trkpt>
      <trkpt lat="44.74037" lon="3.27116">
        <ele>1012.41</ele>
        <time>2016-02-25T07:59:50Z</time>
      </trkpt>
      <trkpt lat="44.74051" lon="3.27077">
        <ele>1014.81</ele>
        <time>2016-02-25T08:00:06Z</time>
      </trkpt>
      <trkpt lat="44.74061" lon="3.27033">
        <ele>1017.69</ele>
        <time>2016-02-25T08:00:22Z</time>
      </trkpt>
      <trkpt lat="44.74064" lon="3.26983">
        <ele>1020.1</ele>
        <time>2016-02-25T08:00:38Z</time>
      </trkpt>
      <trkpt lat="44.74068" lon="3.26944">
        <ele>1022.5</ele>
        <time>2016-02-25T08:00:52Z</time>
      </trkpt>
      <trkpt lat="44.74087" lon="3.26917">
        <ele>1024.42</ele>
        <time>2016-02-25T08:01:05Z</time>
      </trkpt>
      <trkpt lat="44.74113" lon="3.26878">
        <ele>1025.38</ele>
        <time>2016-02-25T08:01:21Z</time>
      </trkpt>
      <trkpt lat="44.74139" lon="3.26839">
        <ele>1027.31</ele>
        <time>2016-02-25T08:01:36Z</time>
      </trkpt>
      <trkpt lat="44.74163" lon="3.26789">
        <ele>1027.79</ele>
        <time>2016-02-25T08:01:51Z</time>
      </trkpt>
      <trkpt lat="44.74192" lon="3.26776">
        <ele>1029.71</ele>
        <time>2016-02-25T08:02:02Z</time>
      </trkpt>
      <trkpt lat="44.74229" lon="3.26742">
        <ele>1030.19</ele>
        <time>2016-02-25T08:02:17Z</time>
      </trkpt>
      <trkpt lat="44.74246" lon="3.26703">
        <ele>1031.63</ele>
        <time>2016-02-25T08:02:29Z</time>
      </trkpt>
      <trkpt lat="44.74257" lon="3.26689">
        <ele>1033.55</ele>
        <time>2016-02-25T08:02:36Z</time>
      </trkpt>
      <trkpt lat="44.74256" lon="3.26687">
        <ele>1034.04</ele>
        <time>2016-02-25T08:02:37Z</time>
      </trkpt>
      <trkpt lat="44.74255" lon="3.26684">
        <ele>1034.04</ele>
        <time>2016-02-25T08:02:38Z</time>
      </trkpt>
      <trkpt lat="44.74253" lon="3.26682">
        <ele>1034.04</ele>
        <time>2016-02-25T08:02:39Z</time>
      </trkpt>
      <trkpt lat="44.74251" lon="3.2668">
        <ele>1034.52</ele>
        <time>2016-02-25T08:02:40Z</time>
      </trkpt>
      <trkpt lat="44.74222" lon="3.26646">
        <ele>1035.48</ele>
        <time>2016-02-25T08:02:57Z</time>
      </trkpt>
      <trkpt lat="44.74196" lon="3.26603">
        <ele>1036.92</ele>
        <time>2016-02-25T08:03:12Z</time>
      </trkpt>
      <trkpt lat="44.7418" lon="3.2654">
        <ele>1035.96</ele>
        <time>2016-02-25T08:03:26Z</time>
      </trkpt>
      <trkpt lat="44.74159" lon="3.26456">
        <ele>1036.44</ele>
        <time>2016-02-25T08:03:42Z</time>
      </trkpt>
      <trkpt lat="44.7414" lon="3.26372">
        <ele>1035.96</ele>
        <time>2016-02-25T08:03:57Z</time>
      </trkpt>
      <trkpt lat="44.74122" lon="3.26269">
        <ele>1036.92</ele>
        <time>2016-02-25T08:04:14Z</time>
      </trkpt>
      <trkpt lat="44.7413" lon="3.26195">
        <ele>1039.32</ele>
        <time>2016-02-25T08:04:29Z</time>
      </trkpt>
      <trkpt lat="44.74128" lon="3.2612">
        <ele>1041.25</ele>
        <time>2016-02-25T08:04:44Z</time>
      </trkpt>
      <trkpt lat="44.74126" lon="3.26103">
        <ele>1040.76</ele>
        <time>2016-02-25T08:04:47Z</time>
      </trkpt>
      <trkpt lat="44.74119" lon="3.26076">
        <ele>1039.8</ele>
        <time>2016-02-25T08:04:52Z</time>
      </trkpt>
      <trkpt lat="44.74119" lon="3.26069">
        <ele>1039.32</ele>
        <time>2016-02-25T08:04:53Z</time>
      </trkpt>
      <trkpt lat="44.7412" lon="3.26063">
        <ele>1039.8</ele>
        <time>2016-02-25T08:04:54Z</time>
      </trkpt>
      <trkpt lat="44.74121" lon="3.26058">
        <ele>1040.28</ele>
        <time>2016-02-25T08:04:55Z</time>
      </trkpt>
      <trkpt lat="44.74121" lon="3.26053">
        <ele>1040.76</ele>
        <time>2016-02-25T08:04:56Z</time>
      </trkpt>
      <trkpt lat="44.74123" lon="3.26012">
        <ele>1043.65</ele>
        <time>2016-02-25T08:05:06Z</time>
      </trkpt>
      <trkpt lat="44.74129" lon="3.25956">
        <ele>1046.05</ele>
        <time>2016-02-25T08:05:21Z</time>
      </trkpt>
      <trkpt lat="44.74131" lon="3.25916">
        <ele>1048.94</ele>
        <time>2016-02-25T08:05:34Z</time>
      </trkpt>
      <trkpt lat="44.74121" lon="3.25873">
        <ele>1049.9</ele>
        <time>2016-02-25T08:05:47Z</time>
      </trkpt>
      <trkpt lat="44.74127" lon="3.25833">
        <ele>1050.38</ele>
        <time>2016-02-25T08:05:58Z</time>
      </trkpt>
      <trkpt lat="44.74139" lon="3.25788">
        <ele>1053.74</ele>
        <time>2016-02-25T08:06:12Z</time>
      </trkpt>
      <trkpt lat="44.74161" lon="3.25748">
        <ele>1056.63</ele>
        <time>2016-02-25T08:06:28Z</time>
      </trkpt>
      <trkpt lat="44.74183" lon="3.25721">
        <ele>1058.55</ele>
        <time>2016-02-25T08:06:41Z</time>
      </trkpt>
      <trkpt lat="44.74202" lon="3.25697">
        <ele>1060.95</ele>
        <time>2016-02-25T08:06:53Z</time>
      </trkpt>
      <trkpt lat="44.74227" lon="3.25671">
        <ele>1064.32</ele>
        <time>2016-02-25T08:07:07Z</time>
      </trkpt>
      <trkpt lat="44.74253" lon="3.25649">
        <ele>1065.76</ele>
        <time>2016-02-25T08:07:19Z</time>
      </trkpt>
      <trkpt lat="44.74284" lon="3.25635">
        <ele>1067.2</ele>
        <time>2016-02-25T08:07:34Z</time>
      </trkpt>
      <trkpt lat="44.74315" lon="3.25623">
        <ele>1065.28</ele>
        <time>2016-02-25T08:07:45Z</time>
      </trkpt>
      <trkpt lat="44.74336" lon="3.25609">
        <ele>1064.32</ele>
        <time>2016-02-25T08:07:53Z</time>
      </trkpt>
      <trkpt lat="44.74346" lon="3.25592">
        <ele>1060.95</ele>
        <time>2016-02-25T08:07:58Z</time>
      </trkpt>
      <trkpt lat="44.74359" lon="3.2557">
        <ele>1057.59</ele>
        <time>2016-02-25T08:08:01Z</time>
      </trkpt>
      <trkpt lat="44.74362" lon="3.25561">
        <ele>1056.15</ele>
        <time>2016-02-25T08:08:02Z</time>
      </trkpt>
      <trkpt lat="44.74367" lon="3.2554">
        <ele>1054.22</ele>
        <time>2016-02-25T08:08:04Z</time>
      </trkpt>
      <trkpt lat="44.74371" lon="3.25532">
        <ele>1053.26</ele>
        <time>2016-02-25T08:08:05Z</time>
      </trkpt>
      <trkpt lat="44.74376" lon="3.25524">
        <ele>1052.3</ele>
        <time>2016-02-25T08:08:06Z</time>
      </trkpt>
      <trkpt lat="44.74392" lon="3.25506">
        <ele>1049.9</ele>
        <time>2016-02-25T08:08:09Z</time>
      </trkpt>
      <trkpt lat="44.74403" lon="3.25499">
        <ele>1047.97</ele>
        <time>2016-02-25T08:08:11Z</time>
      </trkpt>
      <trkpt lat="44.74408" lon="3.25493">
        <ele>1047.49</ele>
        <time>2016-02-25T08:08:12Z</time>
      </trkpt>
      <trkpt lat="44.74412" lon="3.25486">
        <ele>1046.53</ele>
        <time>2016-02-25T08:08:13Z</time>
      </trkpt>
      <trkpt lat="44.74426" lon="3.25463">
        <ele>1042.69</ele>
        <time>2016-02-25T08:08:16Z</time>
      </trkpt>
      <trkpt lat="44.74431" lon="3.25456">
        <ele>1042.21</ele>
        <time>2016-02-25T08:08:17Z</time>
      </trkpt>
      <trkpt lat="44.74436" lon="3.2545">
        <ele>1042.21</ele>
        <time>2016-02-25T08:08:18Z</time>
      </trkpt>
      <trkpt lat="44.74439" lon="3.25443">
        <ele>1041.73</ele>
        <time>2016-02-25T08:08:19Z</time>
      </trkpt>
      <trkpt lat="44.74441" lon="3.25436">
        <ele>1041.73</ele>
        <time>2016-02-25T08:08:20Z</time>
      </trkpt>
      <trkpt lat="44.74441" lon="3.25429">
        <ele>1041.25</ele>
        <time>2016-02-25T08:08:21Z</time>
      </trkpt>
      <trkpt lat="44.74441" lon="3.25422">
        <ele>1040.76</ele>
        <time>2016-02-25T08:08:22Z</time>
      </trkpt>
      <trkpt lat="44.7444" lon="3.25413">
        <ele>1039.32</ele>
        <time>2016-02-25T08:08:23Z</time>
      </trkpt>
      <trkpt lat="44.74439" lon="3.25405">
        <ele>1038.36</ele>
        <time>2016-02-25T08:08:24Z</time>
      </trkpt>
      <trkpt lat="44.74438" lon="3.25397">
        <ele>1036.92</ele>
        <time>2016-02-25T08:08:25Z</time>
      </trkpt>
      <trkpt lat="44.74436" lon="3.25389">
        <ele>1035.96</ele>
        <time>2016-02-25T08:08:26Z</time>
      </trkpt>
      <trkpt lat="44.74431" lon="3.25384">
        <ele>1035</ele>
        <time>2016-02-25T08:08:27Z</time>
      </trkpt>
      <trkpt lat="44.74426" lon="3.25381">
        <ele>1035</ele>
        <time>2016-02-25T08:08:28Z</time>
      </trkpt>
      <trkpt lat="44.74423" lon="3.25376">
        <ele>1035</ele>
        <time>2016-02-25T08:08:29Z</time>
      </trkpt>
      <trkpt lat="44.74422" lon="3.25371">
        <ele>1035</ele>
        <time>2016-02-25T08:08:30Z</time>
      </trkpt>
      <trkpt lat="44.74424" lon="3.25368">
        <ele>1035</ele>
        <time>2016-02-25T08:08:31Z</time>
      </trkpt>
      <trkpt lat="44.74426" lon="3.25365">
        <ele>1034.52</ele>
        <time>2016-02-25T08:08:32Z</time>
      </trkpt>
      <trkpt lat="44.7443" lon="3.25364">
        <ele>1034.52</ele>
        <time>2016-02-25T08:08:33Z</time>
      </trkpt>
      <trkpt lat="44.74434" lon="3.25365">
        <ele>1034.04</ele>
        <time>2016-02-25T08:08:34Z</time>
      </trkpt>
      <trkpt lat="44.74439" lon="3.25367">
        <ele>1033.55</ele>
        <time>2016-02-25T08:08:35Z</time>
      </trkpt>
      <trkpt lat="44.74444" lon="3.2537">
        <ele>1032.59</ele>
        <time>2016-02-25T08:08:36Z</time>
      </trkpt>
      <trkpt lat="44.74449" lon="3.25373">
        <ele>1032.11</ele>
        <time>2016-02-25T08:08:37Z</time>
      </trkpt>
      <trkpt lat="44.74455" lon="3.25375">
        <ele>1032.11</ele>
        <time>2016-02-25T08:08:38Z</time>
      </trkpt>
      <trkpt lat="44.74461" lon="3.25373">
        <ele>1030.67</ele>
        <time>2016-02-25T08:08:39Z</time>
      </trkpt>
      <trkpt lat="44.74467" lon="3.25368">
        <ele>1029.71</ele>
        <time>2016-02-25T08:08:40Z</time>
      </trkpt>
      <trkpt lat="44.74472" lon="3.25363">
        <ele>1029.23</ele>
        <time>2016-02-25T08:08:41Z</time>
      </trkpt>
      <trkpt lat="44.74477" lon="3.25358">
        <ele>1028.75</ele>
        <time>2016-02-25T08:08:42Z</time>
      </trkpt>
      <trkpt lat="44.74481" lon="3.25353">
        <ele>1028.27</ele>
        <time>2016-02-25T08:08:43Z</time>
      </trkpt>
      <trkpt lat="44.74493" lon="3.2534">
        <ele>1027.79</ele>
        <time>2016-02-25T08:08:46Z</time>
      </trkpt>
      <trkpt lat="44.74498" lon="3.25336">
        <ele>1027.31</ele>
        <time>2016-02-25T08:08:47Z</time>
      </trkpt>
      <trkpt lat="44.74503" lon="3.25332">
        <ele>1027.31</ele>
        <time>2016-02-25T08:08:48Z</time>
      </trkpt>
      <trkpt lat="44.74538" lon="3.25311">
        <ele>1026.34</ele>
        <time>2016-02-25T08:08:55Z</time>
      </trkpt>
      <trkpt lat="44.74542" lon="3.25307">
        <ele>1026.34</ele>
        <time>2016-02-25T08:08:56Z</time>
      </trkpt>
      <trkpt lat="44.74545" lon="3.25303">
        <ele>1026.34</ele>
        <time>2016-02-25T08:08:57Z</time>
      </trkpt>
      <trkpt lat="44.74548" lon="3.25298">
        <ele>1025.86</ele>
        <time>2016-02-25T08:08:58Z</time>
      </trkpt>
      <trkpt lat="44.74552" lon="3.25294">
        <ele>1025.86</ele>
        <time>2016-02-25T08:08:59Z</time>
      </trkpt>
      <trkpt lat="44.74575" lon="3.25259">
        <ele>1025.38</ele>
        <time>2016-02-25T08:09:07Z</time>
      </trkpt>
      <trkpt lat="44.74586" lon="3.25209">
        <ele>1025.38</ele>
        <time>2016-02-25T08:09:16Z</time>
      </trkpt>
      <trkpt lat="44.74588" lon="3.25204">
        <ele>1025.38</ele>
        <time>2016-02-25T08:09:17Z</time>
      </trkpt>
      <trkpt lat="44.7459" lon="3.25199">
        <ele>1025.38</ele>
        <time>2016-02-25T08:09:18Z</time>
      </trkpt>
      <trkpt lat="44.74592" lon="3.25194">
        <ele>1025.38</ele>
        <time>2016-02-25T08:09:19Z</time>
      </trkpt>
      <trkpt lat="44.74595" lon="3.25191">
        <ele>1025.38</ele>
        <time>2016-02-25T08:09:20Z</time>
      </trkpt>
      <trkpt lat="44.74598" lon="3.25188">
        <ele>1025.38</ele>
        <time>2016-02-25T08:09:21Z</time>
      </trkpt>
      <trkpt lat="44.74601" lon="3.25186">
        <ele>1025.38</ele>
        <time>2016-02-25T08:09:22Z</time>
      </trkpt>
      <trkpt lat="44.74628" lon="3.2517">
        <ele>1024.9</ele>
        <time>2016-02-25T08:09:32Z</time>
      </trkpt>
      <trkpt lat="44.74636" lon="3.25169">
        <ele>1024.42</ele>
        <time>2016-02-25T08:09:34Z</time>
      </trkpt>
      <trkpt lat="44.74681" lon="3.25145">
        <ele>1021.06</ele>
        <time>2016-02-25T08:09:43Z</time>
      </trkpt>
      <trkpt lat="44.74746" lon="3.2511">
        <ele>1017.69</ele>
        <time>2016-02-25T08:09:54Z</time>
      </trkpt>
      <trkpt lat="44.74776" lon="3.25097">
        <ele>1014.33</ele>
        <time>2016-02-25T08:09:58Z</time>
      </trkpt>
      <trkpt lat="44.74803" lon="3.25091">
        <ele>1010.96</ele>
        <time>2016-02-25T08:10:01Z</time>
      </trkpt>
      <trkpt lat="44.74814" lon="3.2509">
        <ele>1008.56</ele>
        <time>2016-02-25T08:10:02Z</time>
      </trkpt>
      <trkpt lat="44.74825" lon="3.25091">
        <ele>1006.16</ele>
        <time>2016-02-25T08:10:03Z</time>
      </trkpt>
      <trkpt lat="44.74836" lon="3.25092">
        <ele>1006.16</ele>
        <time>2016-02-25T08:10:04Z</time>
      </trkpt>
      <trkpt lat="44.74846" lon="3.25092">
        <ele>1007.12</ele>
        <time>2016-02-25T08:10:05Z</time>
      </trkpt>
      <trkpt lat="44.74855" lon="3.25092">
        <ele>1008.08</ele>
        <time>2016-02-25T08:10:06Z</time>
      </trkpt>
      <trkpt lat="44.74908" lon="3.25081">
        <ele>1009.52</ele>
        <time>2016-02-25T08:10:13Z</time>
      </trkpt>
      <trkpt lat="44.74921" lon="3.25075">
        <ele>1012.41</ele>
        <time>2016-02-25T08:10:16Z</time>
      </trkpt>
      <trkpt lat="44.74924" lon="3.25073">
        <ele>1012.89</ele>
        <time>2016-02-25T08:10:17Z</time>
      </trkpt>
      <trkpt lat="44.74938" lon="3.25068">
        <ele>1015.77</ele>
        <time>2016-02-25T08:10:23Z</time>
      </trkpt>
      <trkpt lat="44.74958" lon="3.2506">
        <ele>1018.65</ele>
        <time>2016-02-25T08:10:33Z</time>
      </trkpt>
      <trkpt lat="44.7496" lon="3.25059">
        <ele>1018.65</ele>
        <time>2016-02-25T08:10:34Z</time>
      </trkpt>
      <trkpt lat="44.74971" lon="3.25049">
        <ele>1021.06</ele>
        <time>2016-02-25T08:10:44Z</time>
      </trkpt>
      <trkpt lat="44.7497" lon="3.25047">
        <ele>1021.06</ele>
        <time>2016-02-25T08:10:45Z</time>
      </trkpt>
      <trkpt lat="44.74969" lon="3.25047">
        <ele>1021.06</ele>
        <time>2016-02-25T08:10:46Z</time>
      </trkpt>
      <trkpt lat="44.74967" lon="3.25047">
        <ele>1021.54</ele>
        <time>2016-02-25T08:10:47Z</time>
      </trkpt>
      <trkpt lat="44.74966" lon="3.25047">
        <ele>1021.54</ele>
        <time>2016-02-25T08:10:48Z</time>
      </trkpt>
      <trkpt lat="44.74964" lon="3.25047">
        <ele>1021.54</ele>
        <time>2016-02-25T08:10:49Z</time>
      </trkpt>
      <trkpt lat="44.74962" lon="3.25047">
        <ele>1022.02</ele>
        <time>2016-02-25T08:10:50Z</time>
      </trkpt>
      <trkpt lat="44.74923" lon="3.25055">
        <ele>1022.02</ele>
        <time>2016-02-25T08:11:07Z</time>
      </trkpt>
      <trkpt lat="44.74893" lon="3.25049">
        <ele>1023.94</ele>
        <time>2016-02-25T08:11:20Z</time>
      </trkpt>
      <trkpt lat="44.74884" lon="3.25015">
        <ele>1021.54</ele>
        <time>2016-02-25T08:11:31Z</time>
      </trkpt>
      <trkpt lat="44.74881" lon="3.2498">
        <ele>1017.69</ele>
        <time>2016-02-25T08:11:35Z</time>
      </trkpt>
      <trkpt lat="44.74882" lon="3.24961">
        <ele>1016.73</ele>
        <time>2016-02-25T08:11:37Z</time>
      </trkpt>
      <trkpt lat="44.74887" lon="3.24918">
        <ele>1014.81</ele>
        <time>2016-02-25T08:11:41Z</time>
      </trkpt>
      <trkpt lat="44.74893" lon="3.24873">
        <ele>1015.29</ele>
        <time>2016-02-25T08:11:46Z</time>
      </trkpt>
      <trkpt lat="44.74894" lon="3.24866">
        <ele>1015.77</ele>
        <time>2016-02-25T08:11:47Z</time>
      </trkpt>
      <trkpt lat="44.74896" lon="3.2486">
        <ele>1016.25</ele>
        <time>2016-02-25T08:11:48Z</time>
      </trkpt>
      <trkpt lat="44.74896" lon="3.24853">
        <ele>1016.73</ele>
        <time>2016-02-25T08:11:49Z</time>
      </trkpt>
      <trkpt lat="44.74897" lon="3.24846">
        <ele>1016.73</ele>
        <time>2016-02-25T08:11:50Z</time>
      </trkpt>
      <trkpt lat="44.74905" lon="3.24785">
        <ele>1017.69</ele>
        <time>2016-02-25T08:12:00Z</time>
      </trkpt>
      <trkpt lat="44.74911" lon="3.24731">
        <ele>1019.13</ele>
        <time>2016-02-25T08:12:12Z</time>
      </trkpt>
      <trkpt lat="44.74917" lon="3.24713">
        <ele>1020.58</ele>
        <time>2016-02-25T08:12:17Z</time>
      </trkpt>
      <trkpt lat="44.74922" lon="3.24676">
        <ele>1021.06</ele>
        <time>2016-02-25T08:12:27Z</time>
      </trkpt>
      <trkpt lat="44.74928" lon="3.24633">
        <ele>1021.06</ele>
        <time>2016-02-25T08:12:39Z</time>
      </trkpt>
      <trkpt lat="44.74947" lon="3.24594">
        <ele>1022.02</ele>
        <time>2016-02-25T08:12:50Z</time>
      </trkpt>
      <trkpt lat="44.74968" lon="3.24558">
        <ele>1022.98</ele>
        <time>2016-02-25T08:13:01Z</time>
      </trkpt>
      <trkpt lat="44.74988" lon="3.24504">
        <ele>1022.98</ele>
        <time>2016-02-25T08:13:13Z</time>
      </trkpt>
      <trkpt lat="44.75" lon="3.24469">
        <ele>1023.46</ele>
        <time>2016-02-25T08:13:20Z</time>
      </trkpt>
      <trkpt lat="44.75013" lon="3.2444">
        <ele>1023.94</ele>
        <time>2016-02-25T08:13:26Z</time>
      </trkpt>
      <trkpt lat="44.75014" lon="3.24435">
        <ele>1023.46</ele>
        <time>2016-02-25T08:13:27Z</time>
      </trkpt>
      <trkpt lat="44.75016" lon="3.24431">
        <ele>1023.46</ele>
        <time>2016-02-25T08:13:28Z</time>
      </trkpt>
      <trkpt lat="44.75017" lon="3.24427">
        <ele>1023.46</ele>
        <time>2016-02-25T08:13:29Z</time>
      </trkpt>
      <trkpt lat="44.75019" lon="3.24423">
        <ele>1023.94</ele>
        <time>2016-02-25T08:13:30Z</time>
      </trkpt>
      <trkpt lat="44.7502" lon="3.24418">
        <ele>1023.94</ele>
        <time>2016-02-25T08:13:31Z</time>
      </trkpt>
      <trkpt lat="44.75023" lon="3.24357">
        <ele>1025.38</ele>
        <time>2016-02-25T08:13:43Z</time>
      </trkpt>
      <trkpt lat="44.7502" lon="3.2434">
        <ele>1024.9</ele>
        <time>2016-02-25T08:13:46Z</time>
      </trkpt>
      <trkpt lat="44.75019" lon="3.24334">
        <ele>1024.9</ele>
        <time>2016-02-25T08:13:47Z</time>
      </trkpt>
      <trkpt lat="44.74997" lon="3.24255">
        <ele>1026.34</ele>
        <time>2016-02-25T08:14:02Z</time>
      </trkpt>
      <trkpt lat="44.74993" lon="3.24245">
        <ele>1025.86</ele>
        <time>2016-02-25T08:14:04Z</time>
      </trkpt>
      <trkpt lat="44.74988" lon="3.24228">
        <ele>1025.86</ele>
        <time>2016-02-25T08:14:07Z</time>
      </trkpt>
      <trkpt lat="44.74988" lon="3.24222">
        <ele>1025.86</ele>
        <time>2016-02-25T08:14:08Z</time>
      </trkpt>
      <trkpt lat="44.74988" lon="3.2421">
        <ele>1025.86</ele>
        <time>2016-02-25T08:14:10Z</time>
      </trkpt>
      <trkpt lat="44.74989" lon="3.24204">
        <ele>1025.86</ele>
        <time>2016-02-25T08:14:11Z</time>
      </trkpt>
      <trkpt lat="44.74993" lon="3.24147">
        <ele>1027.31</ele>
        <time>2016-02-25T08:14:22Z</time>
      </trkpt>
      <trkpt lat="44.74994" lon="3.2412">
        <ele>1029.71</ele>
        <time>2016-02-25T08:14:29Z</time>
      </trkpt>
      <trkpt lat="44.74985" lon="3.24076">
        <ele>1031.15</ele>
        <time>2016-02-25T08:14:41Z</time>
      </trkpt>
      <trkpt lat="44.74977" lon="3.24036">
        <ele>1033.07</ele>
        <time>2016-02-25T08:14:53Z</time>
      </trkpt>
      <trkpt lat="44.7497" lon="3.23997">
        <ele>1036.44</ele>
        <time>2016-02-25T08:15:06Z</time>
      </trkpt>
      <trkpt lat="44.74949" lon="3.2395">
        <ele>1035.96</ele>
        <time>2016-02-25T08:15:19Z</time>
      </trkpt>
      <trkpt lat="44.74944" lon="3.23941">
        <ele>1035.96</ele>
        <time>2016-02-25T08:15:21Z</time>
      </trkpt>
      <trkpt lat="44.74941" lon="3.23936">
        <ele>1035.96</ele>
        <time>2016-02-25T08:15:22Z</time>
      </trkpt>
      <trkpt lat="44.74939" lon="3.23931">
        <ele>1035.48</ele>
        <time>2016-02-25T08:15:23Z</time>
      </trkpt>
      <trkpt lat="44.74937" lon="3.23927">
        <ele>1035.96</ele>
        <time>2016-02-25T08:15:24Z</time>
      </trkpt>
      <trkpt lat="44.74935" lon="3.23922">
        <ele>1035.96</ele>
        <time>2016-02-25T08:15:25Z</time>
      </trkpt>
      <trkpt lat="44.74933" lon="3.23917">
        <ele>1035.96</ele>
        <time>2016-02-25T08:15:26Z</time>
      </trkpt>
      <trkpt lat="44.74924" lon="3.23897">
        <ele>1035</ele>
        <time>2016-02-25T08:15:30Z</time>
      </trkpt>
      <trkpt lat="44.74922" lon="3.23891">
        <ele>1034.52</ele>
        <time>2016-02-25T08:15:31Z</time>
      </trkpt>
      <trkpt lat="44.74921" lon="3.23884">
        <ele>1034.04</ele>
        <time>2016-02-25T08:15:32Z</time>
      </trkpt>
      <trkpt lat="44.7492" lon="3.23878">
        <ele>1033.55</ele>
        <time>2016-02-25T08:15:33Z</time>
      </trkpt>
      <trkpt lat="44.74921" lon="3.23872">
        <ele>1033.07</ele>
        <time>2016-02-25T08:15:34Z</time>
      </trkpt>
      <trkpt lat="44.74923" lon="3.23868">
        <ele>1033.55</ele>
        <time>2016-02-25T08:15:35Z</time>
      </trkpt>
      <trkpt lat="44.74925" lon="3.23864">
        <ele>1034.04</ele>
        <time>2016-02-25T08:15:36Z</time>
      </trkpt>
      <trkpt lat="44.74951" lon="3.2382">
        <ele>1035.48</ele>
        <time>2016-02-25T08:15:48Z</time>
      </trkpt>
      <trkpt lat="44.74966" lon="3.23761">
        <ele>1032.59</ele>
        <time>2016-02-25T08:15:59Z</time>
      </trkpt>
      <trkpt lat="44.74967" lon="3.23753">
        <ele>1032.59</ele>
        <time>2016-02-25T08:16:00Z</time>
      </trkpt>
      <trkpt lat="44.74969" lon="3.23721">
        <ele>1032.59</ele>
        <time>2016-02-25T08:16:04Z</time>
      </trkpt>
      <trkpt lat="44.74969" lon="3.23713">
        <ele>1032.59</ele>
        <time>2016-02-25T08:16:05Z</time>
      </trkpt>
      <trkpt lat="44.7497" lon="3.23706">
        <ele>1032.59</ele>
        <time>2016-02-25T08:16:06Z</time>
      </trkpt>
      <trkpt lat="44.74969" lon="3.2369">
        <ele>1033.07</ele>
        <time>2016-02-25T08:16:08Z</time>
      </trkpt>
      <trkpt lat="44.74968" lon="3.23683">
        <ele>1032.59</ele>
        <time>2016-02-25T08:16:09Z</time>
      </trkpt>
      <trkpt lat="44.74967" lon="3.23676">
        <ele>1032.59</ele>
        <time>2016-02-25T08:16:10Z</time>
      </trkpt>
      <trkpt lat="44.74966" lon="3.23669">
        <ele>1032.11</ele>
        <time>2016-02-25T08:16:11Z</time>
      </trkpt>
      <trkpt lat="44.74965" lon="3.23664">
        <ele>1033.07</ele>
        <time>2016-02-25T08:16:12Z</time>
      </trkpt>
      <trkpt lat="44.74965" lon="3.23607">
        <ele>1034.52</ele>
        <time>2016-02-25T08:16:23Z</time>
      </trkpt>
      <trkpt lat="44.74974" lon="3.23545">
        <ele>1035.96</ele>
        <time>2016-02-25T08:16:37Z</time>
      </trkpt>
      <trkpt lat="44.74984" lon="3.23523">
        <ele>1038.36</ele>
        <time>2016-02-25T08:16:46Z</time>
      </trkpt>
      <trkpt lat="44.74984" lon="3.23521">
        <ele>1038.36</ele>
        <time>2016-02-25T08:16:47Z</time>
      </trkpt>
      <trkpt lat="44.74985" lon="3.23519">
        <ele>1038.36</ele>
        <time>2016-02-25T08:16:48Z</time>
      </trkpt>
      <trkpt lat="44.74996" lon="3.23481">
        <ele>1040.28</ele>
        <time>2016-02-25T08:17:03Z</time>
      </trkpt>
      <trkpt lat="44.75015" lon="3.23456">
        <ele>1043.65</ele>
        <time>2016-02-25T08:17:16Z</time>
      </trkpt>
      <trkpt lat="44.75026" lon="3.23433">
        <ele>1045.57</ele>
        <time>2016-02-25T08:17:27Z</time>
      </trkpt>
      <trkpt lat="44.75016" lon="3.23404">
        <ele>1047.01</ele>
        <time>2016-02-25T08:17:40Z</time>
      </trkpt>
      <trkpt lat="44.75005" lon="3.23384">
        <ele>1049.42</ele>
        <time>2016-02-25T08:17:51Z</time>
      </trkpt>
      <trkpt lat="44.74999" lon="3.23374">
        <ele>1050.86</ele>
        <time>2016-02-25T08:17:57Z</time>
      </trkpt>
      <trkpt lat="44.7499" lon="3.23374">
        <ele>1051.82</ele>
        <time>2016-02-25T08:18:03Z</time>
      </trkpt>
      <trkpt lat="44.74977" lon="3.23369">
        <ele>1053.74</ele>
        <time>2016-02-25T08:18:13Z</time>
      </trkpt>
      <trkpt lat="44.74971" lon="3.23363">
        <ele>1055.18</ele>
        <time>2016-02-25T08:18:19Z</time>
      </trkpt>
      <trkpt lat="44.74956" lon="3.23347">
        <ele>1057.59</ele>
        <time>2016-02-25T08:18:33Z</time>
      </trkpt>
      <trkpt lat="44.74937" lon="3.23335">
        <ele>1059.51</ele>
        <time>2016-02-25T08:18:46Z</time>
      </trkpt>
      <trkpt lat="44.74935" lon="3.23334">
        <ele>1059.03</ele>
        <time>2016-02-25T08:18:47Z</time>
      </trkpt>
      <trkpt lat="44.74916" lon="3.23322">
        <ele>1059.99</ele>
        <time>2016-02-25T08:18:58Z</time>
      </trkpt>
      <trkpt lat="44.74906" lon="3.23315">
        <ele>1060.47</ele>
        <time>2016-02-25T08:19:05Z</time>
      </trkpt>
      <trkpt lat="44.74903" lon="3.23314">
        <ele>1061.43</ele>
        <time>2016-02-25T08:19:08Z</time>
      </trkpt>
      <trkpt lat="44.74899" lon="3.23312">
        <ele>1061.91</ele>
        <time>2016-02-25T08:19:12Z</time>
      </trkpt>
      <trkpt lat="44.74897" lon="3.23312">
        <ele>1061.91</ele>
        <time>2016-02-25T08:19:14Z</time>
      </trkpt>
      <trkpt lat="44.74893" lon="3.23311">
        <ele>1062.39</ele>
        <time>2016-02-25T08:19:23Z</time>
      </trkpt>
      <trkpt lat="44.74891" lon="3.23311">
        <ele>1062.87</ele>
        <time>2016-02-25T08:19:33Z</time>
      </trkpt>
      <trkpt lat="44.74888" lon="3.2331">
        <ele>1063.36</ele>
        <time>2016-02-25T08:19:45Z</time>
      </trkpt>
      <trkpt lat="44.74884" lon="3.23309">
        <ele>1063.36</ele>
        <time>2016-02-25T08:19:56Z</time>
      </trkpt>
      <trkpt lat="44.74879" lon="3.23308">
        <ele>1063.84</ele>
        <time>2016-02-25T08:20:01Z</time>
      </trkpt>
      <trkpt lat="44.7487" lon="3.23306">
        <ele>1065.28</ele>
        <time>2016-02-25T08:20:14Z</time>
      </trkpt>
      <trkpt lat="44.74868" lon="3.23304">
        <ele>1065.76</ele>
        <time>2016-02-25T08:20:21Z</time>
      </trkpt>
      <trkpt lat="44.74867" lon="3.23304">
        <ele>1065.76</ele>
        <time>2016-02-25T08:20:23Z</time>
      </trkpt>
      <trkpt lat="44.74859" lon="3.23298">
        <ele>1067.2</ele>
        <time>2016-02-25T08:20:29Z</time>
      </trkpt>
      <trkpt lat="44.74856" lon="3.23295">
        <ele>1067.68</ele>
        <time>2016-02-25T08:20:31Z</time>
      </trkpt>
      <trkpt lat="44.74844" lon="3.23282">
        <ele>1070.08</ele>
        <time>2016-02-25T08:20:42Z</time>
      </trkpt>
      <trkpt lat="44.74833" lon="3.23253">
        <ele>1070.57</ele>
        <time>2016-02-25T08:20:55Z</time>
      </trkpt>
      <trkpt lat="44.74827" lon="3.23229">
        <ele>1069.12</ele>
        <time>2016-02-25T08:21:02Z</time>
      </trkpt>
      <trkpt lat="44.74826" lon="3.23223">
        <ele>1069.12</ele>
        <time>2016-02-25T08:21:03Z</time>
      </trkpt>
      <trkpt lat="44.74825" lon="3.23218">
        <ele>1068.64</ele>
        <time>2016-02-25T08:21:04Z</time>
      </trkpt>
      <trkpt lat="44.74824" lon="3.23214">
        <ele>1068.16</ele>
        <time>2016-02-25T08:21:05Z</time>
      </trkpt>
      <trkpt lat="44.74823" lon="3.2321">
        <ele>1067.68</ele>
        <time>2016-02-25T08:21:06Z</time>
      </trkpt>
      <trkpt lat="44.74822" lon="3.23206">
        <ele>1067.68</ele>
        <time>2016-02-25T08:21:07Z</time>
      </trkpt>
      <trkpt lat="44.74821" lon="3.23203">
        <ele>1067.2</ele>
        <time>2016-02-25T08:21:08Z</time>
      </trkpt>
      <trkpt lat="44.7482" lon="3.23198">
        <ele>1066.24</ele>
        <time>2016-02-25T08:21:09Z</time>
      </trkpt>
      <trkpt lat="44.7482" lon="3.23193">
        <ele>1065.76</ele>
        <time>2016-02-25T08:21:10Z</time>
      </trkpt>
      <trkpt lat="44.74819" lon="3.23187">
        <ele>1065.76</ele>
        <time>2016-02-25T08:21:11Z</time>
      </trkpt>
      <trkpt lat="44.74819" lon="3.23181">
        <ele>1065.76</ele>
        <time>2016-02-25T08:21:12Z</time>
      </trkpt>
      <trkpt lat="44.74821" lon="3.23141">
        <ele>1064.32</ele>
        <time>2016-02-25T08:21:19Z</time>
      </trkpt>
      <trkpt lat="44.74824" lon="3.23134">
        <ele>1063.84</ele>
        <time>2016-02-25T08:21:20Z</time>
      </trkpt>
      <trkpt lat="44.74826" lon="3.23121">
        <ele>1062.87</ele>
        <time>2016-02-25T08:21:22Z</time>
      </trkpt>
      <trkpt lat="44.74828" lon="3.23101">
        <ele>1061.43</ele>
        <time>2016-02-25T08:21:25Z</time>
      </trkpt>
      <trkpt lat="44.7484" lon="3.23057">
        <ele>1059.99</ele>
        <time>2016-02-25T08:21:36Z</time>
      </trkpt>
      <trkpt lat="44.74855" lon="3.23017">
        <ele>1059.99</ele>
        <time>2016-02-25T08:21:46Z</time>
      </trkpt>
      <trkpt lat="44.74866" lon="3.22992">
        <ele>1058.55</ele>
        <time>2016-02-25T08:21:53Z</time>
      </trkpt>
      <trkpt lat="44.74866" lon="3.22987">
        <ele>1058.07</ele>
        <time>2016-02-25T08:21:54Z</time>
      </trkpt>
      <trkpt lat="44.74865" lon="3.22983">
        <ele>1057.59</ele>
        <time>2016-02-25T08:21:55Z</time>
      </trkpt>
      <trkpt lat="44.74863" lon="3.2298">
        <ele>1056.63</ele>
        <time>2016-02-25T08:21:56Z</time>
      </trkpt>
      <trkpt lat="44.74859" lon="3.22976">
        <ele>1055.67</ele>
        <time>2016-02-25T08:21:57Z</time>
      </trkpt>
      <trkpt lat="44.74856" lon="3.2297">
        <ele>1055.18</ele>
        <time>2016-02-25T08:21:58Z</time>
      </trkpt>
      <trkpt lat="44.74853" lon="3.22965">
        <ele>1056.15</ele>
        <time>2016-02-25T08:21:59Z</time>
      </trkpt>
      <trkpt lat="44.74852" lon="3.22961">
        <ele>1056.63</ele>
        <time>2016-02-25T08:22:00Z</time>
      </trkpt>
      <trkpt lat="44.74851" lon="3.22957">
        <ele>1057.11</ele>
        <time>2016-02-25T08:22:01Z</time>
      </trkpt>
      <trkpt lat="44.7485" lon="3.22953">
        <ele>1057.11</ele>
        <time>2016-02-25T08:22:02Z</time>
      </trkpt>
      <trkpt lat="44.74849" lon="3.2295">
        <ele>1057.11</ele>
        <time>2016-02-25T08:22:03Z</time>
      </trkpt>
      <trkpt lat="44.74849" lon="3.22948">
        <ele>1057.59</ele>
        <time>2016-02-25T08:22:04Z</time>
      </trkpt>
      <trkpt lat="44.74848" lon="3.22946">
        <ele>1058.07</ele>
        <time>2016-02-25T08:22:05Z</time>
      </trkpt>
      <trkpt lat="44.74847" lon="3.22939">
        <ele>1058.55</ele>
        <time>2016-02-25T08:22:08Z</time>
      </trkpt>
      <trkpt lat="44.74847" lon="3.22938">
        <ele>1059.03</ele>
        <time>2016-02-25T08:22:09Z</time>
      </trkpt>
      <trkpt lat="44.74847" lon="3.22936">
        <ele>1059.03</ele>
        <time>2016-02-25T08:22:10Z</time>
      </trkpt>
      <trkpt lat="44.74844" lon="3.22922">
        <ele>1060.47</ele>
        <time>2016-02-25T08:22:16Z</time>
      </trkpt>
      <trkpt lat="44.74845" lon="3.2292">
        <ele>1060.95</ele>
        <time>2016-02-25T08:22:17Z</time>
      </trkpt>
      <trkpt lat="44.74845" lon="3.22918">
        <ele>1060.95</ele>
        <time>2016-02-25T08:22:18Z</time>
      </trkpt>
      <trkpt lat="44.74846" lon="3.22916">
        <ele>1061.43</ele>
        <time>2016-02-25T08:22:19Z</time>
      </trkpt>
      <trkpt lat="44.74848" lon="3.22899">
        <ele>1064.32</ele>
        <time>2016-02-25T08:22:30Z</time>
      </trkpt>
      <trkpt lat="44.74851" lon="3.22894">
        <ele>1065.28</ele>
        <time>2016-02-25T08:22:35Z</time>
      </trkpt>
      <trkpt lat="44.74852" lon="3.22892">
        <ele>1066.24</ele>
        <time>2016-02-25T08:22:45Z</time>
      </trkpt>
      <trkpt lat="44.74852" lon="3.22892">
        <ele>1066.24</ele>
        <time>2016-02-25T08:23:07Z</time>
      </trkpt>
      <trkpt lat="44.74852" lon="3.22891">
        <ele>1066.24</ele>
        <time>2016-02-25T08:23:24Z</time>
      </trkpt>
      <trkpt lat="44.74852" lon="3.22891">
        <ele>1067.2</ele>
        <time>2016-02-25T08:23:46Z</time>
      </trkpt>
      <trkpt lat="44.74852" lon="3.22891">
        <ele>1068.16</ele>
        <time>2016-02-25T08:23:57Z</time>
      </trkpt>
      <trkpt lat="44.74852" lon="3.22876">
        <ele>1071.05</ele>
        <time>2016-02-25T08:24:09Z</time>
      </trkpt>
      <trkpt lat="44.74852" lon="3.22866">
        <ele>1072.97</ele>
        <time>2016-02-25T08:24:20Z</time>
      </trkpt>
      <trkpt lat="44.74851" lon="3.22852">
        <ele>1074.89</ele>
        <time>2016-02-25T08:24:29Z</time>
      </trkpt>
      <trkpt lat="44.7485" lon="3.22839">
        <ele>1076.33</ele>
        <time>2016-02-25T08:24:41Z</time>
      </trkpt>
      <trkpt lat="44.74849" lon="3.22834">
        <ele>1076.81</ele>
        <time>2016-02-25T08:24:47Z</time>
      </trkpt>
      <trkpt lat="44.74849" lon="3.22832">
        <ele>1076.81</ele>
        <time>2016-02-25T08:24:48Z</time>
      </trkpt>
      <trkpt lat="44.74848" lon="3.22803">
        <ele>1077.29</ele>
        <time>2016-02-25T08:24:59Z</time>
      </trkpt>
      <trkpt lat="44.74848" lon="3.228">
        <ele>1077.29</ele>
        <time>2016-02-25T08:25:00Z</time>
      </trkpt>
      <trkpt lat="44.74846" lon="3.2279">
        <ele>1077.29</ele>
        <time>2016-02-25T08:25:04Z</time>
      </trkpt>
      <trkpt lat="44.74846" lon="3.22788">
        <ele>1077.78</ele>
        <time>2016-02-25T08:25:05Z</time>
      </trkpt>
      <trkpt lat="44.74846" lon="3.22785">
        <ele>1077.78</ele>
        <time>2016-02-25T08:25:06Z</time>
      </trkpt>
      <trkpt lat="44.74845" lon="3.22783">
        <ele>1077.78</ele>
        <time>2016-02-25T08:25:07Z</time>
      </trkpt>
      <trkpt lat="44.74845" lon="3.2278">
        <ele>1077.78</ele>
        <time>2016-02-25T08:25:08Z</time>
      </trkpt>
      <trkpt lat="44.74844" lon="3.22777">
        <ele>1077.78</ele>
        <time>2016-02-25T08:25:09Z</time>
      </trkpt>
      <trkpt lat="44.74844" lon="3.22775">
        <ele>1077.78</ele>
        <time>2016-02-25T08:25:10Z</time>
      </trkpt>
      <trkpt lat="44.74844" lon="3.22772">
        <ele>1077.78</ele>
        <time>2016-02-25T08:25:11Z</time>
      </trkpt>
      <trkpt lat="44.74843" lon="3.2277">
        <ele>1077.78</ele>
        <time>2016-02-25T08:25:12Z</time>
      </trkpt>
      <trkpt lat="44.74842" lon="3.22767">
        <ele>1078.26</ele>
        <time>2016-02-25T08:25:13Z</time>
      </trkpt>
      <trkpt lat="44.74841" lon="3.22765">
        <ele>1078.26</ele>
        <time>2016-02-25T08:25:14Z</time>
      </trkpt>
      <trkpt lat="44.7484" lon="3.22763">
        <ele>1078.26</ele>
        <time>2016-02-25T08:25:15Z</time>
      </trkpt>
      <trkpt lat="44.74839" lon="3.22761">
        <ele>1078.26</ele>
        <time>2016-02-25T08:25:16Z</time>
      </trkpt>
      <trkpt lat="44.74823" lon="3.22734">
        <ele>1079.22</ele>
        <time>2016-02-25T08:25:30Z</time>
      </trkpt>
      <trkpt lat="44.74815" lon="3.22726">
        <ele>1080.18</ele>
        <time>2016-02-25T08:25:36Z</time>
      </trkpt>
      <trkpt lat="44.74813" lon="3.22724">
        <ele>1080.18</ele>
        <time>2016-02-25T08:25:38Z</time>
      </trkpt>
      <trkpt lat="44.74811" lon="3.22723">
        <ele>1080.18</ele>
        <time>2016-02-25T08:25:39Z</time>
      </trkpt>
      <trkpt lat="44.74809" lon="3.22722">
        <ele>1080.18</ele>
        <time>2016-02-25T08:25:40Z</time>
      </trkpt>
      <trkpt lat="44.74807" lon="3.22721">
        <ele>1080.18</ele>
        <time>2016-02-25T08:25:41Z</time>
      </trkpt>
      <trkpt lat="44.74805" lon="3.2272">
        <ele>1080.18</ele>
        <time>2016-02-25T08:25:42Z</time>
      </trkpt>
      <trkpt lat="44.74804" lon="3.22718">
        <ele>1080.18</ele>
        <time>2016-02-25T08:25:43Z</time>
      </trkpt>
      <trkpt lat="44.74802" lon="3.22717">
        <ele>1080.18</ele>
        <time>2016-02-25T08:25:44Z</time>
      </trkpt>
      <trkpt lat="44.748" lon="3.22716">
        <ele>1080.66</ele>
        <time>2016-02-25T08:25:45Z</time>
      </trkpt>
      <trkpt lat="44.74798" lon="3.22716">
        <ele>1080.66</ele>
        <time>2016-02-25T08:25:46Z</time>
      </trkpt>
      <trkpt lat="44.74797" lon="3.22715">
        <ele>1080.66</ele>
        <time>2016-02-25T08:25:47Z</time>
      </trkpt>
      <trkpt lat="44.74792" lon="3.22711">
        <ele>1081.14</ele>
        <time>2016-02-25T08:25:50Z</time>
      </trkpt>
      <trkpt lat="44.7479" lon="3.22709">
        <ele>1081.14</ele>
        <time>2016-02-25T08:25:51Z</time>
      </trkpt>
      <trkpt lat="44.74773" lon="3.22692">
        <ele>1082.1</ele>
        <time>2016-02-25T08:26:03Z</time>
      </trkpt>
      <trkpt lat="44.74772" lon="3.2269">
        <ele>1082.1</ele>
        <time>2016-02-25T08:26:04Z</time>
      </trkpt>
      <trkpt lat="44.74771" lon="3.22689">
        <ele>1082.58</ele>
        <time>2016-02-25T08:26:05Z</time>
      </trkpt>
      <trkpt lat="44.74769" lon="3.22687">
        <ele>1082.58</ele>
        <time>2016-02-25T08:26:06Z</time>
      </trkpt>
      <trkpt lat="44.74768" lon="3.22686">
        <ele>1082.58</ele>
        <time>2016-02-25T08:26:07Z</time>
      </trkpt>
      <trkpt lat="44.74767" lon="3.22684">
        <ele>1082.58</ele>
        <time>2016-02-25T08:26:08Z</time>
      </trkpt>
      <trkpt lat="44.74765" lon="3.22682">
        <ele>1082.58</ele>
        <time>2016-02-25T08:26:09Z</time>
      </trkpt>
      <trkpt lat="44.74764" lon="3.22681">
        <ele>1083.06</ele>
        <time>2016-02-25T08:26:10Z</time>
      </trkpt>
      <trkpt lat="44.74762" lon="3.2268">
        <ele>1083.06</ele>
        <time>2016-02-25T08:26:11Z</time>
      </trkpt>
      <trkpt lat="44.7476" lon="3.22678">
        <ele>1083.06</ele>
        <time>2016-02-25T08:26:12Z</time>
      </trkpt>
      <trkpt lat="44.74759" lon="3.22676">
        <ele>1083.54</ele>
        <time>2016-02-25T08:26:13Z</time>
      </trkpt>
      <trkpt lat="44.7475" lon="3.22663">
        <ele>1084.99</ele>
        <time>2016-02-25T08:26:21Z</time>
      </trkpt>
      <trkpt lat="44.74751" lon="3.22661">
        <ele>1084.99</ele>
        <time>2016-02-25T08:26:22Z</time>
      </trkpt>
      <trkpt lat="44.7475" lon="3.2266">
        <ele>1084.99</ele>
        <time>2016-02-25T08:26:23Z</time>
      </trkpt>
      <trkpt lat="44.74751" lon="3.22657">
        <ele>1084.99</ele>
        <time>2016-02-25T08:26:24Z</time>
      </trkpt>
      <trkpt lat="44.74751" lon="3.22655">
        <ele>1084.99</ele>
        <time>2016-02-25T08:26:25Z</time>
      </trkpt>
      <trkpt lat="44.74752" lon="3.22652">
        <ele>1084.99</ele>
        <time>2016-02-25T08:26:26Z</time>
      </trkpt>
      <trkpt lat="44.74752" lon="3.2265">
        <ele>1084.99</ele>
        <time>2016-02-25T08:26:27Z</time>
      </trkpt>
      <trkpt lat="44.74766" lon="3.22616">
        <ele>1085.95</ele>
        <time>2016-02-25T08:26:43Z</time>
      </trkpt>
      <trkpt lat="44.74774" lon="3.22582">
        <ele>1089.31</ele>
        <time>2016-02-25T08:26:59Z</time>
      </trkpt>
      <trkpt lat="44.74777" lon="3.22551">
        <ele>1092.2</ele>
        <time>2016-02-25T08:27:13Z</time>
      </trkpt>
      <trkpt lat="44.74778" lon="3.22525">
        <ele>1095.08</ele>
        <time>2016-02-25T08:27:24Z</time>
      </trkpt>
      <trkpt lat="44.74788" lon="3.22489">
        <ele>1097.48</ele>
        <time>2016-02-25T08:27:39Z</time>
      </trkpt>
      <trkpt lat="44.74813" lon="3.22449">
        <ele>1097.96</ele>
        <time>2016-02-25T08:27:58Z</time>
      </trkpt>
      <trkpt lat="44.74818" lon="3.22436">
        <ele>1097.96</ele>
        <time>2016-02-25T08:28:03Z</time>
      </trkpt>
      <trkpt lat="44.74818" lon="3.22434">
        <ele>1098.44</ele>
        <time>2016-02-25T08:28:04Z</time>
      </trkpt>
      <trkpt lat="44.74819" lon="3.22431">
        <ele>1098.44</ele>
        <time>2016-02-25T08:28:05Z</time>
      </trkpt>
      <trkpt lat="44.74829" lon="3.22396">
        <ele>1099.89</ele>
        <time>2016-02-25T08:28:19Z</time>
      </trkpt>
      <trkpt lat="44.74832" lon="3.22389">
        <ele>1100.37</ele>
        <time>2016-02-25T08:28:22Z</time>
      </trkpt>
      <trkpt lat="44.74832" lon="3.22387">
        <ele>1100.37</ele>
        <time>2016-02-25T08:28:23Z</time>
      </trkpt>
      <trkpt lat="44.74833" lon="3.22385">
        <ele>1100.37</ele>
        <time>2016-02-25T08:28:24Z</time>
      </trkpt>
      <trkpt lat="44.74838" lon="3.22359">
        <ele>1102.29</ele>
        <time>2016-02-25T08:28:35Z</time>
      </trkpt>
      <trkpt lat="44.74842" lon="3.22352">
        <ele>1103.25</ele>
        <time>2016-02-25T08:28:39Z</time>
      </trkpt>
      <trkpt lat="44.74833" lon="3.22322">
        <ele>1104.69</ele>
        <time>2016-02-25T08:28:54Z</time>
      </trkpt>
      <trkpt lat="44.74825" lon="3.22304">
        <ele>1106.61</ele>
        <time>2016-02-25T08:29:04Z</time>
      </trkpt>
      <trkpt lat="44.74818" lon="3.22282">
        <ele>1107.58</ele>
        <time>2016-02-25T08:29:15Z</time>
      </trkpt>
      <trkpt lat="44.74817" lon="3.2228">
        <ele>1107.58</ele>
        <time>2016-02-25T08:29:16Z</time>
      </trkpt>
      <trkpt lat="44.74817" lon="3.22278">
        <ele>1107.58</ele>
        <time>2016-02-25T08:29:17Z</time>
      </trkpt>
      <trkpt lat="44.74816" lon="3.22276">
        <ele>1108.06</ele>
        <time>2016-02-25T08:29:18Z</time>
      </trkpt>
      <trkpt lat="44.74816" lon="3.22274">
        <ele>1108.06</ele>
        <time>2016-02-25T08:29:19Z</time>
      </trkpt>
      <trkpt lat="44.74816" lon="3.22271">
        <ele>1108.06</ele>
        <time>2016-02-25T08:29:20Z</time>
      </trkpt>
      <trkpt lat="44.74815" lon="3.22269">
        <ele>1108.54</ele>
        <time>2016-02-25T08:29:21Z</time>
      </trkpt>
      <trkpt lat="44.74815" lon="3.22267">
        <ele>1108.54</ele>
        <time>2016-02-25T08:29:22Z</time>
      </trkpt>
      <trkpt lat="44.74814" lon="3.22265">
        <ele>1108.54</ele>
        <time>2016-02-25T08:29:23Z</time>
      </trkpt>
      <trkpt lat="44.74813" lon="3.22263">
        <ele>1109.02</ele>
        <time>2016-02-25T08:29:24Z</time>
      </trkpt>
      <trkpt lat="44.74812" lon="3.22261">
        <ele>1109.02</ele>
        <time>2016-02-25T08:29:25Z</time>
      </trkpt>
      <trkpt lat="44.74811" lon="3.2226">
        <ele>1109.5</ele>
        <time>2016-02-25T08:29:26Z</time>
      </trkpt>
      <trkpt lat="44.7481" lon="3.22258">
        <ele>1109.5</ele>
        <time>2016-02-25T08:29:27Z</time>
      </trkpt>
      <trkpt lat="44.74809" lon="3.22257">
        <ele>1109.5</ele>
        <time>2016-02-25T08:29:28Z</time>
      </trkpt>
      <trkpt lat="44.74808" lon="3.22255">
        <ele>1109.5</ele>
        <time>2016-02-25T08:29:29Z</time>
      </trkpt>
      <trkpt lat="44.74806" lon="3.22255">
        <ele>1109.98</ele>
        <time>2016-02-25T08:29:30Z</time>
      </trkpt>
      <trkpt lat="44.74804" lon="3.22253">
        <ele>1109.98</ele>
        <time>2016-02-25T08:29:34Z</time>
      </trkpt>
      <trkpt lat="44.74805" lon="3.22252">
        <ele>1109.98</ele>
        <time>2016-02-25T08:29:37Z</time>
      </trkpt>
      <trkpt lat="44.74806" lon="3.22254">
        <ele>1109.98</ele>
        <time>2016-02-25T08:29:38Z</time>
      </trkpt>
      <trkpt lat="44.74807" lon="3.22255">
        <ele>1109.98</ele>
        <time>2016-02-25T08:29:39Z</time>
      </trkpt>
      <trkpt lat="44.74809" lon="3.22257">
        <ele>1109.98</ele>
        <time>2016-02-25T08:29:40Z</time>
      </trkpt>
      <trkpt lat="44.74811" lon="3.22259">
        <ele>1109.5</ele>
        <time>2016-02-25T08:29:41Z</time>
      </trkpt>
      <trkpt lat="44.74814" lon="3.2226">
        <ele>1109.5</ele>
        <time>2016-02-25T08:29:42Z</time>
      </trkpt>
      <trkpt lat="44.74817" lon="3.22261">
        <ele>1109.02</ele>
        <time>2016-02-25T08:29:43Z</time>
      </trkpt>
      <trkpt lat="44.74829" lon="3.22262">
        <ele>1109.02</ele>
        <time>2016-02-25T08:29:50Z</time>
      </trkpt>
      <trkpt lat="44.74829" lon="3.22264">
        <ele>1109.02</ele>
        <time>2016-02-25T08:29:51Z</time>
      </trkpt>
      <trkpt lat="44.74828" lon="3.22265">
        <ele>1109.02</ele>
        <time>2016-02-25T08:29:52Z</time>
      </trkpt>
      <trkpt lat="44.74827" lon="3.22265">
        <ele>1109.02</ele>
        <time>2016-02-25T08:29:53Z</time>
      </trkpt>
      <trkpt lat="44.74825" lon="3.22264">
        <ele>1108.06</ele>
        <time>2016-02-25T08:29:54Z</time>
      </trkpt>
      <trkpt lat="44.74823" lon="3.22264">
        <ele>1111.42</ele>
        <time>2016-02-25T08:29:55Z</time>
      </trkpt>
      <trkpt lat="44.74822" lon="3.22262">
        <ele>1108.54</ele>
        <time>2016-02-25T08:29:56Z</time>
      </trkpt>
      <trkpt lat="44.74821" lon="3.2226">
        <ele>1108.54</ele>
        <time>2016-02-25T08:29:57Z</time>
      </trkpt>
      <trkpt lat="44.7482" lon="3.22258">
        <ele>1108.54</ele>
        <time>2016-02-25T08:29:58Z</time>
      </trkpt>
      <trkpt lat="44.74821" lon="3.22221">
        <ele>1108.54</ele>
        <time>2016-02-25T08:30:11Z</time>
      </trkpt>
      <trkpt lat="44.74832" lon="3.22166">
        <ele>1107.1</ele>
        <time>2016-02-25T08:30:24Z</time>
      </trkpt>
      <trkpt lat="44.74854" lon="3.22114">
        <ele>1107.1</ele>
        <time>2016-02-25T08:30:38Z</time>
      </trkpt>
      <trkpt lat="44.74879" lon="3.22077">
        <ele>1105.17</ele>
        <time>2016-02-25T08:30:49Z</time>
      </trkpt>
      <trkpt lat="44.74927" lon="3.22019">
        <ele>1107.1</ele>
        <time>2016-02-25T08:31:06Z</time>
      </trkpt>
      <trkpt lat="44.74959" lon="3.21974">
        <ele>1108.06</ele>
        <time>2016-02-25T08:31:19Z</time>
      </trkpt>
      <trkpt lat="44.74979" lon="3.21949">
        <ele>1109.5</ele>
        <time>2016-02-25T08:31:29Z</time>
      </trkpt>
      <trkpt lat="44.75001" lon="3.21924">
        <ele>1111.42</ele>
        <time>2016-02-25T08:31:40Z</time>
      </trkpt>
      <trkpt lat="44.75023" lon="3.21899">
        <ele>1112.86</ele>
        <time>2016-02-25T08:31:51Z</time>
      </trkpt>
      <trkpt lat="44.7505" lon="3.21879">
        <ele>1115.27</ele>
        <time>2016-02-25T08:32:03Z</time>
      </trkpt>
      <trkpt lat="44.75077" lon="3.21856">
        <ele>1117.19</ele>
        <time>2016-02-25T08:32:15Z</time>
      </trkpt>
      <trkpt lat="44.7511" lon="3.21825">
        <ele>1119.59</ele>
        <time>2016-02-25T08:32:30Z</time>
      </trkpt>
      <trkpt lat="44.75142" lon="3.21791">
        <ele>1120.55</ele>
        <time>2016-02-25T08:32:45Z</time>
      </trkpt>
      <trkpt lat="44.75152" lon="3.2178">
        <ele>1121.52</ele>
        <time>2016-02-25T08:32:51Z</time>
      </trkpt>
      <trkpt lat="44.75158" lon="3.21772">
        <ele>1122</ele>
        <time>2016-02-25T08:32:57Z</time>
      </trkpt>
      <trkpt lat="44.75161" lon="3.2177">
        <ele>1122</ele>
        <time>2016-02-25T08:33:00Z</time>
      </trkpt>
      <trkpt lat="44.7516" lon="3.21769">
        <ele>1122.48</ele>
        <time>2016-02-25T08:33:03Z</time>
      </trkpt>
      <trkpt lat="44.75155" lon="3.21777">
        <ele>1121.52</ele>
        <time>2016-02-25T08:33:08Z</time>
      </trkpt>
      <trkpt lat="44.75147" lon="3.2178">
        <ele>1121.52</ele>
        <time>2016-02-25T08:33:20Z</time>
      </trkpt>
      <trkpt lat="44.75146" lon="3.2178">
        <ele>1120.55</ele>
        <time>2016-02-25T08:33:41Z</time>
      </trkpt>
      <trkpt lat="44.75146" lon="3.2178">
        <ele>1120.55</ele>
        <time>2016-02-25T08:34:10Z</time>
      </trkpt>
      <trkpt lat="44.75145" lon="3.21781">
        <ele>1121.03</ele>
        <time>2016-02-25T08:34:41Z</time>
      </trkpt>
      <trkpt lat="44.75145" lon="3.21781">
        <ele>1120.55</ele>
        <time>2016-02-25T08:35:14Z</time>
      </trkpt>
      <trkpt lat="44.75145" lon="3.21781">
        <ele>1120.55</ele>
        <time>2016-02-25T08:35:37Z</time>
      </trkpt>
      <trkpt lat="44.75146" lon="3.21781">
        <ele>1121.52</ele>
        <time>2016-02-25T08:35:49Z</time>
      </trkpt>
      <trkpt lat="44.75146" lon="3.21781">
        <ele>1121.52</ele>
        <time>2016-02-25T08:35:57Z</time>
      </trkpt>
      <trkpt lat="44.75165" lon="3.21765">
        <ele>1122</ele>
        <time>2016-02-25T08:36:08Z</time>
      </trkpt>
      <trkpt lat="44.75186" lon="3.21736">
        <ele>1122.96</ele>
        <time>2016-02-25T08:36:22Z</time>
      </trkpt>
      <trkpt lat="44.75202" lon="3.21713">
        <ele>1124.4</ele>
        <time>2016-02-25T08:36:34Z</time>
      </trkpt>
      <trkpt lat="44.75219" lon="3.21691">
        <ele>1125.36</ele>
        <time>2016-02-25T08:36:45Z</time>
      </trkpt>
      <trkpt lat="44.75224" lon="3.21682">
        <ele>1126.32</ele>
        <time>2016-02-25T08:36:49Z</time>
      </trkpt>
      <trkpt lat="44.75228" lon="3.21679">
        <ele>1126.8</ele>
        <time>2016-02-25T08:36:52Z</time>
      </trkpt>
      <trkpt lat="44.7525" lon="3.21648">
        <ele>1129.69</ele>
        <time>2016-02-25T08:37:06Z</time>
      </trkpt>
      <trkpt lat="44.75257" lon="3.21638">
        <ele>1130.17</ele>
        <time>2016-02-25T08:37:11Z</time>
      </trkpt>
      <trkpt lat="44.75269" lon="3.21607">
        <ele>1132.09</ele>
        <time>2016-02-25T08:37:24Z</time>
      </trkpt>
      <trkpt lat="44.75274" lon="3.21595">
        <ele>1132.09</ele>
        <time>2016-02-25T08:37:28Z</time>
      </trkpt>
      <trkpt lat="44.75282" lon="3.21555">
        <ele>1134.01</ele>
        <time>2016-02-25T08:37:41Z</time>
      </trkpt>
      <trkpt lat="44.75283" lon="3.21511">
        <ele>1135.94</ele>
        <time>2016-02-25T08:37:55Z</time>
      </trkpt>
      <trkpt lat="44.75283" lon="3.21508">
        <ele>1135.94</ele>
        <time>2016-02-25T08:37:56Z</time>
      </trkpt>
      <trkpt lat="44.7528" lon="3.21473">
        <ele>1137.86</ele>
        <time>2016-02-25T08:38:08Z</time>
      </trkpt>
      <trkpt lat="44.75268" lon="3.21438">
        <ele>1139.78</ele>
        <time>2016-02-25T08:38:20Z</time>
      </trkpt>
      <trkpt lat="44.75258" lon="3.21404">
        <ele>1140.74</ele>
        <time>2016-02-25T08:38:31Z</time>
      </trkpt>
      <trkpt lat="44.75249" lon="3.21366">
        <ele>1142.18</ele>
        <time>2016-02-25T08:38:43Z</time>
      </trkpt>
      <trkpt lat="44.7524" lon="3.21322">
        <ele>1143.63</ele>
        <time>2016-02-25T08:38:57Z</time>
      </trkpt>
      <trkpt lat="44.75235" lon="3.21278">
        <ele>1145.07</ele>
        <time>2016-02-25T08:39:10Z</time>
      </trkpt>
      <trkpt lat="44.75241" lon="3.21239">
        <ele>1147.47</ele>
        <time>2016-02-25T08:39:23Z</time>
      </trkpt>
      <trkpt lat="44.75267" lon="3.21208">
        <ele>1148.91</ele>
        <time>2016-02-25T08:39:38Z</time>
      </trkpt>
      <trkpt lat="44.75302" lon="3.21182">
        <ele>1152.28</ele>
        <time>2016-02-25T08:39:56Z</time>
      </trkpt>
      <trkpt lat="44.75337" lon="3.21167">
        <ele>1154.68</ele>
        <time>2016-02-25T08:40:12Z</time>
      </trkpt>
      <trkpt lat="44.75373" lon="3.21172">
        <ele>1154.68</ele>
        <time>2016-02-25T08:40:26Z</time>
      </trkpt>
      <trkpt lat="44.75409" lon="3.21189">
        <ele>1155.16</ele>
        <time>2016-02-25T08:40:41Z</time>
      </trkpt>
      <trkpt lat="44.75415" lon="3.21197">
        <ele>1155.16</ele>
        <time>2016-02-25T08:40:44Z</time>
      </trkpt>
      <trkpt lat="44.75434" lon="3.21243">
        <ele>1153.24</ele>
        <time>2016-02-25T08:40:54Z</time>
      </trkpt>
      <trkpt lat="44.75436" lon="3.21249">
        <ele>1152.76</ele>
        <time>2016-02-25T08:40:55Z</time>
      </trkpt>
      <trkpt lat="44.75439" lon="3.21256">
        <ele>1152.76</ele>
        <time>2016-02-25T08:40:56Z</time>
      </trkpt>
      <trkpt lat="44.75446" lon="3.21268">
        <ele>1152.28</ele>
        <time>2016-02-25T08:40:58Z</time>
      </trkpt>
      <trkpt lat="44.75462" lon="3.21289">
        <ele>1151.8</ele>
        <time>2016-02-25T08:41:02Z</time>
      </trkpt>
      <trkpt lat="44.75466" lon="3.21294">
        <ele>1151.32</ele>
        <time>2016-02-25T08:41:03Z</time>
      </trkpt>
      <trkpt lat="44.75472" lon="3.21297">
        <ele>1151.32</ele>
        <time>2016-02-25T08:41:04Z</time>
      </trkpt>
      <trkpt lat="44.75477" lon="3.213">
        <ele>1151.32</ele>
        <time>2016-02-25T08:41:05Z</time>
      </trkpt>
      <trkpt lat="44.75482" lon="3.21302">
        <ele>1150.84</ele>
        <time>2016-02-25T08:41:06Z</time>
      </trkpt>
      <trkpt lat="44.75488" lon="3.21304">
        <ele>1150.84</ele>
        <time>2016-02-25T08:41:07Z</time>
      </trkpt>
      <trkpt lat="44.75494" lon="3.21305">
        <ele>1150.84</ele>
        <time>2016-02-25T08:41:08Z</time>
      </trkpt>
      <trkpt lat="44.75499" lon="3.21306">
        <ele>1150.84</ele>
        <time>2016-02-25T08:41:09Z</time>
      </trkpt>
      <trkpt lat="44.75563" lon="3.21314">
        <ele>1147.47</ele>
        <time>2016-02-25T08:41:22Z</time>
      </trkpt>
      <trkpt lat="44.75596" lon="3.21317">
        <ele>1149.39</ele>
        <time>2016-02-25T08:41:33Z</time>
      </trkpt>
      <trkpt lat="44.75596" lon="3.21316">
        <ele>1148.91</ele>
        <time>2016-02-25T08:41:43Z</time>
      </trkpt>
      <trkpt lat="44.75595" lon="3.21315">
        <ele>1148.91</ele>
        <time>2016-02-25T08:41:45Z</time>
      </trkpt>
      <trkpt lat="44.75577" lon="3.21314">
        <ele>1148.91</ele>
        <time>2016-02-25T08:41:54Z</time>
      </trkpt>
      <trkpt lat="44.75544" lon="3.21313">
        <ele>1149.87</ele>
        <time>2016-02-25T08:42:05Z</time>
      </trkpt>
      <trkpt lat="44.755" lon="3.21306">
        <ele>1150.84</ele>
        <time>2016-02-25T08:42:17Z</time>
      </trkpt>
      <trkpt lat="44.75493" lon="3.21304">
        <ele>1150.84</ele>
        <time>2016-02-25T08:42:20Z</time>
      </trkpt>
      <trkpt lat="44.75491" lon="3.21306">
        <ele>1150.84</ele>
        <time>2016-02-25T08:42:21Z</time>
      </trkpt>
      <trkpt lat="44.75491" lon="3.21308">
        <ele>1150.84</ele>
        <time>2016-02-25T08:42:22Z</time>
      </trkpt>
      <trkpt lat="44.75492" lon="3.21311">
        <ele>1150.35</ele>
        <time>2016-02-25T08:42:23Z</time>
      </trkpt>
      <trkpt lat="44.75494" lon="3.21312">
        <ele>1150.35</ele>
        <time>2016-02-25T08:42:24Z</time>
      </trkpt>
      <trkpt lat="44.75497" lon="3.21314">
        <ele>1149.87</ele>
        <time>2016-02-25T08:42:25Z</time>
      </trkpt>
      <trkpt lat="44.75501" lon="3.21314">
        <ele>1148.91</ele>
        <time>2016-02-25T08:42:26Z</time>
      </trkpt>
      <trkpt lat="44.75506" lon="3.21316">
        <ele>1148.43</ele>
        <time>2016-02-25T08:42:27Z</time>
      </trkpt>
      <trkpt lat="44.75516" lon="3.21319">
        <ele>1146.99</ele>
        <time>2016-02-25T08:42:29Z</time>
      </trkpt>
      <trkpt lat="44.75555" lon="3.21329">
        <ele>1143.63</ele>
        <time>2016-02-25T08:42:35Z</time>
      </trkpt>
      <trkpt lat="44.75583" lon="3.21334">
        <ele>1140.26</ele>
        <time>2016-02-25T08:42:39Z</time>
      </trkpt>
      <trkpt lat="44.75591" lon="3.21335">
        <ele>1140.26</ele>
        <time>2016-02-25T08:42:40Z</time>
      </trkpt>
      <trkpt lat="44.75598" lon="3.21336">
        <ele>1139.3</ele>
        <time>2016-02-25T08:42:41Z</time>
      </trkpt>
      <trkpt lat="44.75626" lon="3.21342">
        <ele>1138.34</ele>
        <time>2016-02-25T08:42:45Z</time>
      </trkpt>
      <trkpt lat="44.75633" lon="3.21342">
        <ele>1138.34</ele>
        <time>2016-02-25T08:42:46Z</time>
      </trkpt>
      <trkpt lat="44.75645" lon="3.21344">
        <ele>1137.86</ele>
        <time>2016-02-25T08:42:48Z</time>
      </trkpt>
      <trkpt lat="44.75659" lon="3.21351">
        <ele>1135.94</ele>
        <time>2016-02-25T08:42:50Z</time>
      </trkpt>
      <trkpt lat="44.75666" lon="3.21357">
        <ele>1135.45</ele>
        <time>2016-02-25T08:42:51Z</time>
      </trkpt>
      <trkpt lat="44.75672" lon="3.21364">
        <ele>1134.01</ele>
        <time>2016-02-25T08:42:52Z</time>
      </trkpt>
      <trkpt lat="44.75685" lon="3.21379">
        <ele>1132.09</ele>
        <time>2016-02-25T08:42:54Z</time>
      </trkpt>
      <trkpt lat="44.75709" lon="3.21402">
        <ele>1128.24</ele>
        <time>2016-02-25T08:42:57Z</time>
      </trkpt>
      <trkpt lat="44.75757" lon="3.21443">
        <ele>1126.32</ele>
        <time>2016-02-25T08:43:03Z</time>
      </trkpt>
      <trkpt lat="44.75763" lon="3.21452">
        <ele>1125.36</ele>
        <time>2016-02-25T08:43:04Z</time>
      </trkpt>
      <trkpt lat="44.75768" lon="3.2146">
        <ele>1125.84</ele>
        <time>2016-02-25T08:43:05Z</time>
      </trkpt>
      <trkpt lat="44.75772" lon="3.21469">
        <ele>1125.84</ele>
        <time>2016-02-25T08:43:06Z</time>
      </trkpt>
      <trkpt lat="44.75776" lon="3.21478">
        <ele>1125.36</ele>
        <time>2016-02-25T08:43:07Z</time>
      </trkpt>
      <trkpt lat="44.75779" lon="3.21488">
        <ele>1125.84</ele>
        <time>2016-02-25T08:43:08Z</time>
      </trkpt>
      <trkpt lat="44.7578" lon="3.21497">
        <ele>1125.84</ele>
        <time>2016-02-25T08:43:09Z</time>
      </trkpt>
      <trkpt lat="44.75781" lon="3.21505">
        <ele>1125.84</ele>
        <time>2016-02-25T08:43:10Z</time>
      </trkpt>
      <trkpt lat="44.75783" lon="3.21514">
        <ele>1125.84</ele>
        <time>2016-02-25T08:43:11Z</time>
      </trkpt>
      <trkpt lat="44.75787" lon="3.21534">
        <ele>1126.8</ele>
        <time>2016-02-25T08:43:14Z</time>
      </trkpt>
      <trkpt lat="44.75788" lon="3.2154">
        <ele>1126.8</ele>
        <time>2016-02-25T08:43:15Z</time>
      </trkpt>
      <trkpt lat="44.75789" lon="3.21545">
        <ele>1127.28</ele>
        <time>2016-02-25T08:43:16Z</time>
      </trkpt>
      <trkpt lat="44.7579" lon="3.2155">
        <ele>1127.76</ele>
        <time>2016-02-25T08:43:17Z</time>
      </trkpt>
      <trkpt lat="44.75791" lon="3.21554">
        <ele>1127.76</ele>
        <time>2016-02-25T08:43:18Z</time>
      </trkpt>
      <trkpt lat="44.75798" lon="3.21567">
        <ele>1128.73</ele>
        <time>2016-02-25T08:43:24Z</time>
      </trkpt>
      <trkpt lat="44.758" lon="3.21567">
        <ele>1129.21</ele>
        <time>2016-02-25T08:43:25Z</time>
      </trkpt>
      <trkpt lat="44.75802" lon="3.21567">
        <ele>1129.21</ele>
        <time>2016-02-25T08:43:26Z</time>
      </trkpt>
      <trkpt lat="44.75803" lon="3.21567">
        <ele>1129.21</ele>
        <time>2016-02-25T08:43:27Z</time>
      </trkpt>
      <trkpt lat="44.75805" lon="3.21567">
        <ele>1129.69</ele>
        <time>2016-02-25T08:43:28Z</time>
      </trkpt>
      <trkpt lat="44.75806" lon="3.21567">
        <ele>1129.69</ele>
        <time>2016-02-25T08:43:29Z</time>
      </trkpt>
      <trkpt lat="44.75808" lon="3.21568">
        <ele>1129.69</ele>
        <time>2016-02-25T08:43:30Z</time>
      </trkpt>
      <trkpt lat="44.75809" lon="3.21569">
        <ele>1129.69</ele>
        <time>2016-02-25T08:43:31Z</time>
      </trkpt>
      <trkpt lat="44.75825" lon="3.21575">
        <ele>1133.05</ele>
        <time>2016-02-25T08:43:43Z</time>
      </trkpt>
      <trkpt lat="44.75829" lon="3.21575">
        <ele>1133.05</ele>
        <time>2016-02-25T08:43:46Z</time>
      </trkpt>
      <trkpt lat="44.75831" lon="3.21576">
        <ele>1133.53</ele>
        <time>2016-02-25T08:43:47Z</time>
      </trkpt>
      <trkpt lat="44.75832" lon="3.21576">
        <ele>1133.53</ele>
        <time>2016-02-25T08:43:48Z</time>
      </trkpt>
      <trkpt lat="44.75833" lon="3.21577">
        <ele>1134.01</ele>
        <time>2016-02-25T08:43:49Z</time>
      </trkpt>
      <trkpt lat="44.75835" lon="3.21578">
        <ele>1134.01</ele>
        <time>2016-02-25T08:43:50Z</time>
      </trkpt>
      <trkpt lat="44.75837" lon="3.21578">
        <ele>1134.49</ele>
        <time>2016-02-25T08:43:51Z</time>
      </trkpt>
      <trkpt lat="44.75838" lon="3.21579">
        <ele>1134.49</ele>
        <time>2016-02-25T08:43:52Z</time>
      </trkpt>
      <trkpt lat="44.7584" lon="3.2158">
        <ele>1134.97</ele>
        <time>2016-02-25T08:43:53Z</time>
      </trkpt>
      <trkpt lat="44.75841" lon="3.21581">
        <ele>1134.97</ele>
        <time>2016-02-25T08:43:54Z</time>
      </trkpt>
      <trkpt lat="44.75859" lon="3.2159">
        <ele>1136.9</ele>
        <time>2016-02-25T08:44:07Z</time>
      </trkpt>
      <trkpt lat="44.75862" lon="3.21592">
        <ele>1136.9</ele>
        <time>2016-02-25T08:44:09Z</time>
      </trkpt>
      <trkpt lat="44.75863" lon="3.21593">
        <ele>1136.9</ele>
        <time>2016-02-25T08:44:10Z</time>
      </trkpt>
      <trkpt lat="44.75869" lon="3.21599">
        <ele>1137.86</ele>
        <time>2016-02-25T08:44:16Z</time>
      </trkpt>
      <trkpt lat="44.7587" lon="3.216">
        <ele>1137.86</ele>
        <time>2016-02-25T08:44:17Z</time>
      </trkpt>
      <trkpt lat="44.7587" lon="3.21602">
        <ele>1138.34</ele>
        <time>2016-02-25T08:44:18Z</time>
      </trkpt>
      <trkpt lat="44.75871" lon="3.21603">
        <ele>1138.34</ele>
        <time>2016-02-25T08:44:19Z</time>
      </trkpt>
      <trkpt lat="44.75872" lon="3.21605">
        <ele>1138.34</ele>
        <time>2016-02-25T08:44:20Z</time>
      </trkpt>
      <trkpt lat="44.75886" lon="3.21622">
        <ele>1141.7</ele>
        <time>2016-02-25T08:44:33Z</time>
      </trkpt>
      <trkpt lat="44.7589" lon="3.21628">
        <ele>1142.66</ele>
        <time>2016-02-25T08:44:37Z</time>
      </trkpt>
      <trkpt lat="44.75892" lon="3.2163">
        <ele>1143.14</ele>
        <time>2016-02-25T08:44:38Z</time>
      </trkpt>
      <trkpt lat="44.75893" lon="3.21631">
        <ele>1143.14</ele>
        <time>2016-02-25T08:44:39Z</time>
      </trkpt>
      <trkpt lat="44.75893" lon="3.21632">
        <ele>1143.63</ele>
        <time>2016-02-25T08:44:40Z</time>
      </trkpt>
      <trkpt lat="44.75895" lon="3.21634">
        <ele>1143.63</ele>
        <time>2016-02-25T08:44:41Z</time>
      </trkpt>
      <trkpt lat="44.75895" lon="3.21635">
        <ele>1143.63</ele>
        <time>2016-02-25T08:44:42Z</time>
      </trkpt>
      <trkpt lat="44.75896" lon="3.21637">
        <ele>1144.11</ele>
        <time>2016-02-25T08:44:43Z</time>
      </trkpt>
      <trkpt lat="44.75903" lon="3.21645">
        <ele>1145.55</ele>
        <time>2016-02-25T08:44:49Z</time>
      </trkpt>
      <trkpt lat="44.75917" lon="3.21668">
        <ele>1148.43</ele>
        <time>2016-02-25T08:45:05Z</time>
      </trkpt>
      <trkpt lat="44.75926" lon="3.21682">
        <ele>1150.84</ele>
        <time>2016-02-25T08:45:16Z</time>
      </trkpt>
      <trkpt lat="44.75937" lon="3.21701">
        <ele>1152.76</ele>
        <time>2016-02-25T08:45:29Z</time>
      </trkpt>
      <trkpt lat="44.75938" lon="3.21703">
        <ele>1153.24</ele>
        <time>2016-02-25T08:45:30Z</time>
      </trkpt>
      <trkpt lat="44.75939" lon="3.21704">
        <ele>1153.24</ele>
        <time>2016-02-25T08:45:31Z</time>
      </trkpt>
      <trkpt lat="44.7594" lon="3.21705">
        <ele>1153.24</ele>
        <time>2016-02-25T08:45:32Z</time>
      </trkpt>
      <trkpt lat="44.75941" lon="3.21707">
        <ele>1153.24</ele>
        <time>2016-02-25T08:45:33Z</time>
      </trkpt>
      <trkpt lat="44.7595" lon="3.21722">
        <ele>1155.16</ele>
        <time>2016-02-25T08:45:43Z</time>
      </trkpt>
      <trkpt lat="44.75951" lon="3.21723">
        <ele>1155.16</ele>
        <time>2016-02-25T08:45:44Z</time>
      </trkpt>
      <trkpt lat="44.75952" lon="3.21724">
        <ele>1155.16</ele>
        <time>2016-02-25T08:45:45Z</time>
      </trkpt>
      <trkpt lat="44.75953" lon="3.21726">
        <ele>1155.64</ele>
        <time>2016-02-25T08:45:46Z</time>
      </trkpt>
      <trkpt lat="44.75954" lon="3.21727">
        <ele>1155.64</ele>
        <time>2016-02-25T08:45:47Z</time>
      </trkpt>
      <trkpt lat="44.75955" lon="3.21729">
        <ele>1155.64</ele>
        <time>2016-02-25T08:45:48Z</time>
      </trkpt>
      <trkpt lat="44.75964" lon="3.21742">
        <ele>1157.56</ele>
        <time>2016-02-25T08:45:58Z</time>
      </trkpt>
      <trkpt lat="44.75965" lon="3.21744">
        <ele>1158.05</ele>
        <time>2016-02-25T08:46:00Z</time>
      </trkpt>
      <trkpt lat="44.75967" lon="3.21745">
        <ele>1158.53</ele>
        <time>2016-02-25T08:46:01Z</time>
      </trkpt>
      <trkpt lat="44.75968" lon="3.21746">
        <ele>1158.53</ele>
        <time>2016-02-25T08:46:02Z</time>
      </trkpt>
      <trkpt lat="44.75969" lon="3.21748">
        <ele>1158.53</ele>
        <time>2016-02-25T08:46:03Z</time>
      </trkpt>
      <trkpt lat="44.75969" lon="3.21749">
        <ele>1158.53</ele>
        <time>2016-02-25T08:46:04Z</time>
      </trkpt>
      <trkpt lat="44.7597" lon="3.2175">
        <ele>1159.01</ele>
        <time>2016-02-25T08:46:05Z</time>
      </trkpt>
      <trkpt lat="44.75971" lon="3.21751">
        <ele>1159.01</ele>
        <time>2016-02-25T08:46:06Z</time>
      </trkpt>
      <trkpt lat="44.75972" lon="3.21752">
        <ele>1159.49</ele>
        <time>2016-02-25T08:46:07Z</time>
      </trkpt>
      <trkpt lat="44.75973" lon="3.21754">
        <ele>1159.01</ele>
        <time>2016-02-25T08:46:08Z</time>
      </trkpt>
      <trkpt lat="44.75981" lon="3.21765">
        <ele>1160.93</ele>
        <time>2016-02-25T08:46:18Z</time>
      </trkpt>
      <trkpt lat="44.75982" lon="3.21766">
        <ele>1160.93</ele>
        <time>2016-02-25T08:46:19Z</time>
      </trkpt>
      <trkpt lat="44.75985" lon="3.2177">
        <ele>1161.41</ele>
        <time>2016-02-25T08:46:22Z</time>
      </trkpt>
      <trkpt lat="44.75986" lon="3.21771">
        <ele>1161.89</ele>
        <time>2016-02-25T08:46:23Z</time>
      </trkpt>
      <trkpt lat="44.75987" lon="3.21772">
        <ele>1161.89</ele>
        <time>2016-02-25T08:46:24Z</time>
      </trkpt>
      <trkpt lat="44.75988" lon="3.21773">
        <ele>1161.89</ele>
        <time>2016-02-25T08:46:25Z</time>
      </trkpt>
      <trkpt lat="44.75989" lon="3.21775">
        <ele>1162.37</ele>
        <time>2016-02-25T08:46:26Z</time>
      </trkpt>
      <trkpt lat="44.75989" lon="3.21777">
        <ele>1162.85</ele>
        <time>2016-02-25T08:46:27Z</time>
      </trkpt>
      <trkpt lat="44.7599" lon="3.21779">
        <ele>1162.85</ele>
        <time>2016-02-25T08:46:28Z</time>
      </trkpt>
      <trkpt lat="44.75991" lon="3.2178">
        <ele>1163.33</ele>
        <time>2016-02-25T08:46:29Z</time>
      </trkpt>
      <trkpt lat="44.75993" lon="3.21781">
        <ele>1163.33</ele>
        <time>2016-02-25T08:46:30Z</time>
      </trkpt>
      <trkpt lat="44.75994" lon="3.21782">
        <ele>1163.33</ele>
        <time>2016-02-25T08:46:31Z</time>
      </trkpt>
      <trkpt lat="44.75995" lon="3.21783">
        <ele>1163.81</ele>
        <time>2016-02-25T08:46:32Z</time>
      </trkpt>
      <trkpt lat="44.75996" lon="3.21784">
        <ele>1163.81</ele>
        <time>2016-02-25T08:46:33Z</time>
      </trkpt>
      <trkpt lat="44.76007" lon="3.21797">
        <ele>1165.26</ele>
        <time>2016-02-25T08:46:45Z</time>
      </trkpt>
      <trkpt lat="44.76016" lon="3.21813">
        <ele>1166.22</ele>
        <time>2016-02-25T08:46:54Z</time>
      </trkpt>
      <trkpt lat="44.76028" lon="3.21829">
        <ele>1166.7</ele>
        <time>2016-02-25T08:47:04Z</time>
      </trkpt>
      <trkpt lat="44.76037" lon="3.2184">
        <ele>1167.18</ele>
        <time>2016-02-25T08:47:10Z</time>
      </trkpt>
      <trkpt lat="44.76038" lon="3.21842">
        <ele>1167.66</ele>
        <time>2016-02-25T08:47:11Z</time>
      </trkpt>
      <trkpt lat="44.76039" lon="3.21844">
        <ele>1167.66</ele>
        <time>2016-02-25T08:47:12Z</time>
      </trkpt>
      <trkpt lat="44.7604" lon="3.21846">
        <ele>1167.66</ele>
        <time>2016-02-25T08:47:13Z</time>
      </trkpt>
      <trkpt lat="44.76041" lon="3.21847">
        <ele>1167.66</ele>
        <time>2016-02-25T08:47:14Z</time>
      </trkpt>
      <trkpt lat="44.76042" lon="3.21849">
        <ele>1167.66</ele>
        <time>2016-02-25T08:47:15Z</time>
      </trkpt>
      <trkpt lat="44.76043" lon="3.2185">
        <ele>1168.14</ele>
        <time>2016-02-25T08:47:16Z</time>
      </trkpt>
      <trkpt lat="44.76044" lon="3.21851">
        <ele>1168.14</ele>
        <time>2016-02-25T08:47:17Z</time>
      </trkpt>
      <trkpt lat="44.76046" lon="3.21853">
        <ele>1168.14</ele>
        <time>2016-02-25T08:47:18Z</time>
      </trkpt>
      <trkpt lat="44.76058" lon="3.21862">
        <ele>1169.1</ele>
        <time>2016-02-25T08:47:27Z</time>
      </trkpt>
      <trkpt lat="44.76068" lon="3.21872">
        <ele>1170.06</ele>
        <time>2016-02-25T08:47:35Z</time>
      </trkpt>
      <trkpt lat="44.76072" lon="3.21874">
        <ele>1171.02</ele>
        <time>2016-02-25T08:47:39Z</time>
      </trkpt>
      <trkpt lat="44.76084" lon="3.21879">
        <ele>1172.47</ele>
        <time>2016-02-25T08:47:46Z</time>
      </trkpt>
      <trkpt lat="44.76098" lon="3.21876">
        <ele>1173.43</ele>
        <time>2016-02-25T08:47:56Z</time>
      </trkpt>
      <trkpt lat="44.76113" lon="3.21886">
        <ele>1174.87</ele>
        <time>2016-02-25T08:48:07Z</time>
      </trkpt>
      <trkpt lat="44.7612" lon="3.21911">
        <ele>1175.83</ele>
        <time>2016-02-25T08:48:18Z</time>
      </trkpt>
      <trkpt lat="44.76125" lon="3.21916">
        <ele>1175.83</ele>
        <time>2016-02-25T08:48:26Z</time>
      </trkpt>
      <trkpt lat="44.76122" lon="3.21917">
        <ele>1176.31</ele>
        <time>2016-02-25T08:48:29Z</time>
      </trkpt>
      <trkpt lat="44.7612" lon="3.21925">
        <ele>1176.79</ele>
        <time>2016-02-25T08:48:35Z</time>
      </trkpt>
      <trkpt lat="44.7615" lon="3.21958">
        <ele>1177.27</ele>
        <time>2016-02-25T08:48:52Z</time>
      </trkpt>
      <trkpt lat="44.7617" lon="3.21993">
        <ele>1178.71</ele>
        <time>2016-02-25T08:49:04Z</time>
      </trkpt>
      <trkpt lat="44.76186" lon="3.2203">
        <ele>1179.19</ele>
        <time>2016-02-25T08:49:15Z</time>
      </trkpt>
      <trkpt lat="44.76227" lon="3.22085">
        <ele>1178.23</ele>
        <time>2016-02-25T08:49:30Z</time>
      </trkpt>
      <trkpt lat="44.76254" lon="3.22141">
        <ele>1178.71</ele>
        <time>2016-02-25T08:49:44Z</time>
      </trkpt>
      <trkpt lat="44.76271" lon="3.22183">
        <ele>1179.19</ele>
        <time>2016-02-25T08:49:57Z</time>
      </trkpt>
      <trkpt lat="44.76296" lon="3.22233">
        <ele>1177.75</ele>
        <time>2016-02-25T08:50:10Z</time>
      </trkpt>
      <trkpt lat="44.76327" lon="3.22293">
        <ele>1177.27</ele>
        <time>2016-02-25T08:50:24Z</time>
      </trkpt>
      <trkpt lat="44.76351" lon="3.22353">
        <ele>1178.23</ele>
        <time>2016-02-25T08:50:38Z</time>
      </trkpt>
      <trkpt lat="44.76353" lon="3.22357">
        <ele>1178.23</ele>
        <time>2016-02-25T08:50:40Z</time>
      </trkpt>
      <trkpt lat="44.76354" lon="3.22359">
        <ele>1178.71</ele>
        <time>2016-02-25T08:50:49Z</time>
      </trkpt>
      <trkpt lat="44.76354" lon="3.22359">
        <ele>1178.23</ele>
        <time>2016-02-25T08:51:12Z</time>
      </trkpt>
      <trkpt lat="44.76356" lon="3.2236">
        <ele>1178.23</ele>
        <time>2016-02-25T08:51:25Z</time>
      </trkpt>
      <trkpt lat="44.76356" lon="3.2236">
        <ele>1177.75</ele>
        <time>2016-02-25T08:51:54Z</time>
      </trkpt>
      <trkpt lat="44.76356" lon="3.22359">
        <ele>1177.75</ele>
        <time>2016-02-25T08:52:15Z</time>
      </trkpt>
      <trkpt lat="44.76356" lon="3.22359">
        <ele>1171.98</ele>
        <time>2016-02-25T08:52:26Z</time>
      </trkpt>
      <trkpt lat="44.76356" lon="3.22359">
        <ele>1182.08</ele>
        <time>2016-02-25T08:52:27Z</time>
      </trkpt>
      <trkpt lat="44.76356" lon="3.22359">
        <ele>1177.75</ele>
        <time>2016-02-25T08:52:28Z</time>
      </trkpt>
      <trkpt lat="44.76356" lon="3.22359">
        <ele>1177.27</ele>
        <time>2016-02-25T08:52:54Z</time>
      </trkpt>
      <trkpt lat="44.76356" lon="3.22359">
        <ele>1182.56</ele>
        <time>2016-02-25T08:53:09Z</time>
      </trkpt>
      <trkpt lat="44.76356" lon="3.22359">
        <ele>1177.27</ele>
        <time>2016-02-25T08:53:10Z</time>
      </trkpt>
      <trkpt lat="44.76358" lon="3.22362">
        <ele>1177.27</ele>
        <time>2016-02-25T08:53:15Z</time>
      </trkpt>
      <trkpt lat="44.76376" lon="3.22391">
        <ele>1177.27</ele>
        <time>2016-02-25T08:53:25Z</time>
      </trkpt>
      <trkpt lat="44.76395" lon="3.22425">
        <ele>1176.79</ele>
        <time>2016-02-25T08:53:35Z</time>
      </trkpt>
      <trkpt lat="44.76426" lon="3.22483">
        <ele>1175.83</ele>
        <time>2016-02-25T08:53:48Z</time>
      </trkpt>
      <trkpt lat="44.76432" lon="3.22494">
        <ele>1175.35</ele>
        <time>2016-02-25T08:53:51Z</time>
      </trkpt>
      <trkpt lat="44.76435" lon="3.22497">
        <ele>1175.83</ele>
        <time>2016-02-25T08:53:52Z</time>
      </trkpt>
      <trkpt lat="44.76437" lon="3.225">
        <ele>1175.35</ele>
        <time>2016-02-25T08:53:53Z</time>
      </trkpt>
      <trkpt lat="44.76439" lon="3.22503">
        <ele>1175.83</ele>
        <time>2016-02-25T08:53:54Z</time>
      </trkpt>
      <trkpt lat="44.76442" lon="3.22506">
        <ele>1175.35</ele>
        <time>2016-02-25T08:53:55Z</time>
      </trkpt>
      <trkpt lat="44.76444" lon="3.2251">
        <ele>1175.35</ele>
        <time>2016-02-25T08:53:56Z</time>
      </trkpt>
      <trkpt lat="44.76462" lon="3.22548">
        <ele>1174.87</ele>
        <time>2016-02-25T08:54:05Z</time>
      </trkpt>
      <trkpt lat="44.76485" lon="3.22582">
        <ele>1174.39</ele>
        <time>2016-02-25T08:54:14Z</time>
      </trkpt>
      <trkpt lat="44.76498" lon="3.22611">
        <ele>1174.87</ele>
        <time>2016-02-25T08:54:24Z</time>
      </trkpt>
      <trkpt lat="44.76513" lon="3.22628">
        <ele>1174.87</ele>
        <time>2016-02-25T08:54:31Z</time>
      </trkpt>
      <trkpt lat="44.76515" lon="3.2263">
        <ele>1174.87</ele>
        <time>2016-02-25T08:54:32Z</time>
      </trkpt>
      <trkpt lat="44.76522" lon="3.22636">
        <ele>1174.87</ele>
        <time>2016-02-25T08:54:36Z</time>
      </trkpt>
      <trkpt lat="44.76529" lon="3.22645">
        <ele>1174.87</ele>
        <time>2016-02-25T08:54:40Z</time>
      </trkpt>
      <trkpt lat="44.7653" lon="3.22648">
        <ele>1174.87</ele>
        <time>2016-02-25T08:54:41Z</time>
      </trkpt>
      <trkpt lat="44.76531" lon="3.2265">
        <ele>1174.87</ele>
        <time>2016-02-25T08:54:42Z</time>
      </trkpt>
      <trkpt lat="44.76533" lon="3.22653">
        <ele>1174.87</ele>
        <time>2016-02-25T08:54:43Z</time>
      </trkpt>
      <trkpt lat="44.76534" lon="3.22655">
        <ele>1174.39</ele>
        <time>2016-02-25T08:54:44Z</time>
      </trkpt>
      <trkpt lat="44.76536" lon="3.22657">
        <ele>1174.39</ele>
        <time>2016-02-25T08:54:45Z</time>
      </trkpt>
      <trkpt lat="44.76537" lon="3.22659">
        <ele>1174.39</ele>
        <time>2016-02-25T08:54:46Z</time>
      </trkpt>
      <trkpt lat="44.76538" lon="3.22662">
        <ele>1174.39</ele>
        <time>2016-02-25T08:54:47Z</time>
      </trkpt>
      <trkpt lat="44.76542" lon="3.22672">
        <ele>1174.39</ele>
        <time>2016-02-25T08:54:51Z</time>
      </trkpt>
      <trkpt lat="44.76544" lon="3.22674">
        <ele>1173.91</ele>
        <time>2016-02-25T08:54:52Z</time>
      </trkpt>
      <trkpt lat="44.76545" lon="3.22676">
        <ele>1173.91</ele>
        <time>2016-02-25T08:54:53Z</time>
      </trkpt>
      <trkpt lat="44.76546" lon="3.22678">
        <ele>1173.91</ele>
        <time>2016-02-25T08:54:54Z</time>
      </trkpt>
      <trkpt lat="44.76549" lon="3.22685">
        <ele>1169.58</ele>
        <time>2016-02-25T08:55:00Z</time>
      </trkpt>
      <trkpt lat="44.76549" lon="3.22685">
        <ele>1177.27</ele>
        <time>2016-02-25T08:55:01Z</time>
      </trkpt>
      <trkpt lat="44.76549" lon="3.22685">
        <ele>1172.47</ele>
        <time>2016-02-25T08:55:02Z</time>
      </trkpt>
      <trkpt lat="44.76549" lon="3.22685">
        <ele>1176.79</ele>
        <time>2016-02-25T08:55:04Z</time>
      </trkpt>
      <trkpt lat="44.76549" lon="3.22685">
        <ele>1173.91</ele>
        <time>2016-02-25T08:55:07Z</time>
      </trkpt>
      <trkpt lat="44.76549" lon="3.22685">
        <ele>1179.67</ele>
        <time>2016-02-25T08:55:09Z</time>
      </trkpt>
      <trkpt lat="44.76549" lon="3.22685">
        <ele>1172.47</ele>
        <time>2016-02-25T08:55:10Z</time>
      </trkpt>
      <trkpt lat="44.76549" lon="3.22685">
        <ele>1175.83</ele>
        <time>2016-02-25T08:55:11Z</time>
      </trkpt>
      <trkpt lat="44.76549" lon="3.22685">
        <ele>1172.95</ele>
        <time>2016-02-25T08:55:17Z</time>
      </trkpt>
      <trkpt lat="44.76549" lon="3.22685">
        <ele>1173.91</ele>
        <time>2016-02-25T08:55:22Z</time>
      </trkpt>
      <trkpt lat="44.7655" lon="3.22687">
        <ele>1173.91</ele>
        <time>2016-02-25T08:55:23Z</time>
      </trkpt>
      <trkpt lat="44.76552" lon="3.2269">
        <ele>1173.43</ele>
        <time>2016-02-25T08:55:24Z</time>
      </trkpt>
      <trkpt lat="44.76573" lon="3.22708">
        <ele>1172.95</ele>
        <time>2016-02-25T08:55:30Z</time>
      </trkpt>
      <trkpt lat="44.76577" lon="3.22712">
        <ele>1172.95</ele>
        <time>2016-02-25T08:55:31Z</time>
      </trkpt>
      <trkpt lat="44.76601" lon="3.22747">
        <ele>1172.47</ele>
        <time>2016-02-25T08:55:41Z</time>
      </trkpt>
      <trkpt lat="44.7662" lon="3.22775">
        <ele>1172.47</ele>
        <time>2016-02-25T08:55:51Z</time>
      </trkpt>
      <trkpt lat="44.76628" lon="3.22788">
        <ele>1171.98</ele>
        <time>2016-02-25T08:55:55Z</time>
      </trkpt>
      <trkpt lat="44.76643" lon="3.22816">
        <ele>1171.98</ele>
        <time>2016-02-25T08:56:06Z</time>
      </trkpt>
      <trkpt lat="44.76669" lon="3.22847">
        <ele>1170.54</ele>
        <time>2016-02-25T08:56:16Z</time>
      </trkpt>
      <trkpt lat="44.76695" lon="3.22875">
        <ele>1170.54</ele>
        <time>2016-02-25T08:56:25Z</time>
      </trkpt>
      <trkpt lat="44.76726" lon="3.22896">
        <ele>1169.1</ele>
        <time>2016-02-25T08:56:36Z</time>
      </trkpt>
      <trkpt lat="44.76732" lon="3.229">
        <ele>1168.14</ele>
        <time>2016-02-25T08:56:38Z</time>
      </trkpt>
      <trkpt lat="44.76736" lon="3.22904">
        <ele>1167.66</ele>
        <time>2016-02-25T08:56:39Z</time>
      </trkpt>
      <trkpt lat="44.76761" lon="3.22923">
        <ele>1164.29</ele>
        <time>2016-02-25T08:56:44Z</time>
      </trkpt>
      <trkpt lat="44.76773" lon="3.22932">
        <ele>1163.33</ele>
        <time>2016-02-25T08:56:46Z</time>
      </trkpt>
      <trkpt lat="44.76779" lon="3.22938">
        <ele>1161.89</ele>
        <time>2016-02-25T08:56:47Z</time>
      </trkpt>
      <trkpt lat="44.76785" lon="3.22945">
        <ele>1161.89</ele>
        <time>2016-02-25T08:56:48Z</time>
      </trkpt>
      <trkpt lat="44.76809" lon="3.22984">
        <ele>1158.53</ele>
        <time>2016-02-25T08:56:53Z</time>
      </trkpt>
      <trkpt lat="44.76814" lon="3.22993">
        <ele>1158.53</ele>
        <time>2016-02-25T08:56:54Z</time>
      </trkpt>
      <trkpt lat="44.76832" lon="3.23031">
        <ele>1158.05</ele>
        <time>2016-02-25T08:56:59Z</time>
      </trkpt>
      <trkpt lat="44.76857" lon="3.23095">
        <ele>1155.64</ele>
        <time>2016-02-25T08:57:08Z</time>
      </trkpt>
      <trkpt lat="44.7686" lon="3.23102">
        <ele>1155.16</ele>
        <time>2016-02-25T08:57:09Z</time>
      </trkpt>
      <trkpt lat="44.76862" lon="3.2311">
        <ele>1155.16</ele>
        <time>2016-02-25T08:57:10Z</time>
      </trkpt>
      <trkpt lat="44.76866" lon="3.23126">
        <ele>1154.68</ele>
        <time>2016-02-25T08:57:12Z</time>
      </trkpt>
      <trkpt lat="44.76866" lon="3.23135">
        <ele>1154.2</ele>
        <time>2016-02-25T08:57:13Z</time>
      </trkpt>
      <trkpt lat="44.76866" lon="3.23143">
        <ele>1154.68</ele>
        <time>2016-02-25T08:57:14Z</time>
      </trkpt>
      <trkpt lat="44.76866" lon="3.2315">
        <ele>1154.2</ele>
        <time>2016-02-25T08:57:15Z</time>
      </trkpt>
      <trkpt lat="44.76866" lon="3.23158">
        <ele>1153.72</ele>
        <time>2016-02-25T08:57:16Z</time>
      </trkpt>
      <trkpt lat="44.76868" lon="3.23166">
        <ele>1153.72</ele>
        <time>2016-02-25T08:57:17Z</time>
      </trkpt>
      <trkpt lat="44.7687" lon="3.23173">
        <ele>1152.76</ele>
        <time>2016-02-25T08:57:18Z</time>
      </trkpt>
      <trkpt lat="44.76873" lon="3.2318">
        <ele>1152.28</ele>
        <time>2016-02-25T08:57:19Z</time>
      </trkpt>
      <trkpt lat="44.76877" lon="3.23186">
        <ele>1151.32</ele>
        <time>2016-02-25T08:57:20Z</time>
      </trkpt>
      <trkpt lat="44.76894" lon="3.23216">
        <ele>1147.95</ele>
        <time>2016-02-25T08:57:24Z</time>
      </trkpt>
      <trkpt lat="44.76908" lon="3.23239">
        <ele>1145.55</ele>
        <time>2016-02-25T08:57:27Z</time>
      </trkpt>
      <trkpt lat="44.76919" lon="3.23252">
        <ele>1144.11</ele>
        <time>2016-02-25T08:57:29Z</time>
      </trkpt>
      <trkpt lat="44.76923" lon="3.23259">
        <ele>1143.14</ele>
        <time>2016-02-25T08:57:30Z</time>
      </trkpt>
      <trkpt lat="44.76926" lon="3.23266">
        <ele>1142.66</ele>
        <time>2016-02-25T08:57:31Z</time>
      </trkpt>
      <trkpt lat="44.76928" lon="3.23272">
        <ele>1142.18</ele>
        <time>2016-02-25T08:57:32Z</time>
      </trkpt>
      <trkpt lat="44.76928" lon="3.23278">
        <ele>1141.7</ele>
        <time>2016-02-25T08:57:33Z</time>
      </trkpt>
      <trkpt lat="44.76927" lon="3.23282">
        <ele>1141.7</ele>
        <time>2016-02-25T08:57:34Z</time>
      </trkpt>
      <trkpt lat="44.76926" lon="3.23286">
        <ele>1141.22</ele>
        <time>2016-02-25T08:57:35Z</time>
      </trkpt>
      <trkpt lat="44.76921" lon="3.23298">
        <ele>1138.82</ele>
        <time>2016-02-25T08:57:38Z</time>
      </trkpt>
      <trkpt lat="44.76917" lon="3.23302">
        <ele>1138.34</ele>
        <time>2016-02-25T08:57:39Z</time>
      </trkpt>
      <trkpt lat="44.76909" lon="3.23307">
        <ele>1137.38</ele>
        <time>2016-02-25T08:57:41Z</time>
      </trkpt>
      <trkpt lat="44.76904" lon="3.23311">
        <ele>1136.42</ele>
        <time>2016-02-25T08:57:42Z</time>
      </trkpt>
      <trkpt lat="44.769" lon="3.23316">
        <ele>1135.45</ele>
        <time>2016-02-25T08:57:43Z</time>
      </trkpt>
      <trkpt lat="44.76895" lon="3.23322">
        <ele>1134.49</ele>
        <time>2016-02-25T08:57:44Z</time>
      </trkpt>
      <trkpt lat="44.76889" lon="3.23326">
        <ele>1134.01</ele>
        <time>2016-02-25T08:57:45Z</time>
      </trkpt>
      <trkpt lat="44.76883" lon="3.23329">
        <ele>1133.53</ele>
        <time>2016-02-25T08:57:46Z</time>
      </trkpt>
      <trkpt lat="44.76877" lon="3.2333">
        <ele>1134.01</ele>
        <time>2016-02-25T08:57:47Z</time>
      </trkpt>
      <trkpt lat="44.76873" lon="3.2333">
        <ele>1134.01</ele>
        <time>2016-02-25T08:57:48Z</time>
      </trkpt>
      <trkpt lat="44.76868" lon="3.23331">
        <ele>1134.01</ele>
        <time>2016-02-25T08:57:49Z</time>
      </trkpt>
      <trkpt lat="44.76864" lon="3.23331">
        <ele>1134.49</ele>
        <time>2016-02-25T08:57:50Z</time>
      </trkpt>
      <trkpt lat="44.7686" lon="3.23333">
        <ele>1134.97</ele>
        <time>2016-02-25T08:57:51Z</time>
      </trkpt>
      <trkpt lat="44.76849" lon="3.2334">
        <ele>1135.45</ele>
        <time>2016-02-25T08:57:54Z</time>
      </trkpt>
      <trkpt lat="44.76847" lon="3.23343">
        <ele>1135.45</ele>
        <time>2016-02-25T08:57:55Z</time>
      </trkpt>
      <trkpt lat="44.76845" lon="3.23346">
        <ele>1135.45</ele>
        <time>2016-02-25T08:57:56Z</time>
      </trkpt>
      <trkpt lat="44.76843" lon="3.23348">
        <ele>1135.45</ele>
        <time>2016-02-25T08:57:57Z</time>
      </trkpt>
      <trkpt lat="44.7684" lon="3.23351">
        <ele>1134.97</ele>
        <time>2016-02-25T08:57:58Z</time>
      </trkpt>
      <trkpt lat="44.76837" lon="3.23355">
        <ele>1134.49</ele>
        <time>2016-02-25T08:57:59Z</time>
      </trkpt>
      <trkpt lat="44.7683" lon="3.23366">
        <ele>1133.05</ele>
        <time>2016-02-25T08:58:01Z</time>
      </trkpt>
      <trkpt lat="44.76826" lon="3.23372">
        <ele>1131.13</ele>
        <time>2016-02-25T08:58:02Z</time>
      </trkpt>
      <trkpt lat="44.76823" lon="3.23379">
        <ele>1130.17</ele>
        <time>2016-02-25T08:58:03Z</time>
      </trkpt>
      <trkpt lat="44.76822" lon="3.23387">
        <ele>1129.21</ele>
        <time>2016-02-25T08:58:04Z</time>
      </trkpt>
      <trkpt lat="44.76822" lon="3.23394">
        <ele>1128.73</ele>
        <time>2016-02-25T08:58:05Z</time>
      </trkpt>
      <trkpt lat="44.76823" lon="3.23401">
        <ele>1127.76</ele>
        <time>2016-02-25T08:58:06Z</time>
      </trkpt>
      <trkpt lat="44.76824" lon="3.23408">
        <ele>1126.8</ele>
        <time>2016-02-25T08:58:07Z</time>
      </trkpt>
      <trkpt lat="44.76825" lon="3.23414">
        <ele>1126.8</ele>
        <time>2016-02-25T08:58:08Z</time>
      </trkpt>
      <trkpt lat="44.76828" lon="3.23427">
        <ele>1125.84</ele>
        <time>2016-02-25T08:58:10Z</time>
      </trkpt>
      <trkpt lat="44.7683" lon="3.23435">
        <ele>1124.88</ele>
        <time>2016-02-25T08:58:11Z</time>
      </trkpt>
      <trkpt lat="44.76831" lon="3.23443">
        <ele>1124.4</ele>
        <time>2016-02-25T08:58:12Z</time>
      </trkpt>
      <trkpt lat="44.76834" lon="3.23451">
        <ele>1123.44</ele>
        <time>2016-02-25T08:58:13Z</time>
      </trkpt>
      <trkpt lat="44.76838" lon="3.23457">
        <ele>1122.96</ele>
        <time>2016-02-25T08:58:14Z</time>
      </trkpt>
      <trkpt lat="44.76842" lon="3.23463">
        <ele>1122.48</ele>
        <time>2016-02-25T08:58:15Z</time>
      </trkpt>
      <trkpt lat="44.76847" lon="3.23468">
        <ele>1122.48</ele>
        <time>2016-02-25T08:58:16Z</time>
      </trkpt>
      <trkpt lat="44.76869" lon="3.23487">
        <ele>1119.59</ele>
        <time>2016-02-25T08:58:20Z</time>
      </trkpt>
      <trkpt lat="44.76875" lon="3.23494">
        <ele>1118.63</ele>
        <time>2016-02-25T08:58:21Z</time>
      </trkpt>
      <trkpt lat="44.76886" lon="3.23507">
        <ele>1117.67</ele>
        <time>2016-02-25T08:58:23Z</time>
      </trkpt>
      <trkpt lat="44.76902" lon="3.23527">
        <ele>1115.75</ele>
        <time>2016-02-25T08:58:26Z</time>
      </trkpt>
      <trkpt lat="44.76909" lon="3.23531">
        <ele>1114.31</ele>
        <time>2016-02-25T08:58:27Z</time>
      </trkpt>
      <trkpt lat="44.76924" lon="3.23538">
        <ele>1113.82</ele>
        <time>2016-02-25T08:58:29Z</time>
      </trkpt>
      <trkpt lat="44.76965" lon="3.23552">
        <ele>1112.86</ele>
        <time>2016-02-25T08:58:35Z</time>
      </trkpt>
      <trkpt lat="44.76966" lon="3.23558">
        <ele>1112.38</ele>
        <time>2016-02-25T08:58:36Z</time>
      </trkpt>
      <trkpt lat="44.76965" lon="3.23564">
        <ele>1112.38</ele>
        <time>2016-02-25T08:58:37Z</time>
      </trkpt>
      <trkpt lat="44.76963" lon="3.23569">
        <ele>1112.38</ele>
        <time>2016-02-25T08:58:38Z</time>
      </trkpt>
      <trkpt lat="44.76961" lon="3.23575">
        <ele>1112.38</ele>
        <time>2016-02-25T08:58:39Z</time>
      </trkpt>
      <trkpt lat="44.76947" lon="3.23606">
        <ele>1112.86</ele>
        <time>2016-02-25T08:58:47Z</time>
      </trkpt>
      <trkpt lat="44.76946" lon="3.23609">
        <ele>1112.86</ele>
        <time>2016-02-25T08:58:48Z</time>
      </trkpt>
      <trkpt lat="44.76945" lon="3.2361">
        <ele>1112.86</ele>
        <time>2016-02-25T08:58:49Z</time>
      </trkpt>
      <trkpt lat="44.76944" lon="3.23615">
        <ele>1112.86</ele>
        <time>2016-02-25T08:58:52Z</time>
      </trkpt>
      <trkpt lat="44.76944" lon="3.23617">
        <ele>1112.86</ele>
        <time>2016-02-25T08:58:53Z</time>
      </trkpt>
      <trkpt lat="44.76943" lon="3.23619">
        <ele>1112.38</ele>
        <time>2016-02-25T08:58:54Z</time>
      </trkpt>
      <trkpt lat="44.76939" lon="3.23631">
        <ele>1111.42</ele>
        <time>2016-02-25T08:58:59Z</time>
      </trkpt>
      <trkpt lat="44.76939" lon="3.23633">
        <ele>1111.42</ele>
        <time>2016-02-25T08:59:00Z</time>
      </trkpt>
      <trkpt lat="44.76939" lon="3.23634">
        <ele>1111.42</ele>
        <time>2016-02-25T08:59:09Z</time>
      </trkpt>
      <trkpt lat="44.76939" lon="3.23634">
        <ele>1111.42</ele>
        <time>2016-02-25T08:59:40Z</time>
      </trkpt>
      <trkpt lat="44.76938" lon="3.2364">
        <ele>1110.94</ele>
        <time>2016-02-25T08:59:51Z</time>
      </trkpt>
      <trkpt lat="44.76936" lon="3.23643">
        <ele>1110.46</ele>
        <time>2016-02-25T08:59:52Z</time>
      </trkpt>
      <trkpt lat="44.76935" lon="3.23648">
        <ele>1110.46</ele>
        <time>2016-02-25T08:59:53Z</time>
      </trkpt>
      <trkpt lat="44.76934" lon="3.23654">
        <ele>1109.5</ele>
        <time>2016-02-25T08:59:54Z</time>
      </trkpt>
      <trkpt lat="44.76933" lon="3.2366">
        <ele>1109.02</ele>
        <time>2016-02-25T08:59:55Z</time>
      </trkpt>
      <trkpt lat="44.76932" lon="3.23667">
        <ele>1108.06</ele>
        <time>2016-02-25T08:59:56Z</time>
      </trkpt>
      <trkpt lat="44.76929" lon="3.23701">
        <ele>1104.69</ele>
        <time>2016-02-25T09:00:00Z</time>
      </trkpt>
      <trkpt lat="44.76928" lon="3.2371">
        <ele>1103.73</ele>
        <time>2016-02-25T09:00:01Z</time>
      </trkpt>
      <trkpt lat="44.76929" lon="3.23718">
        <ele>1102.77</ele>
        <time>2016-02-25T09:00:02Z</time>
      </trkpt>
      <trkpt lat="44.76931" lon="3.23726">
        <ele>1102.29</ele>
        <time>2016-02-25T09:00:03Z</time>
      </trkpt>
      <trkpt lat="44.76933" lon="3.23732">
        <ele>1101.81</ele>
        <time>2016-02-25T09:00:04Z</time>
      </trkpt>
      <trkpt lat="44.76937" lon="3.23739">
        <ele>1100.85</ele>
        <time>2016-02-25T09:00:05Z</time>
      </trkpt>
      <trkpt lat="44.76945" lon="3.23754">
        <ele>1097.48</ele>
        <time>2016-02-25T09:00:07Z</time>
      </trkpt>
      <trkpt lat="44.76963" lon="3.23774">
        <ele>1096.04</ele>
        <time>2016-02-25T09:00:10Z</time>
      </trkpt>
      <trkpt lat="44.76969" lon="3.2378">
        <ele>1096.04</ele>
        <time>2016-02-25T09:00:11Z</time>
      </trkpt>
      <trkpt lat="44.76975" lon="3.23787">
        <ele>1096.04</ele>
        <time>2016-02-25T09:00:12Z</time>
      </trkpt>
      <trkpt lat="44.76979" lon="3.23795">
        <ele>1095.56</ele>
        <time>2016-02-25T09:00:13Z</time>
      </trkpt>
      <trkpt lat="44.76982" lon="3.23804">
        <ele>1095.08</ele>
        <time>2016-02-25T09:00:14Z</time>
      </trkpt>
      <trkpt lat="44.76996" lon="3.2384">
        <ele>1094.12</ele>
        <time>2016-02-25T09:00:18Z</time>
      </trkpt>
      <trkpt lat="44.76999" lon="3.23848">
        <ele>1093.64</ele>
        <time>2016-02-25T09:00:19Z</time>
      </trkpt>
      <trkpt lat="44.77011" lon="3.23873">
        <ele>1093.64</ele>
        <time>2016-02-25T09:00:22Z</time>
      </trkpt>
      <trkpt lat="44.77013" lon="3.23881">
        <ele>1093.64</ele>
        <time>2016-02-25T09:00:23Z</time>
      </trkpt>
      <trkpt lat="44.77014" lon="3.2389">
        <ele>1093.64</ele>
        <time>2016-02-25T09:00:24Z</time>
      </trkpt>
      <trkpt lat="44.77013" lon="3.23899">
        <ele>1093.64</ele>
        <time>2016-02-25T09:00:25Z</time>
      </trkpt>
      <trkpt lat="44.77013" lon="3.23908">
        <ele>1093.64</ele>
        <time>2016-02-25T09:00:26Z</time>
      </trkpt>
      <trkpt lat="44.77019" lon="3.24018">
        <ele>1091.71</ele>
        <time>2016-02-25T09:00:38Z</time>
      </trkpt>
      <trkpt lat="44.77024" lon="3.24102">
        <ele>1092.2</ele>
        <time>2016-02-25T09:00:48Z</time>
      </trkpt>
      <trkpt lat="44.77032" lon="3.24155">
        <ele>1093.16</ele>
        <time>2016-02-25T09:00:57Z</time>
      </trkpt>
      <trkpt lat="44.77051" lon="3.2423">
        <ele>1094.6</ele>
        <time>2016-02-25T09:01:12Z</time>
      </trkpt>
      <trkpt lat="44.77055" lon="3.24262">
        <ele>1094.12</ele>
        <time>2016-02-25T09:01:18Z</time>
      </trkpt>
      <trkpt lat="44.77055" lon="3.24268">
        <ele>1093.64</ele>
        <time>2016-02-25T09:01:19Z</time>
      </trkpt>
      <trkpt lat="44.77057" lon="3.24279">
        <ele>1094.12</ele>
        <time>2016-02-25T09:01:21Z</time>
      </trkpt>
      <trkpt lat="44.77059" lon="3.24299">
        <ele>1092.2</ele>
        <time>2016-02-25T09:01:24Z</time>
      </trkpt>
      <trkpt lat="44.77059" lon="3.24306">
        <ele>1092.68</ele>
        <time>2016-02-25T09:01:25Z</time>
      </trkpt>
      <trkpt lat="44.77061" lon="3.2436">
        <ele>1089.79</ele>
        <time>2016-02-25T09:01:32Z</time>
      </trkpt>
      <trkpt lat="44.7706" lon="3.24397">
        <ele>1087.39</ele>
        <time>2016-02-25T09:01:36Z</time>
      </trkpt>
      <trkpt lat="44.77059" lon="3.24425">
        <ele>1086.91</ele>
        <time>2016-02-25T09:01:39Z</time>
      </trkpt>
      <trkpt lat="44.77059" lon="3.24451">
        <ele>1085.47</ele>
        <time>2016-02-25T09:01:42Z</time>
      </trkpt>
      <trkpt lat="44.77056" lon="3.24546">
        <ele>1083.54</ele>
        <time>2016-02-25T09:01:54Z</time>
      </trkpt>
      <trkpt lat="44.7705" lon="3.24584">
        <ele>1083.54</ele>
        <time>2016-02-25T09:02:01Z</time>
      </trkpt>
      <trkpt lat="44.7705" lon="3.24587">
        <ele>1083.54</ele>
        <time>2016-02-25T09:02:02Z</time>
      </trkpt>
      <trkpt lat="44.77039" lon="3.24631">
        <ele>1083.54</ele>
        <time>2016-02-25T09:02:11Z</time>
      </trkpt>
      <trkpt lat="44.77037" lon="3.24637">
        <ele>1083.54</ele>
        <time>2016-02-25T09:02:12Z</time>
      </trkpt>
      <trkpt lat="44.77025" lon="3.24662">
        <ele>1083.54</ele>
        <time>2016-02-25T09:02:17Z</time>
      </trkpt>
      <trkpt lat="44.77022" lon="3.24667">
        <ele>1083.54</ele>
        <time>2016-02-25T09:02:18Z</time>
      </trkpt>
      <trkpt lat="44.77019" lon="3.24672">
        <ele>1083.06</ele>
        <time>2016-02-25T09:02:19Z</time>
      </trkpt>
      <trkpt lat="44.77013" lon="3.24682">
        <ele>1083.54</ele>
        <time>2016-02-25T09:02:21Z</time>
      </trkpt>
      <trkpt lat="44.77011" lon="3.24687">
        <ele>1083.54</ele>
        <time>2016-02-25T09:02:22Z</time>
      </trkpt>
      <trkpt lat="44.77008" lon="3.24692">
        <ele>1083.54</ele>
        <time>2016-02-25T09:02:23Z</time>
      </trkpt>
      <trkpt lat="44.77005" lon="3.24697">
        <ele>1083.54</ele>
        <time>2016-02-25T09:02:24Z</time>
      </trkpt>
      <trkpt lat="44.77003" lon="3.24702">
        <ele>1083.54</ele>
        <time>2016-02-25T09:02:25Z</time>
      </trkpt>
      <trkpt lat="44.76982" lon="3.24752">
        <ele>1081.62</ele>
        <time>2016-02-25T09:02:35Z</time>
      </trkpt>
      <trkpt lat="44.76976" lon="3.24768">
        <ele>1080.66</ele>
        <time>2016-02-25T09:02:37Z</time>
      </trkpt>
      <trkpt lat="44.76974" lon="3.24775">
        <ele>1079.7</ele>
        <time>2016-02-25T09:02:38Z</time>
      </trkpt>
      <trkpt lat="44.76969" lon="3.24791">
        <ele>1079.22</ele>
        <time>2016-02-25T09:02:40Z</time>
      </trkpt>
      <trkpt lat="44.76963" lon="3.24806">
        <ele>1078.26</ele>
        <time>2016-02-25T09:02:42Z</time>
      </trkpt>
      <trkpt lat="44.76958" lon="3.24812">
        <ele>1077.78</ele>
        <time>2016-02-25T09:02:43Z</time>
      </trkpt>
      <trkpt lat="44.76952" lon="3.24816">
        <ele>1077.78</ele>
        <time>2016-02-25T09:02:44Z</time>
      </trkpt>
      <trkpt lat="44.76908" lon="3.24849">
        <ele>1077.29</ele>
        <time>2016-02-25T09:02:52Z</time>
      </trkpt>
      <trkpt lat="44.76904" lon="3.24853">
        <ele>1077.29</ele>
        <time>2016-02-25T09:02:53Z</time>
      </trkpt>
      <trkpt lat="44.769" lon="3.24858">
        <ele>1077.78</ele>
        <time>2016-02-25T09:02:54Z</time>
      </trkpt>
      <trkpt lat="44.76884" lon="3.24878">
        <ele>1076.81</ele>
        <time>2016-02-25T09:02:58Z</time>
      </trkpt>
      <trkpt lat="44.76881" lon="3.24884">
        <ele>1076.81</ele>
        <time>2016-02-25T09:02:59Z</time>
      </trkpt>
      <trkpt lat="44.76856" lon="3.24932">
        <ele>1075.37</ele>
        <time>2016-02-25T09:03:07Z</time>
      </trkpt>
      <trkpt lat="44.76837" lon="3.24975">
        <ele>1074.41</ele>
        <time>2016-02-25T09:03:14Z</time>
      </trkpt>
      <trkpt lat="44.76836" lon="3.24982">
        <ele>1074.41</ele>
        <time>2016-02-25T09:03:15Z</time>
      </trkpt>
      <trkpt lat="44.76835" lon="3.24988">
        <ele>1074.89</ele>
        <time>2016-02-25T09:03:16Z</time>
      </trkpt>
      <trkpt lat="44.76833" lon="3.24993">
        <ele>1074.89</ele>
        <time>2016-02-25T09:03:17Z</time>
      </trkpt>
      <trkpt lat="44.76832" lon="3.24998">
        <ele>1074.89</ele>
        <time>2016-02-25T09:03:18Z</time>
      </trkpt>
      <trkpt lat="44.76822" lon="3.2506">
        <ele>1075.85</ele>
        <time>2016-02-25T09:03:28Z</time>
      </trkpt>
      <trkpt lat="44.7682" lon="3.25103">
        <ele>1076.33</ele>
        <time>2016-02-25T09:03:37Z</time>
      </trkpt>
      <trkpt lat="44.76814" lon="3.25153">
        <ele>1074.89</ele>
        <time>2016-02-25T09:03:48Z</time>
      </trkpt>
      <trkpt lat="44.76816" lon="3.2518">
        <ele>1071.53</ele>
        <time>2016-02-25T09:03:57Z</time>
      </trkpt>
      <trkpt lat="44.76818" lon="3.25181">
        <ele>1071.53</ele>
        <time>2016-02-25T09:03:58Z</time>
      </trkpt>
      <trkpt lat="44.76819" lon="3.25182">
        <ele>1071.53</ele>
        <time>2016-02-25T09:03:59Z</time>
      </trkpt>
      <trkpt lat="44.76821" lon="3.25183">
        <ele>1071.53</ele>
        <time>2016-02-25T09:04:00Z</time>
      </trkpt>
      <trkpt lat="44.76824" lon="3.25185">
        <ele>1071.05</ele>
        <time>2016-02-25T09:04:01Z</time>
      </trkpt>
      <trkpt lat="44.76826" lon="3.25188">
        <ele>1071.05</ele>
        <time>2016-02-25T09:04:02Z</time>
      </trkpt>
      <trkpt lat="44.76829" lon="3.2519">
        <ele>1071.05</ele>
        <time>2016-02-25T09:04:03Z</time>
      </trkpt>
      <trkpt lat="44.76832" lon="3.25191">
        <ele>1070.57</ele>
        <time>2016-02-25T09:04:04Z</time>
      </trkpt>
      <trkpt lat="44.76835" lon="3.25193">
        <ele>1070.57</ele>
        <time>2016-02-25T09:04:05Z</time>
      </trkpt>
      <trkpt lat="44.76864" lon="3.25226">
        <ele>1070.08</ele>
        <time>2016-02-25T09:04:15Z</time>
      </trkpt>
      <trkpt lat="44.76887" lon="3.25294">
        <ele>1071.53</ele>
        <time>2016-02-25T09:04:30Z</time>
      </trkpt>
      <trkpt lat="44.76903" lon="3.25346">
        <ele>1072.97</ele>
        <time>2016-02-25T09:04:42Z</time>
      </trkpt>
      <trkpt lat="44.7691" lon="3.25399">
        <ele>1075.37</ele>
        <time>2016-02-25T09:04:55Z</time>
      </trkpt>
      <trkpt lat="44.7691" lon="3.25435">
        <ele>1077.78</ele>
        <time>2016-02-25T09:05:08Z</time>
      </trkpt>
      <trkpt lat="44.76926" lon="3.25473">
        <ele>1074.89</ele>
        <time>2016-02-25T09:05:19Z</time>
      </trkpt>
      <trkpt lat="44.76929" lon="3.25478">
        <ele>1074.41</ele>
        <time>2016-02-25T09:05:20Z</time>
      </trkpt>
      <trkpt lat="44.76938" lon="3.25494">
        <ele>1072.97</ele>
        <time>2016-02-25T09:05:23Z</time>
      </trkpt>
      <trkpt lat="44.76944" lon="3.25506">
        <ele>1070.08</ele>
        <time>2016-02-25T09:05:25Z</time>
      </trkpt>
      <trkpt lat="44.76949" lon="3.2551">
        <ele>1069.12</ele>
        <time>2016-02-25T09:05:26Z</time>
      </trkpt>
      <trkpt lat="44.76954" lon="3.25513">
        <ele>1068.16</ele>
        <time>2016-02-25T09:05:27Z</time>
      </trkpt>
      <trkpt lat="44.76958" lon="3.25515">
        <ele>1067.68</ele>
        <time>2016-02-25T09:05:28Z</time>
      </trkpt>
      <trkpt lat="44.76963" lon="3.25516">
        <ele>1067.2</ele>
        <time>2016-02-25T09:05:29Z</time>
      </trkpt>
      <trkpt lat="44.76969" lon="3.25518">
        <ele>1065.76</ele>
        <time>2016-02-25T09:05:31Z</time>
      </trkpt>
      <trkpt lat="44.76971" lon="3.25521">
        <ele>1065.76</ele>
        <time>2016-02-25T09:05:32Z</time>
      </trkpt>
      <trkpt lat="44.76971" lon="3.25524">
        <ele>1065.28</ele>
        <time>2016-02-25T09:05:33Z</time>
      </trkpt>
      <trkpt lat="44.7697" lon="3.25525">
        <ele>1065.76</ele>
        <time>2016-02-25T09:05:34Z</time>
      </trkpt>
      <trkpt lat="44.76969" lon="3.25527">
        <ele>1066.24</ele>
        <time>2016-02-25T09:05:35Z</time>
      </trkpt>
      <trkpt lat="44.76967" lon="3.25528">
        <ele>1066.24</ele>
        <time>2016-02-25T09:05:36Z</time>
      </trkpt>
      <trkpt lat="44.76965" lon="3.2553">
        <ele>1066.24</ele>
        <time>2016-02-25T09:05:37Z</time>
      </trkpt>
      <trkpt lat="44.76936" lon="3.25556">
        <ele>1068.16</ele>
        <time>2016-02-25T09:05:52Z</time>
      </trkpt>
      <trkpt lat="44.76914" lon="3.25579">
        <ele>1069.6</ele>
        <time>2016-02-25T09:06:02Z</time>
      </trkpt>
      <trkpt lat="44.76892" lon="3.25598">
        <ele>1071.53</ele>
        <time>2016-02-25T09:06:13Z</time>
      </trkpt>
      <trkpt lat="44.7689" lon="3.256">
        <ele>1071.53</ele>
        <time>2016-02-25T09:06:14Z</time>
      </trkpt>
      <trkpt lat="44.76889" lon="3.25602">
        <ele>1071.53</ele>
        <time>2016-02-25T09:06:15Z</time>
      </trkpt>
      <trkpt lat="44.76881" lon="3.25613">
        <ele>1072.97</ele>
        <time>2016-02-25T09:06:22Z</time>
      </trkpt>
      <trkpt lat="44.76879" lon="3.25613">
        <ele>1072.97</ele>
        <time>2016-02-25T09:06:23Z</time>
      </trkpt>
      <trkpt lat="44.76878" lon="3.25615">
        <ele>1072.97</ele>
        <time>2016-02-25T09:06:24Z</time>
      </trkpt>
      <trkpt lat="44.76877" lon="3.25617">
        <ele>1073.45</ele>
        <time>2016-02-25T09:06:25Z</time>
      </trkpt>
      <trkpt lat="44.76876" lon="3.25618">
        <ele>1073.45</ele>
        <time>2016-02-25T09:06:26Z</time>
      </trkpt>
      <trkpt lat="44.76874" lon="3.2562">
        <ele>1073.45</ele>
        <time>2016-02-25T09:06:27Z</time>
      </trkpt>
      <trkpt lat="44.76871" lon="3.25621">
        <ele>1073.93</ele>
        <time>2016-02-25T09:06:28Z</time>
      </trkpt>
      <trkpt lat="44.7687" lon="3.25623">
        <ele>1073.93</ele>
        <time>2016-02-25T09:06:29Z</time>
      </trkpt>
      <trkpt lat="44.7686" lon="3.2563">
        <ele>1074.89</ele>
        <time>2016-02-25T09:06:34Z</time>
      </trkpt>
      <trkpt lat="44.76858" lon="3.25632">
        <ele>1075.37</ele>
        <time>2016-02-25T09:06:35Z</time>
      </trkpt>
      <trkpt lat="44.76856" lon="3.25633">
        <ele>1074.89</ele>
        <time>2016-02-25T09:06:36Z</time>
      </trkpt>
      <trkpt lat="44.76837" lon="3.25645">
        <ele>1075.37</ele>
        <time>2016-02-25T09:06:46Z</time>
      </trkpt>
      <trkpt lat="44.76835" lon="3.25646">
        <ele>1075.85</ele>
        <time>2016-02-25T09:06:47Z</time>
      </trkpt>
      <trkpt lat="44.76833" lon="3.25647">
        <ele>1075.85</ele>
        <time>2016-02-25T09:06:48Z</time>
      </trkpt>
      <trkpt lat="44.76832" lon="3.25647">
        <ele>1075.85</ele>
        <time>2016-02-25T09:06:49Z</time>
      </trkpt>
      <trkpt lat="44.7683" lon="3.25648">
        <ele>1076.33</ele>
        <time>2016-02-25T09:06:50Z</time>
      </trkpt>
      <trkpt lat="44.76828" lon="3.25649">
        <ele>1076.33</ele>
        <time>2016-02-25T09:06:51Z</time>
      </trkpt>
      <trkpt lat="44.76813" lon="3.25658">
        <ele>1076.33</ele>
        <time>2016-02-25T09:06:59Z</time>
      </trkpt>
      <trkpt lat="44.76811" lon="3.25659">
        <ele>1076.33</ele>
        <time>2016-02-25T09:07:00Z</time>
      </trkpt>
      <trkpt lat="44.76808" lon="3.2566">
        <ele>1076.81</ele>
        <time>2016-02-25T09:07:09Z</time>
      </trkpt>
      <trkpt lat="44.76806" lon="3.25661">
        <ele>1076.81</ele>
        <time>2016-02-25T09:07:23Z</time>
      </trkpt>
      <trkpt lat="44.76782" lon="3.25673">
        <ele>1076.33</ele>
        <time>2016-02-25T09:07:36Z</time>
      </trkpt>
      <trkpt lat="44.76759" lon="3.25684">
        <ele>1076.81</ele>
        <time>2016-02-25T09:07:47Z</time>
      </trkpt>
      <trkpt lat="44.76726" lon="3.25701">
        <ele>1076.81</ele>
        <time>2016-02-25T09:08:01Z</time>
      </trkpt>
      <trkpt lat="44.76694" lon="3.25721">
        <ele>1077.78</ele>
        <time>2016-02-25T09:08:16Z</time>
      </trkpt>
      <trkpt lat="44.76674" lon="3.25745">
        <ele>1074.89</ele>
        <time>2016-02-25T09:08:23Z</time>
      </trkpt>
      <trkpt lat="44.76659" lon="3.25763">
        <ele>1071.05</ele>
        <time>2016-02-25T09:08:26Z</time>
      </trkpt>
      <trkpt lat="44.76642" lon="3.25783">
        <ele>1069.12</ele>
        <time>2016-02-25T09:08:29Z</time>
      </trkpt>
      <trkpt lat="44.76622" lon="3.25807">
        <ele>1067.2</ele>
        <time>2016-02-25T09:08:33Z</time>
      </trkpt>
      <trkpt lat="44.76583" lon="3.25843">
        <ele>1066.72</ele>
        <time>2016-02-25T09:08:44Z</time>
      </trkpt>
      <trkpt lat="44.7657" lon="3.2585">
        <ele>1066.72</ele>
        <time>2016-02-25T09:08:50Z</time>
      </trkpt>
      <trkpt lat="44.76567" lon="3.25853">
        <ele>1066.72</ele>
        <time>2016-02-25T09:08:51Z</time>
      </trkpt>
      <trkpt lat="44.76565" lon="3.25856">
        <ele>1066.24</ele>
        <time>2016-02-25T09:08:52Z</time>
      </trkpt>
      <trkpt lat="44.76562" lon="3.25859">
        <ele>1066.24</ele>
        <time>2016-02-25T09:08:53Z</time>
      </trkpt>
      <trkpt lat="44.7656" lon="3.25863">
        <ele>1066.24</ele>
        <time>2016-02-25T09:08:54Z</time>
      </trkpt>
      <trkpt lat="44.76558" lon="3.25867">
        <ele>1065.76</ele>
        <time>2016-02-25T09:08:55Z</time>
      </trkpt>
      <trkpt lat="44.76555" lon="3.2587">
        <ele>1065.76</ele>
        <time>2016-02-25T09:08:56Z</time>
      </trkpt>
      <trkpt lat="44.76553" lon="3.25874">
        <ele>1065.28</ele>
        <time>2016-02-25T09:08:57Z</time>
      </trkpt>
      <trkpt lat="44.76522" lon="3.25917">
        <ele>1064.32</ele>
        <time>2016-02-25T09:09:11Z</time>
      </trkpt>
      <trkpt lat="44.76522" lon="3.25919">
        <ele>1064.32</ele>
        <time>2016-02-25T09:09:12Z</time>
      </trkpt>
      <trkpt lat="44.7652" lon="3.25923">
        <ele>1064.32</ele>
        <time>2016-02-25T09:09:14Z</time>
      </trkpt>
      <trkpt lat="44.76518" lon="3.25928">
        <ele>1064.32</ele>
        <time>2016-02-25T09:09:16Z</time>
      </trkpt>
      <trkpt lat="44.76516" lon="3.25936">
        <ele>1064.32</ele>
        <time>2016-02-25T09:09:18Z</time>
      </trkpt>
      <trkpt lat="44.76515" lon="3.25938">
        <ele>1064.32</ele>
        <time>2016-02-25T09:09:19Z</time>
      </trkpt>
      <trkpt lat="44.76513" lon="3.25941">
        <ele>1064.32</ele>
        <time>2016-02-25T09:09:20Z</time>
      </trkpt>
      <trkpt lat="44.76493" lon="3.25975">
        <ele>1064.32</ele>
        <time>2016-02-25T09:09:31Z</time>
      </trkpt>
      <trkpt lat="44.7649" lon="3.25978">
        <ele>1064.32</ele>
        <time>2016-02-25T09:09:40Z</time>
      </trkpt>
      <trkpt lat="44.7649" lon="3.25978">
        <ele>1064.32</ele>
        <time>2016-02-25T09:10:03Z</time>
      </trkpt>
      <trkpt lat="44.76482" lon="3.25989">
        <ele>1063.36</ele>
        <time>2016-02-25T09:10:15Z</time>
      </trkpt>
      <trkpt lat="44.76462" lon="3.26021">
        <ele>1060.95</ele>
        <time>2016-02-25T09:10:23Z</time>
      </trkpt>
      <trkpt lat="44.76453" lon="3.26033">
        <ele>1059.99</ele>
        <time>2016-02-25T09:10:26Z</time>
      </trkpt>
      <trkpt lat="44.76451" lon="3.26036">
        <ele>1059.99</ele>
        <time>2016-02-25T09:10:27Z</time>
      </trkpt>
      <trkpt lat="44.76448" lon="3.26039">
        <ele>1059.99</ele>
        <time>2016-02-25T09:10:28Z</time>
      </trkpt>
      <trkpt lat="44.76446" lon="3.26042">
        <ele>1059.99</ele>
        <time>2016-02-25T09:10:29Z</time>
      </trkpt>
      <trkpt lat="44.76444" lon="3.26046">
        <ele>1059.51</ele>
        <time>2016-02-25T09:10:30Z</time>
      </trkpt>
      <trkpt lat="44.76441" lon="3.26049">
        <ele>1059.51</ele>
        <time>2016-02-25T09:10:31Z</time>
      </trkpt>
      <trkpt lat="44.76418" lon="3.26078">
        <ele>1058.07</ele>
        <time>2016-02-25T09:10:38Z</time>
      </trkpt>
      <trkpt lat="44.76413" lon="3.26081">
        <ele>1058.07</ele>
        <time>2016-02-25T09:10:39Z</time>
      </trkpt>
      <trkpt lat="44.76404" lon="3.26088">
        <ele>1057.11</ele>
        <time>2016-02-25T09:10:41Z</time>
      </trkpt>
      <trkpt lat="44.76401" lon="3.26092">
        <ele>1057.11</ele>
        <time>2016-02-25T09:10:42Z</time>
      </trkpt>
      <trkpt lat="44.76398" lon="3.26097">
        <ele>1057.11</ele>
        <time>2016-02-25T09:10:43Z</time>
      </trkpt>
      <trkpt lat="44.76387" lon="3.26109">
        <ele>1057.11</ele>
        <time>2016-02-25T09:10:46Z</time>
      </trkpt>
      <trkpt lat="44.76383" lon="3.26112">
        <ele>1056.63</ele>
        <time>2016-02-25T09:10:47Z</time>
      </trkpt>
      <trkpt lat="44.76358" lon="3.26132">
        <ele>1056.63</ele>
        <time>2016-02-25T09:10:54Z</time>
      </trkpt>
      <trkpt lat="44.76316" lon="3.26164">
        <ele>1055.67</ele>
        <time>2016-02-25T09:11:05Z</time>
      </trkpt>
      <trkpt lat="44.76313" lon="3.26168">
        <ele>1055.67</ele>
        <time>2016-02-25T09:11:06Z</time>
      </trkpt>
      <trkpt lat="44.76309" lon="3.26172">
        <ele>1055.67</ele>
        <time>2016-02-25T09:11:07Z</time>
      </trkpt>
      <trkpt lat="44.76269" lon="3.26216">
        <ele>1056.15</ele>
        <time>2016-02-25T09:11:20Z</time>
      </trkpt>
      <trkpt lat="44.76251" lon="3.26232">
        <ele>1055.67</ele>
        <time>2016-02-25T09:11:26Z</time>
      </trkpt>
      <trkpt lat="44.76231" lon="3.26251">
        <ele>1054.7</ele>
        <time>2016-02-25T09:11:32Z</time>
      </trkpt>
      <trkpt lat="44.76215" lon="3.26264">
        <ele>1054.7</ele>
        <time>2016-02-25T09:11:36Z</time>
      </trkpt>
      <trkpt lat="44.76212" lon="3.26268">
        <ele>1054.7</ele>
        <time>2016-02-25T09:11:37Z</time>
      </trkpt>
      <trkpt lat="44.76206" lon="3.26277">
        <ele>1054.22</ele>
        <time>2016-02-25T09:11:39Z</time>
      </trkpt>
      <trkpt lat="44.76181" lon="3.26334">
        <ele>1053.74</ele>
        <time>2016-02-25T09:11:51Z</time>
      </trkpt>
      <trkpt lat="44.7616" lon="3.26396">
        <ele>1052.78</ele>
        <time>2016-02-25T09:12:03Z</time>
      </trkpt>
      <trkpt lat="44.76156" lon="3.26408">
        <ele>1051.82</ele>
        <time>2016-02-25T09:12:05Z</time>
      </trkpt>
      <trkpt lat="44.76153" lon="3.26415">
        <ele>1051.34</ele>
        <time>2016-02-25T09:12:06Z</time>
      </trkpt>
      <trkpt lat="44.76147" lon="3.26427">
        <ele>1050.38</ele>
        <time>2016-02-25T09:12:08Z</time>
      </trkpt>
      <trkpt lat="44.7614" lon="3.2644">
        <ele>1049.42</ele>
        <time>2016-02-25T09:12:10Z</time>
      </trkpt>
      <trkpt lat="44.76123" lon="3.26471">
        <ele>1045.09</ele>
        <time>2016-02-25T09:12:14Z</time>
      </trkpt>
      <trkpt lat="44.76111" lon="3.26503">
        <ele>1041.73</ele>
        <time>2016-02-25T09:12:17Z</time>
      </trkpt>
      <trkpt lat="44.76106" lon="3.26514">
        <ele>1041.25</ele>
        <time>2016-02-25T09:12:18Z</time>
      </trkpt>
      <trkpt lat="44.761" lon="3.26524">
        <ele>1039.8</ele>
        <time>2016-02-25T09:12:19Z</time>
      </trkpt>
      <trkpt lat="44.76094" lon="3.26533">
        <ele>1039.32</ele>
        <time>2016-02-25T09:12:20Z</time>
      </trkpt>
      <trkpt lat="44.76088" lon="3.26541">
        <ele>1038.84</ele>
        <time>2016-02-25T09:12:21Z</time>
      </trkpt>
      <trkpt lat="44.76082" lon="3.2655">
        <ele>1038.84</ele>
        <time>2016-02-25T09:12:22Z</time>
      </trkpt>
      <trkpt lat="44.76036" lon="3.26619">
        <ele>1036.44</ele>
        <time>2016-02-25T09:12:30Z</time>
      </trkpt>
      <trkpt lat="44.76025" lon="3.26638">
        <ele>1035.96</ele>
        <time>2016-02-25T09:12:32Z</time>
      </trkpt>
      <trkpt lat="44.76021" lon="3.26647">
        <ele>1035.48</ele>
        <time>2016-02-25T09:12:33Z</time>
      </trkpt>
      <trkpt lat="44.76017" lon="3.26657">
        <ele>1035.48</ele>
        <time>2016-02-25T09:12:34Z</time>
      </trkpt>
      <trkpt lat="44.76013" lon="3.26666">
        <ele>1035</ele>
        <time>2016-02-25T09:12:35Z</time>
      </trkpt>
      <trkpt lat="44.76008" lon="3.26676">
        <ele>1034.04</ele>
        <time>2016-02-25T09:12:36Z</time>
      </trkpt>
      <trkpt lat="44.76002" lon="3.26684">
        <ele>1033.55</ele>
        <time>2016-02-25T09:12:37Z</time>
      </trkpt>
      <trkpt lat="44.75997" lon="3.2669">
        <ele>1033.07</ele>
        <time>2016-02-25T09:12:38Z</time>
      </trkpt>
      <trkpt lat="44.75991" lon="3.26695">
        <ele>1032.11</ele>
        <time>2016-02-25T09:12:39Z</time>
      </trkpt>
      <trkpt lat="44.75984" lon="3.267">
        <ele>1031.15</ele>
        <time>2016-02-25T09:12:40Z</time>
      </trkpt>
      <trkpt lat="44.7596" lon="3.26718">
        <ele>1029.23</ele>
        <time>2016-02-25T09:12:44Z</time>
      </trkpt>
      <trkpt lat="44.75949" lon="3.26726">
        <ele>1029.71</ele>
        <time>2016-02-25T09:12:51Z</time>
      </trkpt>
      <trkpt lat="44.75938" lon="3.26733">
        <ele>1028.75</ele>
        <time>2016-02-25T09:12:57Z</time>
      </trkpt>
      <trkpt lat="44.75936" lon="3.26734">
        <ele>1028.27</ele>
        <time>2016-02-25T09:12:58Z</time>
      </trkpt>
      <trkpt lat="44.75935" lon="3.26735">
        <ele>1028.75</ele>
        <time>2016-02-25T09:12:59Z</time>
      </trkpt>
      <trkpt lat="44.75929" lon="3.26739">
        <ele>1028.75</ele>
        <time>2016-02-25T09:13:09Z</time>
      </trkpt>
      <trkpt lat="44.75924" lon="3.26744">
        <ele>1028.75</ele>
        <time>2016-02-25T09:13:18Z</time>
      </trkpt>
      <trkpt lat="44.75919" lon="3.26747">
        <ele>1028.27</ele>
        <time>2016-02-25T09:13:32Z</time>
      </trkpt>
      <trkpt lat="44.75918" lon="3.26747">
        <ele>1028.27</ele>
        <time>2016-02-25T09:13:41Z</time>
      </trkpt>
      <trkpt lat="44.75916" lon="3.26747">
        <ele>1028.27</ele>
        <time>2016-02-25T09:13:42Z</time>
      </trkpt>
      <trkpt lat="44.75914" lon="3.26748">
        <ele>1027.79</ele>
        <time>2016-02-25T09:13:43Z</time>
      </trkpt>
      <trkpt lat="44.75912" lon="3.26748">
        <ele>1027.79</ele>
        <time>2016-02-25T09:13:44Z</time>
      </trkpt>
      <trkpt lat="44.7591" lon="3.26748">
        <ele>1027.79</ele>
        <time>2016-02-25T09:13:45Z</time>
      </trkpt>
      <trkpt lat="44.75907" lon="3.26747">
        <ele>1027.31</ele>
        <time>2016-02-25T09:13:46Z</time>
      </trkpt>
      <trkpt lat="44.75893" lon="3.26746">
        <ele>1025.38</ele>
        <time>2016-02-25T09:13:49Z</time>
      </trkpt>
      <trkpt lat="44.75888" lon="3.26746">
        <ele>1023.46</ele>
        <time>2016-02-25T09:13:50Z</time>
      </trkpt>
      <trkpt lat="44.75882" lon="3.26746">
        <ele>1022.5</ele>
        <time>2016-02-25T09:13:51Z</time>
      </trkpt>
      <trkpt lat="44.75876" lon="3.26747">
        <ele>1021.54</ele>
        <time>2016-02-25T09:13:52Z</time>
      </trkpt>
      <trkpt lat="44.75871" lon="3.26752">
        <ele>1020.58</ele>
        <time>2016-02-25T09:13:53Z</time>
      </trkpt>
      <trkpt lat="44.75867" lon="3.26757">
        <ele>1019.62</ele>
        <time>2016-02-25T09:13:54Z</time>
      </trkpt>
      <trkpt lat="44.75856" lon="3.26764">
        <ele>1020.1</ele>
        <time>2016-02-25T09:14:01Z</time>
      </trkpt>
      <trkpt lat="44.75849" lon="3.26763">
        <ele>1019.13</ele>
        <time>2016-02-25T09:14:03Z</time>
      </trkpt>
      <trkpt lat="44.75845" lon="3.26763">
        <ele>1018.17</ele>
        <time>2016-02-25T09:14:04Z</time>
      </trkpt>
      <trkpt lat="44.75832" lon="3.26764">
        <ele>1014.81</ele>
        <time>2016-02-25T09:14:06Z</time>
      </trkpt>
      <trkpt lat="44.75816" lon="3.26766">
        <ele>1010.96</ele>
        <time>2016-02-25T09:14:08Z</time>
      </trkpt>
      <trkpt lat="44.75799" lon="3.26769">
        <ele>1007.6</ele>
        <time>2016-02-25T09:14:10Z</time>
      </trkpt>
      <trkpt lat="44.75792" lon="3.26769">
        <ele>1007.12</ele>
        <time>2016-02-25T09:14:11Z</time>
      </trkpt>
      <trkpt lat="44.75786" lon="3.26768">
        <ele>1006.64</ele>
        <time>2016-02-25T09:14:12Z</time>
      </trkpt>
      <trkpt lat="44.75782" lon="3.26764">
        <ele>1005.2</ele>
        <time>2016-02-25T09:14:13Z</time>
      </trkpt>
      <trkpt lat="44.7578" lon="3.26759">
        <ele>1004.72</ele>
        <time>2016-02-25T09:14:14Z</time>
      </trkpt>
      <trkpt lat="44.75779" lon="3.26755">
        <ele>1004.72</ele>
        <time>2016-02-25T09:14:15Z</time>
      </trkpt>
      <trkpt lat="44.75777" lon="3.26751">
        <ele>1004.72</ele>
        <time>2016-02-25T09:14:16Z</time>
      </trkpt>
      <trkpt lat="44.75775" lon="3.26746">
        <ele>1004.23</ele>
        <time>2016-02-25T09:14:17Z</time>
      </trkpt>
      <trkpt lat="44.7577" lon="3.26745">
        <ele>1003.75</ele>
        <time>2016-02-25T09:14:18Z</time>
      </trkpt>
      <trkpt lat="44.75766" lon="3.26747">
        <ele>1002.31</ele>
        <time>2016-02-25T09:14:19Z</time>
      </trkpt>
      <trkpt lat="44.75761" lon="3.26752">
        <ele>1001.83</ele>
        <time>2016-02-25T09:14:20Z</time>
      </trkpt>
      <trkpt lat="44.75748" lon="3.26759">
        <ele>1000.39</ele>
        <time>2016-02-25T09:14:22Z</time>
      </trkpt>
      <trkpt lat="44.75741" lon="3.26756">
        <ele>999.43</ele>
        <time>2016-02-25T09:14:23Z</time>
      </trkpt>
      <trkpt lat="44.75736" lon="3.2675">
        <ele>998.47</ele>
        <time>2016-02-25T09:14:24Z</time>
      </trkpt>
      <trkpt lat="44.75731" lon="3.26743">
        <ele>998.47</ele>
        <time>2016-02-25T09:14:25Z</time>
      </trkpt>
      <trkpt lat="44.75726" lon="3.26739">
        <ele>997.02</ele>
        <time>2016-02-25T09:14:26Z</time>
      </trkpt>
      <trkpt lat="44.75722" lon="3.2674">
        <ele>997.51</ele>
        <time>2016-02-25T09:14:27Z</time>
      </trkpt>
      <trkpt lat="44.75718" lon="3.26744">
        <ele>997.02</ele>
        <time>2016-02-25T09:14:28Z</time>
      </trkpt>
      <trkpt lat="44.75715" lon="3.26749">
        <ele>997.02</ele>
        <time>2016-02-25T09:14:29Z</time>
      </trkpt>
      <trkpt lat="44.75713" lon="3.26755">
        <ele>997.02</ele>
        <time>2016-02-25T09:14:30Z</time>
      </trkpt>
      <trkpt lat="44.75711" lon="3.2676">
        <ele>997.02</ele>
        <time>2016-02-25T09:14:31Z</time>
      </trkpt>
      <trkpt lat="44.75709" lon="3.26766">
        <ele>997.51</ele>
        <time>2016-02-25T09:14:32Z</time>
      </trkpt>
      <trkpt lat="44.75707" lon="3.26771">
        <ele>997.51</ele>
        <time>2016-02-25T09:14:33Z</time>
      </trkpt>
      <trkpt lat="44.75705" lon="3.26776">
        <ele>997.99</ele>
        <time>2016-02-25T09:14:34Z</time>
      </trkpt>
      <trkpt lat="44.75704" lon="3.26781">
        <ele>998.47</ele>
        <time>2016-02-25T09:14:35Z</time>
      </trkpt>
      <trkpt lat="44.75702" lon="3.26785">
        <ele>998.47</ele>
        <time>2016-02-25T09:14:36Z</time>
      </trkpt>
      <trkpt lat="44.757" lon="3.26789">
        <ele>998.95</ele>
        <time>2016-02-25T09:14:37Z</time>
      </trkpt>
      <trkpt lat="44.75699" lon="3.26794">
        <ele>998.95</ele>
        <time>2016-02-25T09:14:38Z</time>
      </trkpt>
      <trkpt lat="44.75697" lon="3.26798">
        <ele>998.95</ele>
        <time>2016-02-25T09:14:39Z</time>
      </trkpt>
      <trkpt lat="44.75685" lon="3.2684">
        <ele>1000.87</ele>
        <time>2016-02-25T09:14:49Z</time>
      </trkpt>
      <trkpt lat="44.75687" lon="3.26873">
        <ele>1002.79</ele>
        <time>2016-02-25T09:14:59Z</time>
      </trkpt>
      <trkpt lat="44.75695" lon="3.26906">
        <ele>1006.16</ele>
        <time>2016-02-25T09:15:10Z</time>
      </trkpt>
      <trkpt lat="44.7571" lon="3.26954">
        <ele>1005.68</ele>
        <time>2016-02-25T09:15:23Z</time>
      </trkpt>
      <trkpt lat="44.75716" lon="3.27013">
        <ele>1005.68</ele>
        <time>2016-02-25T09:15:35Z</time>
      </trkpt>
      <trkpt lat="44.75702" lon="3.27051">
        <ele>1007.6</ele>
        <time>2016-02-25T09:15:49Z</time>
      </trkpt>
      <trkpt lat="44.75701" lon="3.27055">
        <ele>1008.56</ele>
        <time>2016-02-25T09:16:00Z</time>
      </trkpt>
      <trkpt lat="44.75698" lon="3.27068">
        <ele>1009.52</ele>
        <time>2016-02-25T09:16:06Z</time>
      </trkpt>
      <trkpt lat="44.75697" lon="3.27071">
        <ele>1010</ele>
        <time>2016-02-25T09:16:07Z</time>
      </trkpt>
      <trkpt lat="44.75697" lon="3.27073">
        <ele>1010</ele>
        <time>2016-02-25T09:16:08Z</time>
      </trkpt>
      <trkpt lat="44.75697" lon="3.27075">
        <ele>1010</ele>
        <time>2016-02-25T09:16:09Z</time>
      </trkpt>
      <trkpt lat="44.75697" lon="3.27078">
        <ele>1010.48</ele>
        <time>2016-02-25T09:16:10Z</time>
      </trkpt>
      <trkpt lat="44.75697" lon="3.2708">
        <ele>1010.48</ele>
        <time>2016-02-25T09:16:11Z</time>
      </trkpt>
      <trkpt lat="44.75696" lon="3.27082">
        <ele>1010.48</ele>
        <time>2016-02-25T09:16:12Z</time>
      </trkpt>
      <trkpt lat="44.75694" lon="3.27093">
        <ele>1011.44</ele>
        <time>2016-02-25T09:16:17Z</time>
      </trkpt>
      <trkpt lat="44.75694" lon="3.27095">
        <ele>1011.44</ele>
        <time>2016-02-25T09:16:18Z</time>
      </trkpt>
      <trkpt lat="44.75693" lon="3.27096">
        <ele>1010.96</ele>
        <time>2016-02-25T09:16:19Z</time>
      </trkpt>
      <trkpt lat="44.75693" lon="3.27099">
        <ele>1011.44</ele>
        <time>2016-02-25T09:16:20Z</time>
      </trkpt>
      <trkpt lat="44.75693" lon="3.27101">
        <ele>1011.44</ele>
        <time>2016-02-25T09:16:21Z</time>
      </trkpt>
      <trkpt lat="44.75692" lon="3.27103">
        <ele>1011.44</ele>
        <time>2016-02-25T09:16:22Z</time>
      </trkpt>
      <trkpt lat="44.75692" lon="3.27105">
        <ele>1011.44</ele>
        <time>2016-02-25T09:16:23Z</time>
      </trkpt>
      <trkpt lat="44.75692" lon="3.27108">
        <ele>1011.44</ele>
        <time>2016-02-25T09:16:24Z</time>
      </trkpt>
      <trkpt lat="44.75692" lon="3.2711">
        <ele>1011.44</ele>
        <time>2016-02-25T09:16:25Z</time>
      </trkpt>
      <trkpt lat="44.75692" lon="3.27112">
        <ele>1011.44</ele>
        <time>2016-02-25T09:16:26Z</time>
      </trkpt>
      <trkpt lat="44.75692" lon="3.27115">
        <ele>1011.44</ele>
        <time>2016-02-25T09:16:27Z</time>
      </trkpt>
      <trkpt lat="44.75692" lon="3.27118">
        <ele>1011.44</ele>
        <time>2016-02-25T09:16:28Z</time>
      </trkpt>
      <trkpt lat="44.75692" lon="3.27121">
        <ele>1011.44</ele>
        <time>2016-02-25T09:16:29Z</time>
      </trkpt>
      <trkpt lat="44.75692" lon="3.27124">
        <ele>1011.44</ele>
        <time>2016-02-25T09:16:30Z</time>
      </trkpt>
      <trkpt lat="44.75691" lon="3.27127">
        <ele>1011.44</ele>
        <time>2016-02-25T09:16:31Z</time>
      </trkpt>
      <trkpt lat="44.75691" lon="3.27131">
        <ele>1011.44</ele>
        <time>2016-02-25T09:16:32Z</time>
      </trkpt>
      <trkpt lat="44.75691" lon="3.27134">
        <ele>1011.93</ele>
        <time>2016-02-25T09:16:33Z</time>
      </trkpt>
      <trkpt lat="44.75685" lon="3.27175">
        <ele>1012.89</ele>
        <time>2016-02-25T09:16:45Z</time>
      </trkpt>
      <trkpt lat="44.75672" lon="3.27224">
        <ele>1014.81</ele>
        <time>2016-02-25T09:17:01Z</time>
      </trkpt>
      <trkpt lat="44.75659" lon="3.27263">
        <ele>1015.29</ele>
        <time>2016-02-25T09:17:14Z</time>
      </trkpt>
      <trkpt lat="44.75651" lon="3.27284">
        <ele>1018.65</ele>
        <time>2016-02-25T09:17:20Z</time>
      </trkpt>
      <trkpt lat="44.75649" lon="3.2729">
        <ele>1015.29</ele>
        <time>2016-02-25T09:17:22Z</time>
      </trkpt>
      <trkpt lat="44.75634" lon="3.27341">
        <ele>1014.81</ele>
        <time>2016-02-25T09:17:36Z</time>
      </trkpt>
      <trkpt lat="44.75621" lon="3.27397">
        <ele>1015.29</ele>
        <time>2016-02-25T09:17:51Z</time>
      </trkpt>
      <trkpt lat="44.75613" lon="3.27445">
        <ele>1016.73</ele>
        <time>2016-02-25T09:18:05Z</time>
      </trkpt>
      <trkpt lat="44.75604" lon="3.27478">
        <ele>1018.17</ele>
        <time>2016-02-25T09:18:18Z</time>
      </trkpt>
      <trkpt lat="44.75604" lon="3.27484">
        <ele>1018.65</ele>
        <time>2016-02-25T09:18:20Z</time>
      </trkpt>
      <trkpt lat="44.756" lon="3.27529">
        <ele>1020.1</ele>
        <time>2016-02-25T09:18:34Z</time>
      </trkpt>
      <trkpt lat="44.7559" lon="3.2756">
        <ele>1021.54</ele>
        <time>2016-02-25T09:18:46Z</time>
      </trkpt>
      <trkpt lat="44.75575" lon="3.27597">
        <ele>1020.58</ele>
        <time>2016-02-25T09:18:59Z</time>
      </trkpt>
      <trkpt lat="44.75564" lon="3.27638">
        <ele>1019.13</ele>
        <time>2016-02-25T09:19:13Z</time>
      </trkpt>
      <trkpt lat="44.75552" lon="3.2767">
        <ele>1015.77</ele>
        <time>2016-02-25T09:19:23Z</time>
      </trkpt>
      <trkpt lat="44.75551" lon="3.27674">
        <ele>1014.81</ele>
        <time>2016-02-25T09:19:32Z</time>
      </trkpt>
      <trkpt lat="44.7555" lon="3.27675">
        <ele>1014.81</ele>
        <time>2016-02-25T09:19:55Z</time>
      </trkpt>
      <trkpt lat="44.75549" lon="3.27679">
        <ele>1013.85</ele>
        <time>2016-02-25T09:20:12Z</time>
      </trkpt>
      <trkpt lat="44.75548" lon="3.27681">
        <ele>1013.37</ele>
        <time>2016-02-25T09:20:24Z</time>
      </trkpt>
      <trkpt lat="44.75547" lon="3.2768">
        <ele>1013.37</ele>
        <time>2016-02-25T09:20:55Z</time>
      </trkpt>
      <trkpt lat="44.75547" lon="3.2768">
        <ele>1013.37</ele>
        <time>2016-02-25T09:20:57Z</time>
      </trkpt>
      <trkpt lat="44.75526" lon="3.27701">
        <ele>1011.93</ele>
        <time>2016-02-25T09:21:10Z</time>
      </trkpt>
      <trkpt lat="44.75519" lon="3.27727">
        <ele>1008.56</ele>
        <time>2016-02-25T09:21:20Z</time>
      </trkpt>
      <trkpt lat="44.75518" lon="3.2773">
        <ele>1007.6</ele>
        <time>2016-02-25T09:21:32Z</time>
      </trkpt>
      <trkpt lat="44.75511" lon="3.27748">
        <ele>1006.64</ele>
        <time>2016-02-25T09:21:42Z</time>
      </trkpt>
      <trkpt lat="44.75514" lon="3.27751">
        <ele>1006.64</ele>
        <time>2016-02-25T09:21:46Z</time>
      </trkpt>
      <trkpt lat="44.75521" lon="3.27738">
        <ele>1008.08</ele>
        <time>2016-02-25T09:21:59Z</time>
      </trkpt>
      <trkpt lat="44.75521" lon="3.27738">
        <ele>1008.56</ele>
        <time>2016-02-25T09:22:00Z</time>
      </trkpt>
      <trkpt lat="44.75524" lon="3.2774">
        <ele>1009.52</ele>
        <time>2016-02-25T09:22:09Z</time>
      </trkpt>
      <trkpt lat="44.75523" lon="3.27743">
        <ele>1009.52</ele>
        <time>2016-02-25T09:22:19Z</time>
      </trkpt>
      <trkpt lat="44.75523" lon="3.27743">
        <ele>1005.68</ele>
        <time>2016-02-25T09:22:29Z</time>
      </trkpt>
      <trkpt lat="44.75523" lon="3.27743">
        <ele>1011.93</ele>
        <time>2016-02-25T09:22:30Z</time>
      </trkpt>
      <trkpt lat="44.75523" lon="3.27744">
        <ele>1009.04</ele>
        <time>2016-02-25T09:22:34Z</time>
      </trkpt>
      <trkpt lat="44.75524" lon="3.27754">
        <ele>1009.04</ele>
        <time>2016-02-25T09:22:40Z</time>
      </trkpt>
      <trkpt lat="44.75522" lon="3.27766">
        <ele>1008.56</ele>
        <time>2016-02-25T09:22:47Z</time>
      </trkpt>
      <trkpt lat="44.75524" lon="3.27778">
        <ele>1007.6</ele>
        <time>2016-02-25T09:22:57Z</time>
      </trkpt>
      <trkpt lat="44.75524" lon="3.27778">
        <ele>1007.6</ele>
        <time>2016-02-25T09:23:03Z</time>
      </trkpt>
      <trkpt lat="44.7553" lon="3.27791">
        <ele>1009.04</ele>
        <time>2016-02-25T09:23:15Z</time>
      </trkpt>
      <trkpt lat="44.75531" lon="3.27798">
        <ele>1008.56</ele>
        <time>2016-02-25T09:23:30Z</time>
      </trkpt>
      <trkpt lat="44.75534" lon="3.278">
        <ele>1010</ele>
        <time>2016-02-25T09:23:43Z</time>
      </trkpt>
      <trkpt lat="44.7554" lon="3.278">
        <ele>1012.89</ele>
        <time>2016-02-25T09:23:56Z</time>
      </trkpt>
      <trkpt lat="44.75541" lon="3.278">
        <ele>1013.37</ele>
        <time>2016-02-25T09:24:11Z</time>
      </trkpt>
      <trkpt lat="44.75542" lon="3.27793">
        <ele>1013.85</ele>
        <time>2016-02-25T09:24:26Z</time>
      </trkpt>
      <trkpt lat="44.75543" lon="3.27787">
        <ele>1014.33</ele>
        <time>2016-02-25T09:24:38Z</time>
      </trkpt>
      <trkpt lat="44.75543" lon="3.27787">
        <ele>1013.85</ele>
        <time>2016-02-25T09:24:53Z</time>
      </trkpt>
      <trkpt lat="44.75543" lon="3.27787">
        <ele>1013.85</ele>
        <time>2016-02-25T09:25:20Z</time>
      </trkpt>
      <trkpt lat="44.75543" lon="3.27788">
        <ele>1014.33</ele>
        <time>2016-02-25T09:25:34Z</time>
      </trkpt>
      <trkpt lat="44.75547" lon="3.27791">
        <ele>1014.81</ele>
        <time>2016-02-25T09:25:52Z</time>
      </trkpt>
      <trkpt lat="44.75554" lon="3.27803">
        <ele>1015.29</ele>
        <time>2016-02-25T09:26:03Z</time>
      </trkpt>
      <trkpt lat="44.75558" lon="3.27806">
        <ele>1016.25</ele>
        <time>2016-02-25T09:26:12Z</time>
      </trkpt>
      <trkpt lat="44.75558" lon="3.27809">
        <ele>1015.77</ele>
        <time>2016-02-25T09:26:17Z</time>
      </trkpt>
      <trkpt lat="44.75558" lon="3.27809">
        <ele>1015.29</ele>
        <time>2016-02-25T09:26:42Z</time>
      </trkpt>
      <trkpt lat="44.75558" lon="3.27808">
        <ele>1015.77</ele>
        <time>2016-02-25T09:27:06Z</time>
      </trkpt>
      <trkpt lat="44.75558" lon="3.27808">
        <ele>1016.73</ele>
        <time>2016-02-25T09:27:26Z</time>
      </trkpt>
      <trkpt lat="44.75556" lon="3.27809">
        <ele>1016.25</ele>
        <time>2016-02-25T09:27:33Z</time>
      </trkpt>
      <trkpt lat="44.75549" lon="3.27814">
        <ele>1013.85</ele>
        <time>2016-02-25T09:27:37Z</time>
      </trkpt>
      <trkpt lat="44.75543" lon="3.27819">
        <ele>1012.41</ele>
        <time>2016-02-25T09:27:40Z</time>
      </trkpt>
      <trkpt lat="44.75537" lon="3.27827">
        <ele>1010.48</ele>
        <time>2016-02-25T09:27:46Z</time>
      </trkpt>
      <trkpt lat="44.75532" lon="3.27831">
        <ele>1008.56</ele>
        <time>2016-02-25T09:27:50Z</time>
      </trkpt>
      <trkpt lat="44.75531" lon="3.27835">
        <ele>1008.08</ele>
        <time>2016-02-25T09:28:02Z</time>
      </trkpt>
      <trkpt lat="44.75531" lon="3.27835">
        <ele>1008.08</ele>
        <time>2016-02-25T09:28:18Z</time>
      </trkpt>
      <trkpt lat="44.7553" lon="3.27835">
        <ele>1008.08</ele>
        <time>2016-02-25T09:28:33Z</time>
      </trkpt>
      <trkpt lat="44.7553" lon="3.27835">
        <ele>1008.08</ele>
        <time>2016-02-25T09:28:47Z</time>
      </trkpt>
      <trkpt lat="44.7553" lon="3.27834">
        <ele>1007.6</ele>
        <time>2016-02-25T09:28:54Z</time>
      </trkpt>
      <trkpt lat="44.75524" lon="3.27826">
        <ele>1007.6</ele>
        <time>2016-02-25T09:29:07Z</time>
      </trkpt>
      <trkpt lat="44.75524" lon="3.27826">
        <ele>1007.6</ele>
        <time>2016-02-25T09:29:21Z</time>
      </trkpt>
      <trkpt lat="44.75524" lon="3.27826">
        <ele>1007.6</ele>
        <time>2016-02-25T09:29:22Z</time>
      </trkpt>
      <trkpt lat="44.75524" lon="3.27828">
        <ele>1007.12</ele>
        <time>2016-02-25T09:29:32Z</time>
      </trkpt>
      <trkpt lat="44.75521" lon="3.27838">
        <ele>1005.2</ele>
        <time>2016-02-25T09:29:42Z</time>
      </trkpt>
      <trkpt lat="44.75519" lon="3.27855">
        <ele>1003.27</ele>
        <time>2016-02-25T09:29:51Z</time>
      </trkpt>
      <trkpt lat="44.75518" lon="3.27883">
        <ele>999.91</ele>
        <time>2016-02-25T09:29:57Z</time>
      </trkpt>
      <trkpt lat="44.75517" lon="3.2789">
        <ele>999.43</ele>
        <time>2016-02-25T09:29:58Z</time>
      </trkpt>
      <trkpt lat="44.75516" lon="3.27901">
        <ele>998.95</ele>
        <time>2016-02-25T09:29:59Z</time>
      </trkpt>
      <trkpt lat="44.75513" lon="3.27911">
        <ele>998.47</ele>
        <time>2016-02-25T09:30:00Z</time>
      </trkpt>
      <trkpt lat="44.75511" lon="3.2792">
        <ele>997.51</ele>
        <time>2016-02-25T09:30:01Z</time>
      </trkpt>
      <trkpt lat="44.75509" lon="3.27929">
        <ele>996.54</ele>
        <time>2016-02-25T09:30:02Z</time>
      </trkpt>
      <trkpt lat="44.75508" lon="3.27938">
        <ele>995.58</ele>
        <time>2016-02-25T09:30:03Z</time>
      </trkpt>
      <trkpt lat="44.75508" lon="3.27947">
        <ele>995.1</ele>
        <time>2016-02-25T09:30:04Z</time>
      </trkpt>
      <trkpt lat="44.7551" lon="3.27957">
        <ele>994.14</ele>
        <time>2016-02-25T09:30:05Z</time>
      </trkpt>
      <trkpt lat="44.75516" lon="3.27991">
        <ele>989.33</ele>
        <time>2016-02-25T09:30:08Z</time>
      </trkpt>
      <trkpt lat="44.75516" lon="3.28005">
        <ele>987.41</ele>
        <time>2016-02-25T09:30:09Z</time>
      </trkpt>
      <trkpt lat="44.75513" lon="3.28047">
        <ele>984.53</ele>
        <time>2016-02-25T09:30:12Z</time>
      </trkpt>
      <trkpt lat="44.75507" lon="3.28105">
        <ele>980.68</ele>
        <time>2016-02-25T09:30:16Z</time>
      </trkpt>
      <trkpt lat="44.75506" lon="3.28162">
        <ele>977.8</ele>
        <time>2016-02-25T09:30:20Z</time>
      </trkpt>
      <trkpt lat="44.75508" lon="3.282">
        <ele>977.32</ele>
        <time>2016-02-25T09:30:23Z</time>
      </trkpt>
      <trkpt lat="44.7551" lon="3.28211">
        <ele>977.32</ele>
        <time>2016-02-25T09:30:24Z</time>
      </trkpt>
      <trkpt lat="44.75513" lon="3.28219">
        <ele>978.28</ele>
        <time>2016-02-25T09:30:25Z</time>
      </trkpt>
      <trkpt lat="44.75515" lon="3.28225">
        <ele>978.28</ele>
        <time>2016-02-25T09:30:26Z</time>
      </trkpt>
      <trkpt lat="44.75515" lon="3.28229">
        <ele>978.76</ele>
        <time>2016-02-25T09:30:27Z</time>
      </trkpt>
      <trkpt lat="44.75516" lon="3.28236">
        <ele>978.28</ele>
        <time>2016-02-25T09:30:30Z</time>
      </trkpt>
      <trkpt lat="44.75516" lon="3.28237">
        <ele>978.76</ele>
        <time>2016-02-25T09:30:31Z</time>
      </trkpt>
      <trkpt lat="44.75515" lon="3.28239">
        <ele>978.76</ele>
        <time>2016-02-25T09:30:36Z</time>
      </trkpt>
      <trkpt lat="44.75514" lon="3.28237">
        <ele>978.28</ele>
        <time>2016-02-25T09:30:37Z</time>
      </trkpt>
      <trkpt lat="44.75511" lon="3.28234">
        <ele>978.28</ele>
        <time>2016-02-25T09:30:39Z</time>
      </trkpt>
      <trkpt lat="44.75484" lon="3.28229">
        <ele>978.28</ele>
        <time>2016-02-25T09:30:53Z</time>
      </trkpt>
      <trkpt lat="44.75471" lon="3.2824">
        <ele>976.36</ele>
        <time>2016-02-25T09:30:57Z</time>
      </trkpt>
      <trkpt lat="44.75467" lon="3.28243">
        <ele>975.39</ele>
        <time>2016-02-25T09:30:58Z</time>
      </trkpt>
      <trkpt lat="44.75463" lon="3.28244">
        <ele>975.39</ele>
        <time>2016-02-25T09:30:59Z</time>
      </trkpt>
      <trkpt lat="44.75459" lon="3.28244">
        <ele>975.88</ele>
        <time>2016-02-25T09:31:00Z</time>
      </trkpt>
      <trkpt lat="44.75456" lon="3.28243">
        <ele>975.39</ele>
        <time>2016-02-25T09:31:01Z</time>
      </trkpt>
      <trkpt lat="44.75453" lon="3.28243">
        <ele>975.39</ele>
        <time>2016-02-25T09:31:02Z</time>
      </trkpt>
      <trkpt lat="44.7545" lon="3.28243">
        <ele>975.39</ele>
        <time>2016-02-25T09:31:03Z</time>
      </trkpt>
      <trkpt lat="44.75429" lon="3.28239">
        <ele>975.88</ele>
        <time>2016-02-25T09:31:15Z</time>
      </trkpt>
      <trkpt lat="44.75427" lon="3.28239">
        <ele>975.39</ele>
        <time>2016-02-25T09:31:18Z</time>
      </trkpt>
      <trkpt lat="44.75425" lon="3.28239">
        <ele>975.88</ele>
        <time>2016-02-25T09:31:19Z</time>
      </trkpt>
      <trkpt lat="44.75423" lon="3.28239">
        <ele>975.39</ele>
        <time>2016-02-25T09:31:20Z</time>
      </trkpt>
      <trkpt lat="44.75408" lon="3.28237">
        <ele>974.91</ele>
        <time>2016-02-25T09:31:26Z</time>
      </trkpt>
      <trkpt lat="44.75405" lon="3.28236">
        <ele>974.91</ele>
        <time>2016-02-25T09:31:27Z</time>
      </trkpt>
      <trkpt lat="44.75354" lon="3.28229">
        <ele>973.95</ele>
        <time>2016-02-25T09:31:41Z</time>
      </trkpt>
      <trkpt lat="44.75293" lon="3.28219">
        <ele>973.95</ele>
        <time>2016-02-25T09:31:55Z</time>
      </trkpt>
      <trkpt lat="44.75206" lon="3.28206">
        <ele>972.51</ele>
        <time>2016-02-25T09:32:13Z</time>
      </trkpt>
      <trkpt lat="44.75125" lon="3.28195">
        <ele>972.03</ele>
        <time>2016-02-25T09:32:28Z</time>
      </trkpt>
      <trkpt lat="44.75105" lon="3.2819">
        <ele>972.03</ele>
        <time>2016-02-25T09:32:32Z</time>
      </trkpt>
      <trkpt lat="44.75095" lon="3.28186">
        <ele>972.51</ele>
        <time>2016-02-25T09:32:34Z</time>
      </trkpt>
      <trkpt lat="44.7509" lon="3.28185">
        <ele>972.03</ele>
        <time>2016-02-25T09:32:35Z</time>
      </trkpt>
      <trkpt lat="44.75012" lon="3.28176">
        <ele>973.47</ele>
        <time>2016-02-25T09:32:51Z</time>
      </trkpt>
      <trkpt lat="44.74939" lon="3.28189">
        <ele>973.47</ele>
        <time>2016-02-25T09:33:06Z</time>
      </trkpt>
      <trkpt lat="44.74856" lon="3.28229">
        <ele>974.91</ele>
        <time>2016-02-25T09:33:23Z</time>
      </trkpt>
      <trkpt lat="44.74772" lon="3.28277">
        <ele>975.39</ele>
        <time>2016-02-25T09:33:40Z</time>
      </trkpt>
      <trkpt lat="44.74732" lon="3.28301">
        <ele>976.36</ele>
        <time>2016-02-25T09:33:48Z</time>
      </trkpt>
      <trkpt lat="44.74727" lon="3.28304">
        <ele>976.36</ele>
        <time>2016-02-25T09:33:49Z</time>
      </trkpt>
      <trkpt lat="44.74722" lon="3.28307">
        <ele>976.36</ele>
        <time>2016-02-25T09:33:50Z</time>
      </trkpt>
      <trkpt lat="44.74698" lon="3.28323">
        <ele>978.76</ele>
        <time>2016-02-25T09:33:55Z</time>
      </trkpt>
      <trkpt lat="44.74693" lon="3.28326">
        <ele>975.39</ele>
        <time>2016-02-25T09:33:56Z</time>
      </trkpt>
      <trkpt lat="44.74636" lon="3.28358">
        <ele>977.32</ele>
        <time>2016-02-25T09:34:08Z</time>
      </trkpt>
      <trkpt lat="44.74623" lon="3.28363">
        <ele>978.28</ele>
        <time>2016-02-25T09:34:11Z</time>
      </trkpt>
      <trkpt lat="44.74619" lon="3.28364">
        <ele>978.28</ele>
        <time>2016-02-25T09:34:12Z</time>
      </trkpt>
      <trkpt lat="44.74615" lon="3.28364">
        <ele>978.76</ele>
        <time>2016-02-25T09:34:13Z</time>
      </trkpt>
      <trkpt lat="44.74611" lon="3.28364">
        <ele>978.76</ele>
        <time>2016-02-25T09:34:14Z</time>
      </trkpt>
      <trkpt lat="44.74607" lon="3.28362">
        <ele>979.24</ele>
        <time>2016-02-25T09:34:15Z</time>
      </trkpt>
      <trkpt lat="44.7456" lon="3.28354">
        <ele>981.16</ele>
        <time>2016-02-25T09:34:30Z</time>
      </trkpt>
      <trkpt lat="44.74549" lon="3.28351">
        <ele>981.64</ele>
        <time>2016-02-25T09:34:41Z</time>
      </trkpt>
      <trkpt lat="44.74546" lon="3.28349">
        <ele>981.64</ele>
        <time>2016-02-25T09:34:52Z</time>
      </trkpt>
      <trkpt lat="44.74545" lon="3.28349">
        <ele>981.64</ele>
        <time>2016-02-25T09:35:08Z</time>
      </trkpt>
      <trkpt lat="44.74545" lon="3.28349">
        <ele>982.12</ele>
        <time>2016-02-25T09:35:30Z</time>
      </trkpt>
      <trkpt lat="44.74544" lon="3.28351">
        <ele>981.64</ele>
        <time>2016-02-25T09:35:37Z</time>
      </trkpt>
      <trkpt lat="44.74543" lon="3.28356">
        <ele>981.64</ele>
        <time>2016-02-25T09:35:39Z</time>
      </trkpt>
      <trkpt lat="44.74533" lon="3.28371">
        <ele>981.16</ele>
        <time>2016-02-25T09:35:44Z</time>
      </trkpt>
      <trkpt lat="44.74508" lon="3.28393">
        <ele>981.64</ele>
        <time>2016-02-25T09:35:51Z</time>
      </trkpt>
      <trkpt lat="44.74462" lon="3.28434">
        <ele>982.12</ele>
        <time>2016-02-25T09:36:05Z</time>
      </trkpt>
      <trkpt lat="44.74419" lon="3.28479">
        <ele>984.05</ele>
        <time>2016-02-25T09:36:18Z</time>
      </trkpt>
      <trkpt lat="44.74416" lon="3.28482">
        <ele>984.53</ele>
        <time>2016-02-25T09:36:19Z</time>
      </trkpt>
      <trkpt lat="44.74413" lon="3.28485">
        <ele>984.05</ele>
        <time>2016-02-25T09:36:20Z</time>
      </trkpt>
      <trkpt lat="44.74381" lon="3.28531">
        <ele>985.49</ele>
        <time>2016-02-25T09:36:33Z</time>
      </trkpt>
      <trkpt lat="44.74374" lon="3.28543">
        <ele>986.45</ele>
        <time>2016-02-25T09:36:43Z</time>
      </trkpt>
      <trkpt lat="44.74374" lon="3.28544">
        <ele>986.45</ele>
        <time>2016-02-25T09:36:45Z</time>
      </trkpt>
      <trkpt lat="44.74373" lon="3.28547">
        <ele>985.49</ele>
        <time>2016-02-25T09:36:46Z</time>
      </trkpt>
      <trkpt lat="44.74372" lon="3.28551">
        <ele>985.01</ele>
        <time>2016-02-25T09:36:47Z</time>
      </trkpt>
      <trkpt lat="44.7437" lon="3.28554">
        <ele>985.49</ele>
        <time>2016-02-25T09:36:48Z</time>
      </trkpt>
      <trkpt lat="44.74368" lon="3.28556">
        <ele>985.49</ele>
        <time>2016-02-25T09:36:49Z</time>
      </trkpt>
      <trkpt lat="44.74324" lon="3.28604">
        <ele>987.89</ele>
        <time>2016-02-25T09:37:09Z</time>
      </trkpt>
      <trkpt lat="44.74296" lon="3.28634">
        <ele>989.81</ele>
        <time>2016-02-25T09:37:23Z</time>
      </trkpt>
      <trkpt lat="44.74265" lon="3.28667">
        <ele>992.22</ele>
        <time>2016-02-25T09:37:37Z</time>
      </trkpt>
      <trkpt lat="44.74245" lon="3.28697">
        <ele>994.62</ele>
        <time>2016-02-25T09:37:49Z</time>
      </trkpt>
      <trkpt lat="44.74213" lon="3.2873">
        <ele>997.02</ele>
        <time>2016-02-25T09:38:06Z</time>
      </trkpt>
      <trkpt lat="44.74186" lon="3.28761">
        <ele>999.91</ele>
        <time>2016-02-25T09:38:21Z</time>
      </trkpt>
      <trkpt lat="44.74181" lon="3.28804">
        <ele>1001.35</ele>
        <time>2016-02-25T09:38:35Z</time>
      </trkpt>
      <trkpt lat="44.74183" lon="3.28854">
        <ele>1001.83</ele>
        <time>2016-02-25T09:38:49Z</time>
      </trkpt>
      <trkpt lat="44.74187" lon="3.289">
        <ele>1002.79</ele>
        <time>2016-02-25T09:39:00Z</time>
      </trkpt>
      <trkpt lat="44.7419" lon="3.28951">
        <ele>1005.2</ele>
        <time>2016-02-25T09:39:14Z</time>
      </trkpt>
      <trkpt lat="44.74192" lon="3.28967">
        <ele>1005.68</ele>
        <time>2016-02-25T09:39:19Z</time>
      </trkpt>
      <trkpt lat="44.74193" lon="3.28968">
        <ele>1006.16</ele>
        <time>2016-02-25T09:39:20Z</time>
      </trkpt>
      <trkpt lat="44.74194" lon="3.28967">
        <ele>1005.68</ele>
        <time>2016-02-25T09:39:21Z</time>
      </trkpt>
      <trkpt lat="44.74195" lon="3.28968">
        <ele>1005.68</ele>
        <time>2016-02-25T09:39:22Z</time>
      </trkpt>
      <trkpt lat="44.74195" lon="3.2897">
        <ele>1006.16</ele>
        <time>2016-02-25T09:39:23Z</time>
      </trkpt>
      <trkpt lat="44.74193" lon="3.2897">
        <ele>1006.16</ele>
        <time>2016-02-25T09:39:24Z</time>
      </trkpt>
      <trkpt lat="44.74192" lon="3.2897">
        <ele>1006.64</ele>
        <time>2016-02-25T09:39:25Z</time>
      </trkpt>
      <trkpt lat="44.7419" lon="3.28969">
        <ele>1006.64</ele>
        <time>2016-02-25T09:39:26Z</time>
      </trkpt>
      <trkpt lat="44.74189" lon="3.28968">
        <ele>1006.16</ele>
        <time>2016-02-25T09:39:27Z</time>
      </trkpt>
      <trkpt lat="44.74187" lon="3.28967">
        <ele>1006.16</ele>
        <time>2016-02-25T09:39:28Z</time>
      </trkpt>
      <trkpt lat="44.74186" lon="3.28965">
        <ele>1006.16</ele>
        <time>2016-02-25T09:39:29Z</time>
      </trkpt>
      <trkpt lat="44.74184" lon="3.28963">
        <ele>1006.16</ele>
        <time>2016-02-25T09:39:30Z</time>
      </trkpt>
      <trkpt lat="44.74183" lon="3.28961">
        <ele>1006.16</ele>
        <time>2016-02-25T09:39:31Z</time>
      </trkpt>
      <trkpt lat="44.74181" lon="3.28959">
        <ele>1006.16</ele>
        <time>2016-02-25T09:39:32Z</time>
      </trkpt>
      <trkpt lat="44.7418" lon="3.28957">
        <ele>1006.16</ele>
        <time>2016-02-25T09:39:33Z</time>
      </trkpt>
      <trkpt lat="44.74178" lon="3.28956">
        <ele>1006.16</ele>
        <time>2016-02-25T09:39:34Z</time>
      </trkpt>
      <trkpt lat="44.74178" lon="3.28954">
        <ele>1006.64</ele>
        <time>2016-02-25T09:39:35Z</time>
      </trkpt>
      <trkpt lat="44.74177" lon="3.28952">
        <ele>1006.64</ele>
        <time>2016-02-25T09:39:36Z</time>
      </trkpt>
      <trkpt lat="44.74175" lon="3.2895">
        <ele>1006.64</ele>
        <time>2016-02-25T09:39:37Z</time>
      </trkpt>
      <trkpt lat="44.74174" lon="3.28948">
        <ele>1007.12</ele>
        <time>2016-02-25T09:39:38Z</time>
      </trkpt>
      <trkpt lat="44.74172" lon="3.28946">
        <ele>1007.6</ele>
        <time>2016-02-25T09:39:40Z</time>
      </trkpt>
      <trkpt lat="44.74171" lon="3.28944">
        <ele>1007.6</ele>
        <time>2016-02-25T09:39:41Z</time>
      </trkpt>
      <trkpt lat="44.7417" lon="3.28942">
        <ele>1007.6</ele>
        <time>2016-02-25T09:39:42Z</time>
      </trkpt>
      <trkpt lat="44.74169" lon="3.28941">
        <ele>1007.6</ele>
        <time>2016-02-25T09:39:43Z</time>
      </trkpt>
      <trkpt lat="44.74168" lon="3.2894">
        <ele>1008.08</ele>
        <time>2016-02-25T09:39:44Z</time>
      </trkpt>
      <trkpt lat="44.74167" lon="3.28938">
        <ele>1007.6</ele>
        <time>2016-02-25T09:39:45Z</time>
      </trkpt>
      <trkpt lat="44.74167" lon="3.28936">
        <ele>1008.08</ele>
        <time>2016-02-25T09:39:46Z</time>
      </trkpt>
      <trkpt lat="44.74166" lon="3.28934">
        <ele>1008.08</ele>
        <time>2016-02-25T09:39:47Z</time>
      </trkpt>
      <trkpt lat="44.74163" lon="3.28931">
        <ele>1009.04</ele>
        <time>2016-02-25T09:39:50Z</time>
      </trkpt>
      <trkpt lat="44.74162" lon="3.28929">
        <ele>1009.52</ele>
        <time>2016-02-25T09:39:51Z</time>
      </trkpt>
      <trkpt lat="44.74161" lon="3.28927">
        <ele>1009.04</ele>
        <time>2016-02-25T09:39:52Z</time>
      </trkpt>
      <trkpt lat="44.74159" lon="3.28924">
        <ele>1009.52</ele>
        <time>2016-02-25T09:39:56Z</time>
      </trkpt>
      <trkpt lat="44.74159" lon="3.28923">
        <ele>1009.52</ele>
        <time>2016-02-25T09:39:58Z</time>
      </trkpt>
      <trkpt lat="44.74158" lon="3.28922">
        <ele>1009.52</ele>
        <time>2016-02-25T09:39:59Z</time>
      </trkpt>
      <trkpt lat="44.74156" lon="3.28921">
        <ele>1009.52</ele>
        <time>2016-02-25T09:40:00Z</time>
      </trkpt>
      <trkpt lat="44.74155" lon="3.2892">
        <ele>1010</ele>
        <time>2016-02-25T09:40:01Z</time>
      </trkpt>
      <trkpt lat="44.74153" lon="3.28919">
        <ele>1010</ele>
        <time>2016-02-25T09:40:02Z</time>
      </trkpt>
      <trkpt lat="44.74129" lon="3.28919">
        <ele>1010.96</ele>
        <time>2016-02-25T09:40:15Z</time>
      </trkpt>
      <trkpt lat="44.74104" lon="3.28922">
        <ele>1010.96</ele>
        <time>2016-02-25T09:40:28Z</time>
      </trkpt>
      <trkpt lat="44.74066" lon="3.2894">
        <ele>1011.93</ele>
        <time>2016-02-25T09:40:44Z</time>
      </trkpt>
      <trkpt lat="44.74059" lon="3.28944">
        <ele>1011.93</ele>
        <time>2016-02-25T09:40:49Z</time>
      </trkpt>
      <trkpt lat="44.74057" lon="3.28944">
        <ele>1011.93</ele>
        <time>2016-02-25T09:40:52Z</time>
      </trkpt>
      <trkpt lat="44.74056" lon="3.28943">
        <ele>1010</ele>
        <time>2016-02-25T09:40:59Z</time>
      </trkpt>
      <trkpt lat="44.74052" lon="3.28951">
        <ele>1011.44</ele>
        <time>2016-02-25T09:52:59Z</time>
      </trkpt>
      <trkpt lat="44.74052" lon="3.28952">
        <ele>1010.96</ele>
        <time>2016-02-25T09:53:00Z</time>
      </trkpt>
      <trkpt lat="44.74056" lon="3.28948">
        <ele>1010.96</ele>
        <time>2016-02-25T09:53:13Z</time>
      </trkpt>
      <trkpt lat="44.74058" lon="3.28952">
        <ele>1010.96</ele>
        <time>2016-02-25T09:53:16Z</time>
      </trkpt>
      <trkpt lat="44.74056" lon="3.28957">
        <ele>1010.96</ele>
        <time>2016-02-25T09:53:20Z</time>
      </trkpt>
      <trkpt lat="44.74039" lon="3.28942">
        <ele>1011.44</ele>
        <time>2016-02-25T09:53:32Z</time>
      </trkpt>
      <trkpt lat="44.74013" lon="3.28904">
        <ele>1011.93</ele>
        <time>2016-02-25T09:53:47Z</time>
      </trkpt>
      <trkpt lat="44.73995" lon="3.28905">
        <ele>1012.89</ele>
        <time>2016-02-25T09:53:54Z</time>
      </trkpt>
      <trkpt lat="44.73984" lon="3.28905">
        <ele>1013.37</ele>
        <time>2016-02-25T09:54:02Z</time>
      </trkpt>
      <trkpt lat="44.73982" lon="3.28904">
        <ele>1013.85</ele>
        <time>2016-02-25T09:54:03Z</time>
      </trkpt>
      <trkpt lat="44.73944" lon="3.28902">
        <ele>1015.29</ele>
        <time>2016-02-25T09:54:17Z</time>
      </trkpt>
      <trkpt lat="44.73907" lon="3.28909">
        <ele>1015.77</ele>
        <time>2016-02-25T09:54:30Z</time>
      </trkpt>
      <trkpt lat="44.73864" lon="3.28916">
        <ele>1017.69</ele>
        <time>2016-02-25T09:54:45Z</time>
      </trkpt>
      <trkpt lat="44.73809" lon="3.28925">
        <ele>1020.58</ele>
        <time>2016-02-25T09:55:04Z</time>
      </trkpt>
      <trkpt lat="44.73755" lon="3.28936">
        <ele>1022.98</ele>
        <time>2016-02-25T09:55:22Z</time>
      </trkpt>
      <trkpt lat="44.73708" lon="3.28945">
        <ele>1025.38</ele>
        <time>2016-02-25T09:55:37Z</time>
      </trkpt>
      <trkpt lat="44.73648" lon="3.28954">
        <ele>1024.9</ele>
        <time>2016-02-25T09:55:51Z</time>
      </trkpt>
      <trkpt lat="44.73572" lon="3.28968">
        <ele>1022.5</ele>
        <time>2016-02-25T09:56:06Z</time>
      </trkpt>
      <trkpt lat="44.73529" lon="3.28986">
        <ele>1021.06</ele>
        <time>2016-02-25T09:56:13Z</time>
      </trkpt>
      <trkpt lat="44.73439" lon="3.29029">
        <ele>1021.06</ele>
        <time>2016-02-25T09:56:28Z</time>
      </trkpt>
      <trkpt lat="44.73367" lon="3.29061">
        <ele>1017.69</ele>
        <time>2016-02-25T09:56:40Z</time>
      </trkpt>
      <trkpt lat="44.73313" lon="3.29088">
        <ele>1014.33</ele>
        <time>2016-02-25T09:56:48Z</time>
      </trkpt>
      <trkpt lat="44.73299" lon="3.29098">
        <ele>1013.37</ele>
        <time>2016-02-25T09:56:50Z</time>
      </trkpt>
      <trkpt lat="44.73293" lon="3.29105">
        <ele>1013.37</ele>
        <time>2016-02-25T09:56:51Z</time>
      </trkpt>
      <trkpt lat="44.73288" lon="3.29113">
        <ele>1012.89</ele>
        <time>2016-02-25T09:56:52Z</time>
      </trkpt>
      <trkpt lat="44.73283" lon="3.29123">
        <ele>1012.41</ele>
        <time>2016-02-25T09:56:53Z</time>
      </trkpt>
      <trkpt lat="44.7328" lon="3.29133">
        <ele>1012.41</ele>
        <time>2016-02-25T09:56:54Z</time>
      </trkpt>
      <trkpt lat="44.73275" lon="3.29142">
        <ele>1012.41</ele>
        <time>2016-02-25T09:56:55Z</time>
      </trkpt>
      <trkpt lat="44.73268" lon="3.29148">
        <ele>1011.93</ele>
        <time>2016-02-25T09:56:56Z</time>
      </trkpt>
      <trkpt lat="44.7326" lon="3.29151">
        <ele>1010.96</ele>
        <time>2016-02-25T09:56:57Z</time>
      </trkpt>
      <trkpt lat="44.73251" lon="3.29152">
        <ele>1010</ele>
        <time>2016-02-25T09:56:58Z</time>
      </trkpt>
      <trkpt lat="44.73243" lon="3.29152">
        <ele>1009.52</ele>
        <time>2016-02-25T09:56:59Z</time>
      </trkpt>
      <trkpt lat="44.73235" lon="3.29154">
        <ele>1009.04</ele>
        <time>2016-02-25T09:57:00Z</time>
      </trkpt>
      <trkpt lat="44.7322" lon="3.29158">
        <ele>1010</ele>
        <time>2016-02-25T09:57:02Z</time>
      </trkpt>
      <trkpt lat="44.73212" lon="3.29157">
        <ele>1008.56</ele>
        <time>2016-02-25T09:57:03Z</time>
      </trkpt>
      <trkpt lat="44.73205" lon="3.29154">
        <ele>1009.04</ele>
        <time>2016-02-25T09:57:04Z</time>
      </trkpt>
      <trkpt lat="44.732" lon="3.29147">
        <ele>1009.04</ele>
        <time>2016-02-25T09:57:05Z</time>
      </trkpt>
      <trkpt lat="44.73194" lon="3.29141">
        <ele>1009.04</ele>
        <time>2016-02-25T09:57:06Z</time>
      </trkpt>
      <trkpt lat="44.73179" lon="3.29123">
        <ele>1008.08</ele>
        <time>2016-02-25T09:57:09Z</time>
      </trkpt>
      <trkpt lat="44.73173" lon="3.29118">
        <ele>1008.56</ele>
        <time>2016-02-25T09:57:10Z</time>
      </trkpt>
      <trkpt lat="44.73166" lon="3.29116">
        <ele>1008.56</ele>
        <time>2016-02-25T09:57:11Z</time>
      </trkpt>
      <trkpt lat="44.73131" lon="3.29109">
        <ele>1011.93</ele>
        <time>2016-02-25T09:57:17Z</time>
      </trkpt>
      <trkpt lat="44.73079" lon="3.29098">
        <ele>1014.81</ele>
        <time>2016-02-25T09:57:27Z</time>
      </trkpt>
      <trkpt lat="44.73074" lon="3.29098">
        <ele>1015.29</ele>
        <time>2016-02-25T09:57:28Z</time>
      </trkpt>
      <trkpt lat="44.7307" lon="3.29097">
        <ele>1015.77</ele>
        <time>2016-02-25T09:57:29Z</time>
      </trkpt>
      <trkpt lat="44.73065" lon="3.29097">
        <ele>1015.77</ele>
        <time>2016-02-25T09:57:30Z</time>
      </trkpt>
      <trkpt lat="44.73062" lon="3.29098">
        <ele>1016.25</ele>
        <time>2016-02-25T09:57:31Z</time>
      </trkpt>
      <trkpt lat="44.73025" lon="3.29098">
        <ele>1017.69</ele>
        <time>2016-02-25T09:57:42Z</time>
      </trkpt>
      <trkpt lat="44.72978" lon="3.29083">
        <ele>1018.17</ele>
        <time>2016-02-25T09:57:54Z</time>
      </trkpt>
      <trkpt lat="44.72924" lon="3.29026">
        <ele>1020.1</ele>
        <time>2016-02-25T09:58:11Z</time>
      </trkpt>
      <trkpt lat="44.72883" lon="3.28973">
        <ele>1022.02</ele>
        <time>2016-02-25T09:58:26Z</time>
      </trkpt>
      <trkpt lat="44.72844" lon="3.28924">
        <ele>1024.42</ele>
        <time>2016-02-25T09:58:40Z</time>
      </trkpt>
      <trkpt lat="44.72803" lon="3.28879">
        <ele>1027.79</ele>
        <time>2016-02-25T09:58:55Z</time>
      </trkpt>
      <trkpt lat="44.72757" lon="3.28828">
        <ele>1029.71</ele>
        <time>2016-02-25T09:59:12Z</time>
      </trkpt>
      <trkpt lat="44.72713" lon="3.28791">
        <ele>1032.11</ele>
        <time>2016-02-25T09:59:28Z</time>
      </trkpt>
      <trkpt lat="44.72665" lon="3.28759">
        <ele>1035</ele>
        <time>2016-02-25T09:59:45Z</time>
      </trkpt>
      <trkpt lat="44.72623" lon="3.28743">
        <ele>1037.4</ele>
        <time>2016-02-25T10:00:00Z</time>
      </trkpt>
      <trkpt lat="44.72572" lon="3.28726">
        <ele>1039.8</ele>
        <time>2016-02-25T10:00:18Z</time>
      </trkpt>
      <trkpt lat="44.72526" lon="3.28716">
        <ele>1041.73</ele>
        <time>2016-02-25T10:00:32Z</time>
      </trkpt>
      <trkpt lat="44.72464" lon="3.28735">
        <ele>1041.73</ele>
        <time>2016-02-25T10:00:47Z</time>
      </trkpt>
      <trkpt lat="44.72401" lon="3.28753">
        <ele>1042.21</ele>
        <time>2016-02-25T10:01:00Z</time>
      </trkpt>
      <trkpt lat="44.72396" lon="3.28754">
        <ele>1042.21</ele>
        <time>2016-02-25T10:01:01Z</time>
      </trkpt>
      <trkpt lat="44.72391" lon="3.28753">
        <ele>1041.73</ele>
        <time>2016-02-25T10:01:02Z</time>
      </trkpt>
      <trkpt lat="44.72386" lon="3.28751">
        <ele>1041.73</ele>
        <time>2016-02-25T10:01:03Z</time>
      </trkpt>
      <trkpt lat="44.72381" lon="3.28748">
        <ele>1041.73</ele>
        <time>2016-02-25T10:01:04Z</time>
      </trkpt>
      <trkpt lat="44.72377" lon="3.28744">
        <ele>1041.73</ele>
        <time>2016-02-25T10:01:05Z</time>
      </trkpt>
      <trkpt lat="44.72373" lon="3.2874">
        <ele>1042.21</ele>
        <time>2016-02-25T10:01:06Z</time>
      </trkpt>
      <trkpt lat="44.72315" lon="3.28674">
        <ele>1043.17</ele>
        <time>2016-02-25T10:01:21Z</time>
      </trkpt>
      <trkpt lat="44.7229" lon="3.28644">
        <ele>1043.17</ele>
        <time>2016-02-25T10:01:28Z</time>
      </trkpt>
      <trkpt lat="44.72287" lon="3.2864">
        <ele>1043.65</ele>
        <time>2016-02-25T10:01:29Z</time>
      </trkpt>
      <trkpt lat="44.72284" lon="3.28636">
        <ele>1043.65</ele>
        <time>2016-02-25T10:01:30Z</time>
      </trkpt>
      <trkpt lat="44.7228" lon="3.28632">
        <ele>1043.65</ele>
        <time>2016-02-25T10:01:31Z</time>
      </trkpt>
      <trkpt lat="44.72277" lon="3.28628">
        <ele>1043.65</ele>
        <time>2016-02-25T10:01:32Z</time>
      </trkpt>
      <trkpt lat="44.72274" lon="3.28623">
        <ele>1043.65</ele>
        <time>2016-02-25T10:01:33Z</time>
      </trkpt>
      <trkpt lat="44.72271" lon="3.28619">
        <ele>1044.13</ele>
        <time>2016-02-25T10:01:34Z</time>
      </trkpt>
      <trkpt lat="44.72268" lon="3.28614">
        <ele>1043.65</ele>
        <time>2016-02-25T10:01:35Z</time>
      </trkpt>
      <trkpt lat="44.72266" lon="3.28608">
        <ele>1044.13</ele>
        <time>2016-02-25T10:01:36Z</time>
      </trkpt>
      <trkpt lat="44.72264" lon="3.28603">
        <ele>1044.13</ele>
        <time>2016-02-25T10:01:37Z</time>
      </trkpt>
      <trkpt lat="44.72261" lon="3.28591">
        <ele>1044.13</ele>
        <time>2016-02-25T10:01:39Z</time>
      </trkpt>
      <trkpt lat="44.72261" lon="3.28585">
        <ele>1044.13</ele>
        <time>2016-02-25T10:01:40Z</time>
      </trkpt>
      <trkpt lat="44.7226" lon="3.28579">
        <ele>1044.61</ele>
        <time>2016-02-25T10:01:41Z</time>
      </trkpt>
      <trkpt lat="44.7226" lon="3.28574">
        <ele>1044.61</ele>
        <time>2016-02-25T10:01:42Z</time>
      </trkpt>
      <trkpt lat="44.7226" lon="3.28568">
        <ele>1045.09</ele>
        <time>2016-02-25T10:01:43Z</time>
      </trkpt>
      <trkpt lat="44.72261" lon="3.28562">
        <ele>1044.61</ele>
        <time>2016-02-25T10:01:44Z</time>
      </trkpt>
      <trkpt lat="44.72262" lon="3.28485">
        <ele>1046.05</ele>
        <time>2016-02-25T10:01:58Z</time>
      </trkpt>
      <trkpt lat="44.72258" lon="3.28469">
        <ele>1046.05</ele>
        <time>2016-02-25T10:02:08Z</time>
      </trkpt>
      <trkpt lat="44.72259" lon="3.28464">
        <ele>1046.53</ele>
        <time>2016-02-25T10:02:23Z</time>
      </trkpt>
      <trkpt lat="44.7226" lon="3.28468">
        <ele>1046.53</ele>
        <time>2016-02-25T10:02:36Z</time>
      </trkpt>
      <trkpt lat="44.7226" lon="3.28468">
        <ele>1049.42</ele>
        <time>2016-02-25T10:02:50Z</time>
      </trkpt>
      <trkpt lat="44.7226" lon="3.28468">
        <ele>1046.53</ele>
        <time>2016-02-25T10:02:52Z</time>
      </trkpt>
      <trkpt lat="44.7226" lon="3.28468">
        <ele>1045.57</ele>
        <time>2016-02-25T10:02:54Z</time>
      </trkpt>
      <trkpt lat="44.72258" lon="3.28465">
        <ele>1047.01</ele>
        <time>2016-02-25T10:07:00Z</time>
      </trkpt>
      <trkpt lat="44.72258" lon="3.28466">
        <ele>1047.01</ele>
        <time>2016-02-25T10:07:01Z</time>
      </trkpt>
      <trkpt lat="44.72258" lon="3.28468">
        <ele>1048.94</ele>
        <time>2016-02-25T10:07:31Z</time>
      </trkpt>
      <trkpt lat="44.72258" lon="3.28468">
        <ele>1048.94</ele>
        <time>2016-02-25T10:07:54Z</time>
      </trkpt>
      <trkpt lat="44.72259" lon="3.28468">
        <ele>1047.01</ele>
        <time>2016-02-25T10:08:11Z</time>
      </trkpt>
    </trkseg>
  </trk>
</gpx>